[[{"header":{"parameterUnit":"m.s-1","parameterCategory":1,"la1":31.0,"la2":29.5877,"lo1":-88.7671,"lo2":-86.6584,"dy":0.0162,"dx":0.0185,"nx":115,"ny":88,"refTime":"2024-09-12T06:00:00:Z","depth":0,"parameterNumber":2,"parameterNumberName":"U-component_of_WINDS"},"data":[0.0,0.0,0.0,0.0,0.0,0.0,0.0,0.0,0.0,0.0,0.0,0.0,0.0,0.0,0.0,0.0,0.0,0.0,0.0,0.0,0.0,0.0,0.0,0.0,0.0,0.0,0.0,0.0,0.0,0.0,0.0,0.0,0.0,0.0,0.0,0.0,0.0,0.0,0.0,0.0,0.0,0.0,0.0,0.0,0.0,0.0,0.0,0.0,0.0,0.0,0.0,0.0,0.0,0.0,0.0,0.0,0.0,0.0,0.0,0.0,0.0,0.0,0.0,0.0,0.0,0.0,0.0,0.0,0.0,0.0,0.0,0.0,0.0,0.0,0.0,0.0,0.0,0.0,0.0,0.0,0.0,0.0,0.0,0.0,0.0,0.0,0.0,0.0,0.0,0.0,0.0,0.0,0.0,0.0,0.0,0.0,0.0,0.0,0.0,0.0,0.0,0.0,0.0,0.0,0.0,0.0,0.0,0.0,0.0,0.0,0.0,0.0,0.0,0.0,0.0,0.0,0.0,0.0,0.0,0.0,0.0,0.0,0.0,0.0,0.0,0.0,0.0,0.0,0.0,0.0,0.0,0.0,0.0,0.0,0.0,0.0,0.0,0.0,0.0,0.0,0.0,0.0,0.0,0.0,0.0,0.0,0.0,0.0,0.0,0.0,0.0,0.0,0.0,0.0,0.0,0.0,0.0,0.0,0.0,0.0,0.0,0.0,0.0,0.0,0.0,0.0,0.0,0.0,0.0,0.0,0.0,0.0,0.0,0.0,0.0,0.0,0.0,0.0,0.0,0.0,0.0,0.0,0.0,0.0,0.0,0.0,0.0,0.0,0.0,0.0,0.0,0.0,0.0,0.0,0.0,0.0,0.0,0.0,0.0,0.0,0.0,0.0,0.0,0.0,0.0,0.0,0.0,0.0,0.0,0.0,0.0,0.0,0.0,0.0,0.0,0.0,0.0,0.0,0.0,0.0,0.0,0.0,0.0,0.0,0.0,0.0,0.0,0.0,0.0,0.0,0.0,0.0,0.0,0.0,0.0,0.0,0.0,0.0,0.0,0.0,0.0,0.0,0.0,0.0,0.0,0.0,0.0,0.0,0.0,0.0,0.0,0.0,0.0,0.0,0.0,0.0,0.0,0.0,0.0,0.0,0.0,0.0,0.0,0.0,0.0,0.0,0.0,0.0,0.0,0.0,0.0,0.0,0.0,0.0,0.0,0.0,0.0,0.0,0.0,0.0,0.0,0.0,0.0,0.0,0.0,0.0,0.0,0.0,0.0,0.0,0.0,0.0,0.0,0.0,0.0,0.0,0.0,0.0,0.0,0.0,0.0,0.0,0.0,0.0,0.0,0.0,0.0,0.0,0.0,0.0,0.0,0.0,0.0,0.0,0.0,0.0,0.0,0.0,0.0,0.0,0.0,0.0,0.0,0.0,0.0,0.0,0.0,0.0,0.0,0.0,0.0,0.0,0.0,0.0,0.0,0.0,0.0,0.0,0.0,0.0,0.0,0.0,0.0,0.0,0.0,0.0,0.0,0.0,0.0,0.0,0.0,0.0,0.0,0.0,0.0,0.0,0.0,0.0,0.0,0.0,0.0,0.0,0.0,0.0,0.0,0.0,0.0,0.0,0.0,0.0,0.0,0.0,0.0,0.0,0.0,0.0,0.0,0.0,0.0,0.0,0.0,0.0,0.0,0.0,0.0,0.0,0.0,0.0,0.0,0.0,0.0,0.0,0.0,0.0,0.0,0.0,0.0,0.0,0.0,0.0,0.0,0.0,0.0,0.0,0.0,0.0,0.0,0.0,0.0,0.0,0.0,0.0,0.0,0.0,0.0,0.0,0.0,0.0,0.0,0.0,0.0,0.0,0.0,0.0,0.0,0.0,0.0,0.0,0.0,0.0,0.0,0.0,0.0,0.0,0.0,0.0,0.0,0.0,0.0,0.0,0.0,0.0,0.0,0.0,0.0,0.0,0.0,0.0,0.0,0.0,0.0,0.0,0.0,0.0,0.0,0.0,0.0,0.0,0.0,0.0,0.0,0.0,0.0,0.0,0.0,0.0,0.0,0.0,0.0,0.0,0.0,0.0,0.0,0.0,0.0,0.0,0.0,0.0,0.0,0.0,0.0,0.0,0.0,0.0,0.0,0.0,0.0,0.0,0.0,0.0,0.0,0.0,0.0,0.0,0.0,0.0,0.0,0.0,0.0,0.0,0.0,0.0,0.0,0.0,0.0,0.0,0.0,0.0,0.0,0.0,0.0,0.0,0.0,0.0,0.0,0.0,0.0,0.0,0.0,0.0,0.0,0.0,0.0,0.0,0.0,0.0,0.0,0.0,0.0,0.0,0.0,0.0,0.0,0.0,0.0,0.0,0.0,0.0,0.0,0.0,0.0,0.0,0.0,0.0,0.0,0.0,0.0,0.0,0.0,0.0,0.0,0.0,0.0,0.0,0.0,0.0,0.0,0.0,0.0,0.0,0.0,0.0,0.0,0.0,0.0,0.0,0.0,0.0,0.0,0.0,0.0,0.0,0.0,0.0,0.0,0.0,0.0,0.0,0.0,0.0,0.0,0.0,0.0,0.0,0.0,0.0,0.0,0.0,0.0,0.0,0.0,0.0,0.0,0.0,0.0,0.0,0.0,0.0,0.0,0.0,0.0,0.0,0.0,0.0,0.0,0.0,0.0,0.0,0.0,0.0,0.0,0.0,0.0,0.0,0.0,0.0,0.0,0.0,0.0,0.0,0.0,0.0,0.0,0.0,0.0,0.0,0.0,0.0,0.0,0.0,0.0,0.0,0.0,0.0,0.0,0.0,0.0,0.0,0.0,0.0,0.0,0.0,0.0,0.0,0.0,0.0,0.0,0.0,0.0,0.0,0.0,0.0,0.0,0.0,0.0,0.0,0.0,0.0,0.0,0.0,0.0,0.0,0.0,0.0,0.0,0.0,0.0,0.0,0.0,0.0,0.0,0.0,0.0,0.0,0.0,0.0,0.0,0.0,0.0,0.0,0.0,0.0,0.0,0.0,0.0,0.0,0.0,0.0,0.0,0.0,0.0,0.0,0.0,0.0,0.0,0.0,0.0,0.0,0.0,0.0,0.0,0.0,0.0,0.0,0.0,0.0,0.0,0.0,0.0,0.0,0.0,0.0,0.0,0.0,0.0,0.0,0.0,0.0,0.0,0.0,0.0,0.0,0.0,0.0,0.0,0.0,0.0,0.0,0.0,0.0,0.0,0.0,0.0,0.0,0.0,0.0,0.0,0.0,0.0,0.0,0.0,0.0,0.0,0.0,0.0,0.0,0.0,0.0,0.0,0.0,0.0,0.0,0.0,0.0,0.0,0.0,0.0,0.0,0.0,0.0,0.0,0.0,0.0,0.0,0.0,0.0,0.0,0.0,0.0,0.0,0.0,0.0,0.0,0.0,0.0,0.0,0.0,0.0,0.0,0.0,0.0,0.0,0.0,0.0,0.0,0.0,0.0,0.0,0.0,0.0,0.0,0.0,0.0,0.0,0.0,0.0,0.0,0.0,0.0,0.0,0.0,0.0,0.0,0.0,0.0,0.0,0.0,0.0,0.0,0.0,0.0,0.0,0.0,0.0,0.0,0.0,0.0,0.0,0.0,0.0,0.0,0.0,0.0,0.0,0.0,0.0,0.0,0.0,0.0,0.0,0.0,0.0,0.0,0.0,0.0,0.0,0.0,0.0,0.0,0.0,0.0,0.0,0.0,0.0,0.0,0.0,0.0,0.0,0.0,0.0,0.0,0.0,0.0,0.0,0.0,0.0,0.0,0.0,0.0,0.0,0.0,0.0,0.0,0.0,0.0,0.0,0.0,0.0,0.0,0.0,0.0,0.0,0.0,0.0,0.0,0.0,0.0,0.0,0.0,0.0,0.0,0.0,0.0,0.0,0.0,0.0,0.0,0.0,0.0,0.0,0.0,0.0,0.0,0.0,0.0,0.0,0.0,0.0,0.0,0.0,0.0,0.0,0.0,0.0,0.0,0.0,0.0,0.0,0.0,0.0,0.0,0.0,0.0,0.0,0.0,0.0,0.0,0.0,0.0,0.0,0.0,0.0,0.0,0.0,0.0,0.0,0.0,0.0,0.0,0.0,0.0,0.0,0.0,0.0,0.0,0.0,0.0,0.0,0.0,0.0,0.0,0.0,0.0,0.0,0.0,0.0,0.0,0.0,0.0,0.0,0.0,0.0,0.0,0.0,0.0,0.0,0.0,0.0,0.0,0.0,0.0,0.0,0.0,0.0,0.0,0.0,1.2519,0.0,0.0,0.0,0.0,0.0,0.0,0.0,0.0,0.0,0.0,0.0,0.0,0.0,0.0,0.0,0.0,0.0,0.0,0.0,0.0,0.0,0.0,0.0,0.0,0.0,0.0,0.0,0.0,0.0,0.0,0.0,0.0,0.0,0.0,0.0,0.0,0.0,0.0,0.0,0.0,0.0,0.0,0.0,0.0,0.0,0.0,0.0,0.0,0.0,0.0,0.0,0.0,0.0,0.0,0.0,0.0,0.0,0.0,0.0,0.0,0.0,0.0,0.0,0.0,0.0,0.0,0.0,0.0,0.0,0.0,0.0,0.0,0.0,0.0,0.0,0.0,0.0,0.0,0.0,0.0,0.0,0.0,0.0,0.0,0.0,0.0,0.0,0.0,0.0,0.0,0.0,0.0,0.0,0.0,0.0,0.0,0.0,0.0,0.0,0.0,0.0,0.0,0.0,0.0,0.0,0.0,0.0,0.0,0.0,0.0,1.3856,1.3856,1.345,1.2857,1.2047,0.0,0.0,0.0,0.0,0.0,0.0,0.0,0.0,0.0,0.0,0.0,0.0,0.0,0.0,0.0,0.0,0.0,0.0,0.0,0.0,0.0,0.0,0.0,0.0,0.0,0.0,0.0,0.0,0.0,0.0,0.0,0.0,0.0,0.0,0.0,0.0,0.0,0.0,0.0,0.0,0.0,0.0,0.0,0.0,0.0,0.0,0.0,0.0,0.0,0.0,0.0,0.0,0.0,0.0,0.0,0.0,0.0,0.0,0.0,0.0,0.0,0.0,0.0,0.0,0.0,0.0,0.0,0.0,0.0,0.0,0.0,0.0,0.0,0.0,0.0,0.0,0.0,0.0,0.0,0.0,0.0,0.0,0.0,0.0,0.0,0.0,0.0,0.0,0.0,0.0,0.0,0.0,0.0,0.0,0.0,0.0,0.0,0.0,0.0,0.0,0.0,0.0,0.0,0.0,0.0,0.0,0.0,0.0,0.0,0.0,0.0,0.0,1.3833,1.3103,1.2278,0.0,0.0,0.0,0.0,0.0,0.0,0.0,0.0,0.0,0.0,0.0,0.0,0.0,0.0,0.0,0.0,0.0,0.0,0.0,0.0,0.0,0.0,0.0,0.0,0.0,0.0,0.0,0.0,0.0,0.0,0.0,0.0,0.0,0.0,0.0,0.0,0.0,0.0,0.0,0.0,0.0,0.0,0.0,0.0,0.0,0.0,0.0,0.0,0.0,0.0,0.0,0.0,0.0,0.0,0.0,0.0,0.0,0.0,0.0,0.0,0.0,0.0,0.0,0.0,0.0,0.0,0.0,0.0,0.0,0.0,0.0,0.0,0.0,0.0,0.0,0.0,0.0,0.0,0.0,0.0,0.0,0.0,0.0,0.0,0.0,0.0,0.0,0.0,0.0,0.0,0.0,0.0,0.0,0.0,0.0,0.0,0.0,0.0,0.0,0.0,0.0,0.0,0.0,0.0,0.0,0.0,0.0,0.0,0.0,0.0,1.4522,1.5853,1.587,0.0,1.4537,0.0,0.0,0.0,0.0,0.0,0.0,0.0,0.0,0.0,0.0,0.0,0.0,0.0,0.0,0.0,0.0,0.0,0.0,0.0,0.0,0.0,0.0,0.0,0.0,0.0,0.0,0.0,0.0,0.0,0.0,0.0,0.0,0.0,0.0,0.0,0.0,0.0,0.0,0.0,0.0,0.0,0.0,0.0,0.0,0.0,0.0,0.0,0.0,0.0,0.0,0.0,0.0,0.0,0.0,0.0,0.0,0.0,0.0,0.0,0.0,0.0,0.0,0.0,0.0,0.0,0.0,0.0,0.0,0.0,0.0,0.0,0.0,0.0,0.0,0.0,0.0,0.0,0.0,0.0,0.0,0.0,0.0,0.0,0.0,0.0,0.0,0.0,0.0,0.0,0.0,0.0,0.0,0.0,0.0,0.0,0.0,0.0,0.0,0.0,0.0,0.0,0.0,0.0,0.0,0.0,0.0,0.0,0.0,0.0,0.0,1.4851,1.5449,1.5012,1.4548,0.0,0.0,0.0,0.0,0.0,0.0,0.0,0.0,0.0,0.0,0.0,0.0,0.0,0.0,0.0,0.0,0.0,0.0,0.0,0.0,0.0,0.0,0.0,0.0,0.0,0.0,0.0,0.0,0.0,0.0,0.0,0.0,0.0,0.0,0.0,0.0,0.0,0.0,0.0,0.0,0.0,0.0,0.0,0.0,0.0,0.0,0.0,0.0,0.0,0.0,0.0,0.0,0.0,0.0,0.0,0.0,0.0,0.0,0.0,0.0,0.0,0.0,0.0,0.0,0.0,0.0,0.0,0.0,0.0,0.0,0.0,0.0,0.0,0.0,0.0,0.0,0.0,0.0,0.0,0.0,0.0,0.0,0.0,0.0,0.0,0.0,0.0,0.0,0.0,0.0,0.0,0.0,0.0,0.0,0.0,0.0,0.0,0.0,0.0,0.0,0.0,0.0,0.0,0.0,0.0,0.0,0.0,0.0,0.0,0.0,1.464,0.0,1.5588,1.5048,1.4273,1.3238,0.0,0.0,0.0,0.0,0.0,0.0,0.0,0.0,0.0,0.0,0.0,0.0,0.0,0.0,0.0,0.0,0.0,0.0,0.0,0.0,0.0,0.0,0.0,0.0,0.0,0.0,0.0,0.0,0.0,0.0,0.0,0.0,0.0,0.0,0.0,0.0,0.0,0.0,0.0,0.0,0.0,0.0,0.0,0.0,0.0,0.0,0.0,0.0,0.0,0.0,0.0,0.0,0.0,0.0,0.0,0.0,0.0,0.0,0.0,0.0,0.0,0.0,0.0,0.0,0.0,0.0,0.0,0.0,0.0,0.0,0.0,0.0,0.0,0.0,0.0,0.0,0.0,0.0,0.0,0.0,0.0,0.0,0.0,0.0,0.0,0.0,0.0,0.0,0.0,0.0,0.0,0.0,0.0,0.0,0.0,0.0,0.0,0.0,0.0,0.0,0.0,0.0,0.0,0.0,0.0,0.0,0.0,0.0,0.0,1.5659,1.5694,1.7132,1.7093,1.5592,0.0,0.0,0.0,0.0,0.0,0.0,0.0,0.0,0.0,0.0,0.0,0.0,0.0,0.0,0.0,0.0,0.0,0.0,0.0,0.0,0.0,0.0,0.0,0.0,0.0,0.0,0.0,0.0,0.0,0.0,0.0,0.0,0.0,0.0,0.0,0.0,0.0,0.0,0.0,0.0,0.0,0.0,0.0,0.0,0.0,0.0,0.0,0.0,0.0,0.0,0.0,0.0,0.0,0.0,0.0,0.0,0.0,0.0,0.0,0.0,0.0,0.0,0.0,0.0,0.0,0.0,0.0,0.0,0.0,0.0,0.0,0.0,0.0,0.0,0.0,0.0,0.0,0.0,0.0,0.0,0.0,0.0,0.0,0.0,0.0,0.0,0.0,0.0,0.0,0.0,0.0,0.0,0.0,0.0,0.0,0.0,0.0,0.0,0.0,0.0,0.0,0.0,0.0,0.0,0.0,0.0,0.0,0.0,0.0,1.2809,1.3275,1.5187,1.844,1.5819,1.4295,0.0,0.0,0.0,0.0,0.0,0.0,0.0,0.0,0.0,0.0,0.0,0.0,0.0,0.0,0.0,0.0,0.0,0.0,0.0,0.0,0.0,0.0,0.0,0.0,0.0,0.0,0.0,0.0,0.0,0.0,0.0,0.0,0.0,0.0,0.0,0.0,0.0,0.0,0.0,0.0,0.0,0.0,0.0,0.0,0.0,0.0,0.0,0.0,0.0,0.0,0.0,0.0,0.0,0.0,0.0,0.0,0.0,0.0,0.0,0.0,0.0,0.0,0.0,0.0,0.0,0.0,0.0,0.0,0.0,0.0,0.0,0.0,0.0,0.0,0.0,0.0,0.0,0.0,0.0,0.0,0.0,0.0,0.0,0.0,0.0,0.0,0.0,0.0,0.0,0.0,0.0,0.0,0.0,0.0,0.0,0.0,0.0,0.0,0.0,0.0,0.0,0.0,0.0,0.0,0.0,0.0,0.0,0.0,0.0,1.2249,0.0,1.6063,0.0,1.5332,1.3608,0.0,0.0,0.0,0.0,0.0,0.0,0.0,0.0,0.0,0.0,0.0,0.0,0.0,0.0,0.0,0.0,0.0,0.0,0.0,0.0,0.0,0.0,0.0,0.0,0.0,0.0,0.0,0.0,0.0,0.0,0.0,0.0,0.0,0.0,0.0,0.0,0.0,0.0,0.0,0.0,0.0,0.0,0.0,0.0,0.0,0.0,0.0,0.0,0.0,0.0,0.0,0.0,0.0,0.0,0.0,0.0,0.0,0.0,0.0,0.0,0.0,0.0,0.0,0.0,0.0,0.0,0.0,0.0,0.0,0.0,0.0,0.0,0.0,0.0,0.0,0.0,0.0,0.0,0.0,0.0,0.0,0.0,0.0,0.0,0.0,0.0,0.0,0.0,0.0,0.0,0.0,0.0,0.0,0.0,0.0,0.0,0.0,0.0,0.0,0.0,0.0,0.0,0.0,0.0,0.0,0.0,0.0,0.0,1.1533,1.594,1.8185,1.8272,1.6291,1.5921,1.368,0.0,0.0,0.0,0.0,0.0,0.0,0.0,0.0,0.0,0.0,0.0,0.0,0.0,0.0,0.0,0.0,0.0,0.0,0.0,0.0,0.0,0.0,0.0,0.0,0.0,0.0,0.0,0.0,0.0,0.0,0.0,0.0,0.0,0.0,0.0,0.0,0.0,0.0,0.0,0.0,0.0,0.0,0.0,0.0,0.0,0.0,0.0,0.0,0.0,0.0,0.0,0.0,0.0,0.0,0.0,0.0,0.0,0.0,0.0,0.0,0.0,0.0,0.0,0.0,0.0,0.0,0.0,0.0,0.0,0.0,0.0,0.0,0.0,0.0,0.0,0.0,0.0,0.0,0.0,0.0,0.0,0.0,0.0,0.0,0.0,0.0,0.0,0.0,0.0,0.0,0.0,0.0,0.0,0.0,0.0,0.0,0.0,0.0,0.0,0.0,0.0,0.0,0.0,0.0,0.0,0.0,0.0,0.0,0.0,1.4572,1.6326,1.7676,1.8448,1.5889,1.4224,0.0,0.0,0.0,0.0,0.0,0.0,0.0,0.0,0.0,0.0,0.0,0.0,0.0,0.0,0.0,0.0,0.0,0.0,0.0,0.0,0.0,0.0,0.0,0.0,0.0,0.0,0.0,0.0,0.0,0.0,0.0,0.0,0.0,0.0,0.0,0.0,0.0,0.0,0.0,0.0,0.0,0.0,0.0,0.0,0.0,0.0,0.0,0.0,0.0,0.0,0.0,0.0,0.0,0.0,0.0,0.0,0.0,0.0,0.0,0.0,0.0,0.0,0.0,0.0,0.0,0.0,0.0,0.0,0.0,0.0,0.0,0.0,0.0,0.0,0.0,0.0,0.0,0.0,0.0,0.0,0.0,0.0,0.0,0.0,0.0,0.0,0.0,0.0,0.0,0.0,0.0,0.0,0.0,0.0,0.0,0.0,0.0,0.0,0.0,0.0,0.0,0.0,0.0,0.0,0.0,0.0,0.0,0.0,0.0,1.6905,1.8097,1.9064,1.9679,1.6583,1.4917,1.4847,0.0,0.0,0.0,0.0,0.0,0.0,0.0,0.0,0.0,0.0,0.0,0.0,0.0,0.0,0.0,0.0,0.0,0.0,0.0,0.0,0.0,0.0,0.0,0.0,0.0,0.0,0.0,0.0,0.0,0.0,0.0,0.0,0.0,0.0,0.0,0.0,0.0,0.0,0.0,0.0,0.0,0.0,0.0,0.0,0.0,0.0,0.0,0.0,0.0,0.0,0.0,0.0,0.0,0.0,0.0,0.0,0.0,0.0,0.0,0.0,0.0,0.0,0.0,0.0,0.0,0.0,0.0,0.0,0.0,0.0,0.0,0.0,0.0,0.0,0.0,0.0,0.0,0.0,0.0,0.0,0.0,0.0,0.0,0.0,0.0,0.0,0.0,0.0,0.0,0.0,0.0,0.0,0.0,0.0,0.0,0.0,0.0,0.0,0.0,0.0,0.0,0.0,0.0,0.0,0.0,0.0,0.0,0.0,2.1943,2.2803,2.2148,2.0026,1.8017,1.586,0.0,0.0,0.0,0.0,0.0,0.0,0.0,0.0,0.0,0.0,0.0,0.0,0.0,0.0,0.0,0.0,0.0,0.0,0.0,0.0,0.0,0.0,0.0,0.0,0.0,0.0,0.0,0.0,0.0,0.0,0.0,0.0,0.0,0.0,0.0,0.0,0.0,0.0,0.0,0.0,0.0,0.0,0.0,0.0,0.0,0.0,0.0,0.0,0.0,0.0,0.0,0.0,0.0,0.0,0.0,0.0,0.0,0.0,0.0,0.0,0.0,0.0,0.0,0.0,0.0,0.0,0.0,0.0,0.0,0.0,0.0,0.0,0.0,0.0,0.0,0.0,0.0,0.0,0.0,0.0,0.0,0.0,0.0,0.0,0.0,0.0,0.0,0.0,0.0,0.0,0.0,0.0,0.0,0.0,0.0,0.0,0.0,0.0,0.0,0.0,0.0,0.0,0.0,0.0,0.0,0.0,0.0,0.0,0.0,2.1961,2.3821,2.4147,2.2807,2.0396,1.8019,0.0,0.0,0.0,0.0,0.0,0.0,0.0,0.0,0.0,0.0,0.0,0.0,0.0,0.0,0.0,0.0,0.0,0.0,0.0,0.0,0.0,0.0,0.0,0.0,0.0,0.0,0.0,0.0,0.0,0.0,0.0,0.0,0.0,0.0,0.0,0.0,0.0,0.0,0.0,0.0,0.0,0.0,0.0,0.0,0.0,0.0,0.0,0.0,0.0,0.0,0.0,0.0,0.0,0.0,0.0,0.0,0.0,0.0,0.0,0.0,0.0,0.0,0.0,0.0,0.0,0.0,0.0,0.0,0.0,0.0,0.0,0.0,0.0,0.0,0.0,0.0,0.0,0.0,0.0,0.0,0.0,0.0,0.0,0.0,0.0,0.0,0.0,0.0,0.0,0.0,0.0,0.0,0.0,0.0,0.0,0.0,0.0,0.0,0.0,0.0,0.0,0.0,0.0,0.0,0.0,0.0,0.0,0.0,2.1045,2.3214,2.4676,2.5136,2.4589,2.2218,1.9689,0.0,0.0,0.0,0.0,0.0,0.0,0.0,0.0,0.0,0.0,0.0,0.0,0.0,0.0,0.0,0.0,0.0,0.0,0.0,0.0,0.0,0.0,0.0,0.0,0.0,0.0,0.0,0.0,0.0,0.0,0.0,0.0,0.0,0.0,0.0,0.0,0.0,0.0,0.0,0.0,0.0,0.0,0.0,0.0,0.0,0.0,0.0,0.0,0.0,0.0,0.0,0.0,0.0,0.0,0.0,0.0,0.0,0.0,0.0,0.0,0.0,0.0,0.0,0.0,0.0,0.0,0.0,0.0,0.0,0.0,0.0,0.0,0.0,0.0,0.0,0.0,0.0,0.0,0.0,0.0,0.0,0.0,0.0,0.0,0.0,0.0,0.0,0.0,0.0,0.0,0.0,0.0,0.0,0.0,0.0,0.0,0.0,0.0,0.0,0.0,0.0,0.0,0.0,0.0,0.0,0.0,0.0,0.0,2.2038,2.4815,2.5377,2.5611,2.551,2.3511,2.0972,0.0,0.0,0.0,0.0,0.0,0.0,0.0,0.0,0.0,0.0,0.0,0.0,0.0,0.0,0.0,0.0,0.0,0.0,0.0,0.0,0.0,0.0,0.0,0.0,0.0,0.0,0.0,0.0,0.0,0.0,0.0,0.0,0.0,0.0,0.0,0.0,0.0,0.0,0.0,0.0,0.0,0.0,0.0,0.0,0.0,0.0,0.0,0.0,0.0,0.0,0.0,0.0,0.0,0.0,0.0,0.0,0.0,0.0,0.0,0.0,0.0,0.0,0.0,0.0,0.0,0.0,0.0,0.0,0.0,0.0,0.0,0.0,0.0,0.0,0.0,0.0,0.0,0.0,0.0,0.0,0.0,0.0,0.0,0.0,0.0,0.0,0.0,0.0,0.0,0.0,0.0,0.0,0.0,0.0,0.0,0.0,0.0,0.0,0.0,0.0,0.0,0.0,0.0,0.0,0.0,0.0,0.0,0.0,2.3057,2.4116,2.6144,2.677,2.5817,2.3739,2.146,0.0,0.0,0.0,0.0,0.0,0.0,0.0,0.0,0.0,0.0,0.0,0.0,0.0,0.0,0.0,0.0,0.0,0.0,0.0,0.0,0.0,0.0,0.0,0.0,0.0,0.0,0.0,0.0,0.0,0.0,0.0,0.0,0.0,0.0,0.0,0.0,0.0,0.0,0.0,0.0,0.0,0.0,0.0,0.0,0.0,0.0,0.0,0.0,1.7657,0.0,0.0,0.0,0.0,0.0,0.0,0.0,0.0,0.0,0.0,0.0,0.0,0.0,0.0,0.0,0.0,0.0,0.0,0.0,0.0,0.0,0.0,0.0,0.0,0.0,0.0,0.0,0.0,0.0,0.0,0.0,0.0,0.0,0.0,0.0,0.0,0.0,0.0,0.0,0.0,0.0,0.0,0.0,0.0,0.0,0.0,0.0,0.0,0.0,0.0,0.0,0.0,0.0,0.0,0.0,0.0,0.0,0.0,0.0,2.3791,2.4792,2.6247,2.667,2.6034,2.4281,2.2028,0.0,0.0,0.0,0.0,0.0,0.0,0.0,0.0,0.0,0.0,0.0,0.0,0.0,0.0,0.0,0.0,0.0,0.0,0.0,0.0,0.0,0.0,0.0,0.0,0.0,0.0,0.0,0.0,0.0,0.0,0.0,0.0,0.0,0.0,0.0,0.0,0.0,0.0,0.0,0.0,0.0,0.0,0.0,0.0,0.0,0.0,0.0,0.0,0.0,0.0,0.0,0.0,0.0,0.0,0.0,0.0,0.0,0.0,0.0,0.0,0.0,0.0,0.0,0.0,0.0,0.0,0.0,0.0,0.0,0.0,0.0,0.0,0.0,0.0,0.0,0.0,0.0,0.0,0.0,0.0,0.0,0.0,0.0,0.0,0.0,0.0,0.0,0.0,0.0,0.0,0.0,0.0,0.0,0.0,0.0,0.0,0.0,0.0,0.0,0.0,0.0,0.0,0.0,0.0,0.0,0.0,0.0,2.2194,2.4164,2.57,2.6117,2.631,2.6222,2.483,2.2663,1.974,0.0,0.0,0.0,0.0,0.0,0.0,0.0,0.0,0.0,0.0,0.0,0.0,0.0,0.0,0.0,0.0,0.0,0.0,0.0,0.0,0.0,0.0,0.0,0.0,0.0,0.0,0.0,0.0,0.0,0.0,0.0,0.0,0.0,0.0,0.0,0.0,0.0,0.0,1.7309,1.9398,0.0,0.0,0.0,0.0,0.0,0.0,0.0,0.0,1.955,0.0,0.0,0.0,0.0,0.0,0.0,0.0,0.0,0.0,0.0,0.0,0.0,0.0,0.0,0.0,0.0,0.0,0.0,0.0,0.0,0.0,0.0,0.0,0.0,0.0,0.0,0.0,0.0,0.0,0.0,0.0,0.0,0.0,0.0,0.0,0.0,0.0,0.0,0.0,0.0,0.0,0.0,0.0,0.0,0.0,0.0,0.0,0.0,0.0,0.0,0.0,0.0,0.0,0.0,0.0,0.0,2.0892,2.2203,2.3705,2.551,2.6385,2.6742,2.6504,2.5077,2.3298,2.1089,0.0,0.0,0.0,0.0,0.0,0.0,0.0,0.0,0.0,0.0,0.0,0.0,0.0,0.0,0.0,0.0,0.0,0.0,0.0,0.0,0.0,0.0,0.0,0.0,0.0,0.0,0.0,0.0,0.0,0.0,0.0,0.0,0.0,0.0,0.0,0.0,0.0,0.0,0.0,2.2682,2.37,0.0,0.0,0.0,0.0,0.0,0.0,0.0,0.0,1.9515,0.0,0.0,0.0,0.0,0.0,0.0,0.0,0.0,0.0,0.0,0.0,0.0,0.0,0.0,0.0,0.0,0.0,0.0,0.0,0.0,0.0,0.0,0.0,0.0,0.0,0.0,0.0,0.0,0.0,0.0,0.0,0.0,0.0,0.0,0.0,0.0,0.0,0.0,0.0,0.0,0.0,0.0,0.0,0.0,0.0,0.0,0.0,0.0,0.0,0.0,0.0,0.0,0.0,0.0,0.0,2.0651,2.2699,2.4441,2.6,2.6421,2.6537,2.6382,2.4211,2.2358,0.0,0.0,0.0,0.0,0.0,0.0,0.0,0.0,0.0,0.0,0.0,0.0,0.0,0.0,0.0,0.0,0.0,0.0,0.0,0.0,0.0,0.0,0.0,0.0,0.0,0.0,0.0,0.0,0.0,0.0,0.0,0.0,0.0,0.0,0.0,0.0,0.0,0.0,0.0,0.0,2.3346,2.4253,2.4325,0.0,0.0,0.0,0.0,0.0,0.0,2.1147,2.0625,0.0,0.0,0.0,0.0,0.0,0.0,0.0,0.0,0.0,0.0,0.0,0.0,0.0,0.0,0.0,0.0,0.0,0.0,0.0,0.0,0.0,0.0,0.0,0.0,0.0,0.0,0.0,0.0,0.0,0.0,0.0,0.0,0.0,0.0,0.0,0.0,0.0,0.0,0.0,0.0,0.0,0.0,0.0,0.0,0.0,0.0,0.0,0.0,0.0,0.0,0.0,0.0,0.0,0.0,0.0,2.0223,2.2773,2.4881,2.6402,2.631,2.6203,2.6154,2.3636,2.1645,0.0,0.0,0.0,0.0,0.0,0.0,0.0,0.0,0.0,0.0,0.0,0.0,0.0,0.0,0.0,0.0,0.0,0.0,0.0,0.0,0.0,0.0,0.0,0.0,0.0,0.0,0.0,0.0,0.0,0.0,0.0,0.0,0.0,0.0,0.0,0.0,0.0,0.0,0.0,0.0,0.0,2.4882,2.5632,2.4575,0.0,0.0,0.0,0.0,2.1905,2.2358,0.0,0.0,0.0,0.0,0.0,0.0,0.0,0.0,0.0,0.0,0.0,0.0,0.0,0.0,0.0,0.0,0.0,0.0,0.0,0.0,0.0,0.0,0.0,0.0,0.0,0.0,0.0,0.0,0.0,0.0,0.0,0.0,0.0,0.0,0.0,0.0,0.0,0.0,0.0,0.0,0.0,0.0,0.0,0.0,0.0,0.0,0.0,0.0,0.0,0.0,0.0,0.0,0.0,0.0,0.0,0.0,1.9748,2.1474,2.3577,2.6073,2.6203,2.6203,2.617,2.4613,2.2698,0.0,0.0,0.0,0.0,0.0,0.0,0.0,0.0,0.0,0.0,0.0,0.0,0.0,0.0,0.0,0.0,0.0,0.0,0.0,0.0,0.0,0.0,0.0,0.0,0.0,0.0,0.0,0.0,0.0,0.0,0.0,0.0,0.0,0.0,0.0,0.0,0.0,0.0,0.0,0.0,0.0,2.7272,2.5242,2.5145,2.5313,0.0,0.0,2.3927,2.5019,2.5167,0.0,0.0,0.0,0.0,0.0,0.0,0.0,0.0,0.0,0.0,0.0,0.0,0.0,0.0,0.0,0.0,0.0,0.0,0.0,0.0,0.0,0.0,0.0,0.0,0.0,0.0,0.0,0.0,0.0,0.0,0.0,0.0,0.0,0.0,0.0,0.0,0.0,0.0,0.0,0.0,0.0,0.0,0.0,0.0,0.0,0.0,0.0,0.0,0.0,0.0,0.0,0.0,0.0,0.0,0.0,1.6547,2.0341,2.2346,2.4261,2.6104,2.6203,2.6203,2.6187,2.3967,2.1853,0.0,0.0,0.0,0.0,0.0,0.0,0.0,0.0,0.0,0.0,0.0,0.0,0.0,0.0,0.0,0.0,0.0,0.0,0.0,0.0,0.0,0.0,0.0,0.0,0.0,0.0,0.0,0.0,0.0,0.0,0.0,0.0,0.0,0.0,0.0,0.0,0.0,0.0,0.0,0.0,0.0,0.0,2.737,2.6848,0.0,0.0,0.0,2.5881,2.6265,0.0,0.0,0.0,0.0,0.0,0.0,0.0,0.0,0.0,0.0,0.0,0.0,0.0,0.0,0.0,0.0,0.0,0.0,0.0,0.0,0.0,0.0,0.0,0.0,0.0,0.0,0.0,0.0,0.0,0.0,0.0,0.0,0.0,0.0,0.0,0.0,0.0,0.0,0.0,0.0,0.0,0.0,0.0,0.0,0.0,0.0,0.0,0.0,0.0,0.0,0.0,0.0,0.0,0.0,0.0,0.0,0.0,2.0805,2.3056,2.4863,2.6137,2.6203,2.612,2.5905,2.3554,0.0,0.0,0.0,0.0,0.0,0.0,0.0,0.0,0.0,0.0,0.0,0.0,0.0,0.0,0.0,0.0,0.0,0.0,0.0,0.0,0.0,0.0,0.0,0.0,0.0,0.0,0.0,1.0059,0.0,0.0,0.0,0.0,0.0,0.0,0.0,0.0,0.0,0.0,0.0,0.0,0.0,0.0,2.7936,2.9354,2.8666,2.8349,0.0,0.0,2.7891,2.7536,2.8062,2.7541,0.0,0.0,0.0,0.0,0.0,0.0,0.0,0.0,0.0,0.0,0.0,0.0,0.0,0.0,0.0,0.0,0.0,0.0,0.0,0.0,0.0,0.0,0.0,0.0,0.0,0.0,0.0,0.0,0.0,0.0,0.0,0.0,0.0,0.0,0.0,0.0,0.0,0.0,0.0,0.0,0.0,0.0,0.0,0.0,0.0,0.0,0.0,0.0,0.0,0.0,0.0,0.0,0.0,0.0,0.0,2.0633,2.2905,2.4713,2.6137,2.6203,2.5837,2.5193,2.4131,2.1964,0.0,0.0,0.0,0.0,0.0,0.0,0.0,0.0,0.0,0.0,0.0,0.0,0.0,0.0,0.0,0.0,0.0,0.0,0.0,0.0,0.0,0.0,0.0,0.0,0.0,0.0,0.0,0.0,0.0,0.0,0.0,0.0,0.0,0.0,0.0,0.0,0.0,0.0,0.0,0.0,0.0,2.9372,3.0057,3.0328,3.0715,0.0,0.0,2.9681,2.9614,3.079,3.0241,2.5741,0.0,0.0,0.0,0.0,0.0,0.0,0.0,0.0,0.0,0.0,0.0,0.0,0.0,0.0,0.0,0.0,0.0,0.0,0.0,0.0,0.0,0.0,0.0,0.0,0.0,0.0,0.0,0.0,0.0,0.0,0.0,0.0,0.0,0.0,0.0,0.0,0.0,0.0,0.0,0.0,0.0,0.0,0.0,0.0,0.0,0.0,0.0,0.0,0.0,0.0,0.0,0.0,0.0,1.7339,2.133,2.3106,2.4729,2.6137,2.6203,2.6071,2.5789,2.4546,2.2551,0.0,0.0,0.0,0.0,0.0,0.0,0.0,0.0,0.0,0.0,0.0,0.0,0.0,0.0,0.0,0.0,0.0,0.0,0.0,0.0,0.0,0.0,0.0,0.0,0.0,0.0,0.0,0.0,1.4658,1.5325,1.5325,0.0,0.0,0.0,0.0,0.0,0.0,0.0,0.0,0.0,0.0,3.0356,3.1845,3.1963,0.0,0.0,3.2174,3.1692,3.1842,3.1089,2.9543,2.6886,2.5309,0.0,0.0,0.0,0.0,0.0,0.0,0.0,0.0,0.0,0.0,0.0,0.0,0.0,0.0,0.0,0.0,0.0,0.0,0.0,0.0,0.0,0.0,0.0,0.0,0.0,0.0,0.0,0.0,0.0,0.0,0.0,0.0,0.0,0.0,0.0,0.0,0.0,0.0,0.0,0.0,0.0,0.0,0.0,0.0,0.0,0.0,0.0,0.0,0.0,0.0,0.0,0.0,1.7664,2.1777,2.3238,2.4729,2.6187,2.6203,2.6104,2.5872,2.4629,2.2831,0.0,0.0,0.0,0.0,0.0,0.0,0.0,0.0,0.0,0.0,0.0,0.0,0.0,0.0,0.0,0.0,0.0,0.0,0.0,0.0,0.0,0.0,0.0,0.0,0.0,0.0,0.0,0.0,1.5869,1.6115,1.5887,0.0,0.0,0.0,0.0,0.0,0.0,0.0,0.0,0.0,0.0,3.1673,3.3569,3.3424,3.3335,3.4041,3.3316,3.2785,3.3004,3.1558,2.9764,2.7947,0.0,0.0,0.0,0.0,0.0,0.0,0.0,0.0,0.0,0.0,0.0,0.0,0.0,0.0,0.0,0.0,0.0,0.0,0.0,0.0,0.0,0.0,0.0,0.0,0.0,0.0,0.0,0.0,0.0,0.0,1.0194,0.0,0.0,0.0,0.0,0.0,0.0,0.0,0.0,0.0,0.0,0.0,0.0,0.0,0.0,0.0,0.0,0.0,0.0,0.0,0.0,0.0,0.0,1.8178,2.1748,2.3272,2.4729,2.6154,2.6203,2.5872,2.5193,2.4214,2.2703,2.0557,0.0,0.0,0.0,0.0,0.0,0.0,0.0,0.0,0.0,0.0,0.0,0.0,0.0,0.0,0.0,0.0,0.0,0.0,0.0,0.0,0.0,0.0,0.0,0.0,0.0,0.0,1.6027,1.6203,1.594,0.0,0.0,0.0,0.0,0.0,0.0,0.0,0.0,0.0,0.0,3.122,3.3502,3.499,3.4678,3.4516,3.5222,3.3851,3.2774,3.2774,3.2658,3.1653,0.0,0.0,0.0,0.0,0.0,0.0,0.0,0.0,0.0,0.0,0.0,0.0,0.0,0.0,0.0,0.0,0.0,0.0,0.0,0.0,0.0,0.0,0.0,0.0,0.0,0.0,0.0,1.5887,1.4642,0.0,0.0,0.0,0.0,0.0,0.0,0.0,0.0,0.0,0.0,0.0,2.3287,2.4244,0.0,0.0,0.0,0.0,0.0,0.0,0.0,0.0,0.0,0.0,0.0,0.0,1.8866,2.2394,2.3984,2.5209,2.617,2.6203,2.6087,2.5839,2.4937,2.3128,2.0367,0.0,0.0,0.0,0.0,0.0,0.0,0.0,0.0,0.0,0.0,0.0,0.0,0.0,0.0,0.0,0.0,0.0,0.0,0.0,0.0,0.0,0.0,0.0,0.0,0.0,1.6378,0.0,0.0,0.0,0.0,0.0,0.0,0.0,0.0,0.0,0.0,0.0,2.8054,3.108,3.2827,3.4192,3.5214,3.5594,3.5602,0.0,0.0,0.0,0.0,0.0,0.0,0.0,0.0,0.0,0.0,0.0,0.0,0.0,0.0,3.2083,2.7727,2.6338,2.5924,2.6156,0.0,0.0,0.0,0.0,0.0,0.0,0.0,0.0,0.0,0.0,0.0,0.0,0.0,0.0,1.9513,0.0,1.8159,0.0,0.0,0.0,0.0,0.0,0.0,0.0,0.0,2.4979,2.6457,2.6958,2.7591,2.7525,0.0,2.6213,2.3828,0.0,0.0,0.0,0.0,0.0,0.0,0.0,0.0,2.011,2.2808,2.4348,2.5475,2.617,2.6203,2.6203,2.6187,2.5212,2.35,2.0926,1.9049,1.7567,0.0,0.0,0.0,0.0,0.0,0.0,0.0,0.0,0.0,0.0,0.0,0.0,0.0,0.0,0.0,0.0,0.0,0.0,0.0,0.0,0.0,0.0,0.0,1.7902,0.0,0.0,0.0,0.0,0.0,0.0,0.0,0.0,0.0,2.638,2.8094,3.0456,3.3453,3.4123,3.4718,3.573,0.0,0.0,0.0,0.0,0.0,0.0,0.0,3.2512,3.3342,3.2713,3.2232,3.268,3.4369,3.5495,3.4982,0.0,0.0,3.147,3.0079,2.9696,3.0066,3.1093,3.1998,3.2441,3.3611,3.454,0.0,0.0,0.0,0.0,0.0,0.0,0.0,0.0,2.3121,2.3037,0.0,2.2027,0.0,0.0,0.0,0.0,0.0,2.3782,0.0,0.0,2.8659,3.0106,2.9995,2.9246,2.9207,2.9826,2.9807,2.8404,2.5661,2.1256,0.0,0.0,0.0,0.0,0.0,0.0,2.1872,2.3071,2.4547,2.5574,2.622,2.6253,2.6236,2.6151,2.5105,2.3781,2.2223,2.1305,1.9909,1.7903,1.6481,0.0,0.0,0.0,0.0,0.0,0.0,0.0,0.0,0.0,0.0,0.0,0.0,0.0,0.0,0.0,0.0,0.0,0.0,0.0,0.0,1.8705,0.0,0.0,0.0,0.0,0.0,0.0,0.0,0.0,0.0,0.0,2.9005,3.0962,3.3325,3.5538,0.0,0.0,0.0,0.0,3.5425,3.6071,3.5619,3.5286,3.5509,3.5444,3.5333,3.5066,0.0,0.0,3.528,3.6208,3.6721,3.533,3.6307,3.7168,3.7069,3.5164,3.4176,3.5098,3.4374,3.4287,3.6108,3.6784,3.7425,2.9709,0.0,0.0,0.0,0.0,2.6768,2.7485,2.8714,2.8563,2.7488,2.5783,2.552,0.0,0.0,0.0,0.0,0.0,0.0,2.7819,2.8888,3.0252,3.1162,3.1719,3.1657,3.1446,3.1076,3.1076,3.0018,2.8023,2.6654,2.3699,1.9291,0.0,0.0,0.0,0.0,2.3929,2.5243,2.67,2.728,2.6965,2.6965,2.668,2.6023,2.5017,2.4233,2.3619,2.275,2.1553,1.9988,1.9072,0.0,0.0,0.0,0.0,0.0,0.0,0.0,0.0,0.0,0.0,0.0,0.0,0.0,0.0,0.0,0.0,0.0,0.0,0.0,1.874,1.9395,2.0145,0.0,0.0,0.0,0.0,0.0,0.0,0.0,0.0,0.0,3.4168,3.4223,3.4885,0.0,0.0,3.6135,3.6316,3.6551,3.654,3.6233,3.6443,0.0,0.0,3.5701,3.5805,3.6763,3.7909,3.851,3.8096,3.8361,3.851,3.8063,3.8361,3.8659,3.856,3.7317,3.6356,3.6571,3.6898,3.7371,3.8018,3.8853,3.9542,3.4267,3.2269,3.0481,3.0223,3.0969,3.0765,3.139,3.2549,3.2449,3.1689,3.0518,2.9832,2.8633,2.7139,2.6822,0.0,0.0,0.0,3.0913,3.2111,3.2712,3.312,3.3358,3.3345,3.2993,3.2337,3.2319,3.1535,3.0004,2.9867,2.7806,2.3998,0.0,0.0,2.3363,2.4824,2.5914,2.6634,2.7815,2.8158,2.7765,2.7466,2.6991,2.6377,2.5403,2.4846,2.4644,2.3766,2.2912,2.2058,2.0857,1.9309,0.0,0.0,0.0,0.0,0.0,0.0,0.0,0.0,0.0,0.0,0.0,1.2314,0.0,0.0,0.0,0.0,1.6269,1.9146,2.1329,2.2329,0.0,0.0,0.0,0.0,0.0,0.0,0.0,3.153,3.3673,3.5371,3.6338,3.6138,3.6394,3.7593,3.6849,3.6309,3.6685,0.0,3.687,3.6726,3.7078,3.7247,3.6909,3.6653,3.6831,3.7802,3.8526,3.8985,3.9094,3.9094,3.9148,3.9288,3.9288,3.9288,3.9288,3.8543,3.8015,3.8186,3.8757,3.9244,3.9377,3.9832,4.0187,3.7661,3.7433,3.4339,3.3468,3.4118,3.3866,3.4224,3.4962,3.4942,3.5318,3.5809,3.4278,3.3992,3.4609,3.2806,0.0,3.3015,3.3705,3.4376,3.5119,3.5557,3.5442,3.4834,3.442,3.3966,3.3454,3.3454,3.2906,3.1912,3.1555,3.0618,2.9117,2.7973,2.7148,2.6689,2.7483,2.7799,2.7483,2.8229,2.8561,2.8456,2.7781,2.7255,2.7,2.6157,2.5562,2.5221,2.4369,2.386,2.3664,2.1916,2.0557,1.9751,0.0,0.0,0.0,0.0,0.0,0.0,0.0,0.0,0.0,0.0,0.0,0.0,0.0,0.0,0.0,1.9579,0.0,2.4375,2.6409,0.0,0.0,0.0,2.8939,3.004,3.1424,3.2439,3.2875,0.0,0.0,3.6416,3.7086,3.7727,3.8181,3.6725,3.6026,3.7306,3.6911,3.6738,3.7365,3.7508,3.7583,3.77,3.7742,3.7898,3.8294,3.8391,3.8504,3.8766,3.8788,3.8914,3.9218,3.9288,3.9288,3.9288,3.9222,3.9432,3.9662,3.9816,3.9918,4.0136,4.0037,3.9833,3.9183,3.9296,3.8099,3.7136,3.6422,3.6252,3.628,3.6468,3.6302,3.6012,3.5504,3.512,3.4959,3.4962,3.4437,3.4669,3.5468,3.5624,3.5807,3.6009,3.5992,3.5726,3.5245,3.4779,3.4305,3.387,3.3853,3.3728,3.3442,3.3367,3.2862,3.1925,3.1253,2.9786,2.769,2.8652,2.9076,2.8903,2.9632,2.9731,2.9168,2.8489,2.786,2.7243,2.6852,2.6026,2.4733,2.434,2.3549,2.2374,2.1884,2.1079,1.9846,1.7515,0.0,0.0,0.0,0.0,0.0,0.0,0.0,0.0,0.0,1.7258,1.3641,0.0,1.9532,0.0,2.1191,2.3961,2.6256,2.7043,0.0,0.0,3.1722,3.2481,3.5522,3.5284,3.5308,3.6539,3.7239,3.7698,3.7783,3.7971,3.7985,3.7711,3.7297,3.7101,3.7433,3.7354,3.7275,3.7433,3.748,3.7539,3.7583,3.7786,3.8017,3.8335,3.8391,3.8504,3.875,3.8805,3.8931,3.9202,3.9288,3.9288,3.9288,3.9288,3.9325,3.9415,3.9432,3.9468,3.9556,3.952,3.9448,3.9414,3.9566,3.9192,3.8571,3.7897,3.7909,3.7909,3.7916,3.7772,3.7433,3.7008,3.6943,3.6657,3.6213,3.6505,3.6909,3.7349,3.7367,3.7367,3.7367,3.7101,3.6644,3.6008,3.551,3.4953,3.4335,3.4241,3.4241,3.4185,3.4081,3.3795,3.3382,3.2863,3.1782,3.0131,3.0062,3.0132,3.0241,3.0418,3.0311,2.988,2.8903,2.8047,2.7334,2.678,2.5762,2.4202,2.4249,2.3787,2.2694,2.2321,2.1775,2.0991,1.8984,1.7556,0.0,0.0,0.0,0.0,0.0,0.0,0.0,0.0,0.0,0.0,0.0,2.2304,2.2946,2.5574,2.8096,3.0075,3.1251,3.2955,3.5514,3.5177,3.5694,3.7925,3.7198,3.6954,3.799,3.7932,3.7818,3.7937,3.7943,3.7828,3.7524,3.748,3.748,3.748,3.748,3.748,3.748,3.748,3.748,3.748,3.7642,3.7786,3.7934,3.8008,3.8164,3.8544,3.86,3.8766,3.9164,3.9288,3.9288,3.9288,3.9288,3.9288,3.9288,3.9288,3.9288,3.9288,3.9288,3.9288,3.937,3.938,3.9176,3.9105,3.9116,3.9254,3.9211,3.9073,3.9007,3.8968,3.8958,3.884,3.8375,3.7698,3.8377,3.8707,3.8707,3.8707,3.8707,3.8658,3.8336,3.7721,3.6904,3.6435,3.5809,3.4972,3.4806,3.4731,3.4731,3.438,3.4163,3.4037,3.366,3.3253,3.2909,3.1708,3.1143,3.1274,3.0781,3.0568,3.0452,2.938,2.8372,2.7466,2.659,2.5363,2.38,2.4167,2.4116,2.3538,2.2916,2.2557,2.2411,2.0714,1.9508,0.0,1.8119,0.0,0.0,0.0,0.0,0.0,0.0,0.0,0.0,2.4127,2.5924,2.825,3.0975,3.3127,3.4414,3.6367,3.7713,3.8061,3.8116,3.8261,3.8454,3.8018,3.7834,3.8173,3.7786,3.748,3.7524,3.748,3.7539,3.748,3.748,3.748,3.748,3.748,3.748,3.748,3.748,3.748,3.748,3.7539,3.7539,3.7539,3.7539,3.77,3.8221,3.8335,3.8504,3.9056,3.9164,3.9218,3.9218,3.9272,3.9288,3.9288,3.9288,3.9288,3.9288,3.9288,3.9288,4.0855,4.1017,4.0769,4.0698,4.0743,4.0793,4.008,3.8921,3.8939,3.8881,3.8822,3.875,3.8646,3.8487,3.8634,3.8707,3.8707,3.8707,3.8707,3.8707,3.8627,3.8263,3.7644,3.7522,3.7129,3.6478,3.6139,3.5976,3.5935,3.5531,3.5026,3.4432,3.4329,3.4274,3.4202,0.0,0.0,0.0,3.0975,3.0773,3.051,3.0785,3.0032,2.8246,2.7634,0.0,2.3883,2.3799,2.3487,2.2703,2.3276,0.0,0.0,0.0,0.0,0.0,0.0,0.0,0.0,0.0,0.0,0.0,2.6268,2.5745,2.4563,2.8115,3.1062,3.2336,3.4181,3.5759,3.6849,3.7249,3.7841,3.8642,3.886,3.8839,3.852,3.84,3.8165,3.7711,3.7599,3.748,3.748,3.748,3.748,3.748,3.748,3.748,3.748,3.748,3.748,3.748,3.748,3.748,3.748,3.748,3.748,3.748,3.748,3.7642,3.7902,3.8017,3.8132,3.856,3.8766,3.8914,3.8914,3.9094,3.9288,3.9288,3.9288,3.9288,3.9288,3.9288,3.9288,4.1371,0.0,4.1217,4.1093,0.0,4.1158,4.073,3.997,3.9596,3.916,3.875,3.8738,3.8707,3.8707,3.8707,3.8707,3.8707,3.8707,3.8707,3.8707,3.8707,3.8433,3.7929,3.7861,3.7524,3.7038,3.6759,3.6597,3.6597,3.635,3.6059,3.568,3.568,3.5605,3.5437,3.4812,3.3688,3.2128,3.1598,3.1278,3.1106,3.0823,3.0053,2.8641,0.0,0.0,0.0,0.0,0.0,0.0,0.0,0.0,0.0,0.0,0.0,2.4278,2.4774,2.5302,2.5799,2.6623,2.7872,2.9652,3.0892,3.0818,2.9028,3.2351,3.4879,3.5682,3.7123,3.8146,3.8597,3.8769,3.8908,3.9042,3.9126,3.8968,3.8342,3.8181,3.7985,3.7642,3.748,3.748,3.748,3.748,3.748,3.748,3.748,3.748,3.748,3.748,3.748,3.748,3.748,3.748,3.748,3.748,3.748,3.748,3.748,3.7642,3.7844,3.7886,3.8001,3.8335,3.86,3.8805,3.8805,3.9094,3.9288,3.9288,3.9288,3.9288,3.9288,3.9288,3.9288,4.2015,4.1994,4.1704,4.1632,4.1599,4.1534,4.1442,4.1258,0.0,0.0,0.0,3.9129,3.9129,3.9148,3.9129,3.9129,3.9111,3.8982,3.8927,3.8909,3.8781,3.8496,3.8168,3.8016,3.7738,3.7377,3.717,3.7034,3.7017,3.6939,3.69,3.69,3.69,3.6776,3.6488,3.5792,3.4906,3.3881,3.2628,3.1888,3.1677,3.0796,2.9926,2.9107,2.8182,2.7086,2.5713,2.5663,2.5547,2.532,2.5312,2.5664,2.6389,2.6695,2.7206,2.7981,2.8578,2.9346,3.0298,3.0484,3.1196,3.2686,3.4634,3.5198,3.3821,3.5981,3.7749,3.848,3.9556,4.0151,4.0032,4.0285,4.0221,3.9506,3.9295,3.892,3.81,3.7886,3.7727,3.7524,3.748,3.748,3.748,3.748,3.748,3.748,3.748,3.748,3.748,3.748,3.748,3.748,3.748,3.748,3.748,3.748,3.748,3.748,3.748,3.7583,3.7786,3.7828,3.796,3.8205,3.8544,3.8711,3.8788,3.9077,3.9272,3.9288,3.9288,3.9288,3.9288,3.9441,3.9454,4.3958,4.398,4.3695,4.3608,4.3558,4.3284,4.2763,4.2084,4.1277,4.0873,4.0781,4.0781,4.0781,4.0763,4.0781,4.0763,4.0744,4.0065,3.9735,0.0,3.9019,3.8609,3.8428,3.8396,3.8318,3.8138,3.7774,3.7523,3.7395,3.7094,3.69,3.69,3.69,3.7023,3.7291,3.6926,3.6645,3.6417,3.4288,3.2699,3.1731,3.1933,3.1462,3.0236,2.9644,2.8886,2.781,2.7759,2.7742,2.7706,2.849,2.871,2.8239,2.9597,3.0237,2.9892,3.162,3.2718,3.2651,3.3239,3.4241,3.5745,3.6991,3.7154,3.6015,3.7853,3.9413,4.0104,4.0858,4.1358,4.1313,4.1202,4.0884,4.0252,3.9697,3.9049,3.8351,3.7902,3.7583,3.7524,3.748,3.748,3.748,3.748,3.748,3.748,3.748,3.748,3.748,3.748,3.748,3.748,3.748,3.748,3.748,3.748,3.748,3.748,3.7524,3.7539,3.7642,3.7642,3.7743,3.796,3.8262,3.8544,3.875,3.9094,3.9305,3.9322,3.9371,3.9355,3.9421,3.9852,4.0034,4.4523,4.4374,4.4121,4.391,4.3697,4.3566,4.3277,4.291,4.2561,4.1901,4.1115,4.1097,4.1097,4.1097,4.1123,4.1104,4.1093,4.0726,4.0561,4.0487,3.9735,3.93,3.9195,3.8761,3.8478,3.8401,3.8138,3.8002,3.7897,3.7685,3.7613,3.7613,3.7613,3.7685,3.7862,3.7727,3.7446,3.6979,3.5257,3.3935,3.302,3.2826,3.2279,3.1229,3.0471,2.9902,2.9418,2.9007,2.8853,2.9006,2.9816,3.0386,3.0642,3.1793,3.2493,3.2616,3.3564,3.4263,3.4554,3.5654,3.6614,3.733,3.8625,3.9168,3.8589,3.9451,4.0323,4.0999,4.1233,4.1318,4.1471,4.1272,4.0896,4.0449,4.0036,3.9577,3.8995,3.8294,3.7927,3.7886,3.7685,3.748,3.748,3.748,3.748,3.748,3.748,3.748,3.748,3.748,3.748,3.748,3.748,3.748,3.748,3.748,3.748,3.748,3.7642,3.7685,3.7743,3.7727,3.7844,3.8091,3.8335,3.8504,3.8766,3.9094,3.9421,3.9835,3.9885,3.9967,4.0348,4.0729,4.0779,4.4636,4.4374,4.4109,4.3814,4.3479,4.3479,4.3479,4.3479,4.3479,4.28,4.1735,4.1644,4.1644,4.1629,4.1674,4.1656,4.1592,4.146,4.1387,4.1313,4.0543,4.0175,4.0084,3.9232,3.8834,3.8766,3.8528,3.8322,3.834,3.8256,3.8241,3.8225,3.8225,3.8192,3.8192,3.8192,3.7899,3.725,3.6319,3.5361,3.4431,3.3846,3.3223,3.2595,3.1804,3.1401,3.1367,3.0815,3.0629,3.0838,3.1377,3.2074,3.2897,3.3653,3.4374,3.4937,3.522,3.5643,3.638,3.7426,3.8269,3.8655,3.9779,4.0551,4.0727,4.0727,4.0955,4.1437,4.1346,4.1272,4.1363,4.1226,4.0896,4.0659,4.0431,4.0086,3.9629,3.8978,3.8557,3.8502,3.8157,3.7902,3.7727,3.7685,3.7626,3.7539,3.748,3.748,3.748,3.748,3.748,3.748,3.748,3.748,3.748,3.748,3.748,3.748,3.7626,3.7786,3.7828,3.7886,3.8059,3.8375,3.8488,3.877,3.9073,3.9374,3.9852,4.0415,4.0613,4.0812,4.1458,4.1624,4.1558,4.4635,4.4386,4.4104,4.3814,4.3513,4.3479,4.3479,4.3479,4.3479,4.3424,4.3185,4.3277,4.3222,4.3277,4.324,4.3185,4.3149,4.2525,4.2176,4.2103,4.1368,4.1001,4.0928,4.0157,3.9708,3.9571,3.888,3.8501,3.8382,3.835,3.8354,3.8307,3.8207,3.8192,3.8192,3.8192,3.8156,3.8083,3.7789,3.6894,3.5439,3.4994,3.4818,3.4712,3.4426,3.4298,3.4141,3.4211,3.4195,3.423,3.4212,3.4372,3.4566,3.5364,3.5898,3.6022,3.6807,3.7591,3.8093,3.8126,3.8743,4.0095,4.0418,4.084,4.142,4.1481,4.1499,4.1604,4.156,4.1542,4.156,4.1498,4.1408,4.1209,4.0849,4.0497,4.0285,3.9749,3.9387,3.9332,3.9172,3.8995,3.839,3.8238,3.8026,3.7685,3.7685,3.7642,3.7539,3.7524,3.7539,3.7539,3.7539,3.7539,3.7539,3.748,3.7539,3.7539,3.7524,3.7685,3.7844,3.7943,3.8059,3.8639,3.8766,3.9018,3.982,4.0299,4.0481,4.1127,4.1409,4.1574,4.2204,4.2419,4.2237,4.4393,4.4141,4.4055,4.3814,4.3532,4.3479,4.3479,4.3479,4.3479,4.3479,4.3479,4.3479,4.3479,4.3479,4.3479,4.3479,4.3461,4.3149,4.3002,4.2928,4.2176,4.1809,4.1735,4.1001,4.0345,3.9855,3.9456,3.8972,3.8519,3.8415,3.8387,3.8307,3.8274,3.8259,3.8192,3.8192,3.8192,3.8192,3.8106,3.7765,3.7081,3.6272,3.5616,3.5207,3.5084,3.5013,3.4906,3.4978,3.5013,3.4942,3.5385,3.5705,3.5723,3.6505,3.6986,3.7022,3.7807,3.8433,3.8605,3.9398,4.0175,4.0849,4.131,4.1718,4.1984,4.2037,4.2037,4.1995,4.178,4.1604,4.1604,4.1604,4.156,4.1515,4.1255,4.1053,4.1007,4.0431,4.0019,4.0003,3.9664,3.9404,3.9069,3.9016,3.8816,3.8446,3.8311,3.8246,3.786,3.7743,3.7685,3.7583,3.7642,3.7727,3.7727,3.7727,3.7743,3.7727,3.7727,3.7844,3.8091,3.8205,3.8375,3.9002,3.9013,3.9364,4.0178,4.0448,4.0663,4.1591,4.2518,4.2833,4.3115,4.3181,4.2999,4.4132,4.386,4.386,4.3716,4.3497,4.3479,4.3479,4.3479,4.3479,4.3479,4.3479,4.3479,4.3479,4.3479,4.3479,4.3479,4.3479,4.3479,4.3479,4.3424,4.2892,4.2616,4.2561,4.1809,4.113,4.0598,4.0294,3.9731,3.8962,3.8793,3.8638,3.8391,3.8401,3.8336,3.8241,3.8307,3.8307,3.8225,3.8192,3.8192,3.8068,3.7358,3.6593,3.6075,3.5969,3.5864,3.5723,3.5864,3.5847,3.5758,3.6364,3.6738,3.6756,3.7363,3.7793,3.8097,3.8814,3.9314,3.9511,4.0506,4.1199,4.1448,4.1984,4.2287,4.2287,4.2287,4.2287,4.2269,4.1995,4.1762,4.1675,4.1692,4.1631,4.1604,4.1515,4.1471,4.1426,4.1007,4.0707,4.0659,4.0383,3.9952,3.9749,3.9612,3.9385,3.9404,3.9292,3.9243,3.8796,3.8599,3.828,3.7971,3.8003,3.796,3.7943,3.8001,3.8001,3.7886,3.7886,3.796,3.84,3.8521,3.8925,3.9512,3.9446,3.9913,4.0988,4.1193,4.1259,4.2435,4.3214,4.3545,4.3529,4.3552,4.3552,4.3846,4.3548,4.3513,4.3513,4.3479,4.3479,4.3479,4.3479,4.3479,4.3479,4.3479,4.3479,4.3479,4.3479,4.3479,4.3479,4.3479,4.3479,4.3479,4.3479,4.3406,4.3406,4.3387,4.2635,4.2213,4.1937,4.1317,4.0634,3.9863,3.98,3.9333,3.8583,3.8743,3.8634,3.8368,3.8523,3.8523,3.8256,3.8259,3.8225,3.8225,3.8153,3.798,3.77,3.756,3.7399,3.7416,3.7452,3.7434,3.7452,3.7488,3.7524,3.7559,3.7775,3.8347,3.9227,3.9896,4.0524,4.1061,4.1175,4.1471,4.2096,4.2297,4.2328,4.2369,4.2369,4.2351,4.2328,4.2328,4.2187,4.1977,4.1934,4.1849,4.1692,4.1604,4.1604,4.1604,4.156,4.1453,4.1363,4.1209,4.0913,4.0449,3.9851,4.0017,4.0297,4.0226,4.011,4.0491,3.9968,3.9328,3.8894,3.8615,3.8294,3.8033,3.8132,3.8148,3.8219,3.8242,3.8146,3.8495,3.8934,3.96,4.0209,4.0601,4.117,4.1997,4.2518,4.2684,4.3181,4.3413,4.3628,4.3645,4.3645,4.3645,4.3634,4.3479,4.3479,4.3479,4.3479,4.3548,4.3548,4.3532,4.3548,4.3532,4.3497,4.3479,4.3479,4.3479,4.3479,4.3479,4.3479,4.3479,4.3479,4.3479,4.3479,4.3479,4.3461,4.3185,4.2763,4.2304,4.2011,4.1553,4.1014,4.1118,4.0661,3.9801,3.9835,3.9452,3.8601,3.8609,3.87,3.8585,3.851,3.8523,3.8688,3.8664,3.859,3.8528,3.8171,3.7934,3.7775,3.7934,3.7934,3.7793,3.7916,3.8003,3.8057,3.8543,3.9209,4.004,4.0782,4.1305,4.1612,4.2006,4.2384,4.2598,4.2691,4.2652,4.267,4.2691,4.2691,4.2652,4.2652,4.2573,4.2391,4.2228,4.2121,4.2061,4.2019,4.1934,4.1849,4.1805,4.1719,4.1587,4.1515,4.1408,4.1209,4.099,4.0934,4.1121,4.105,4.1067,4.1007,4.068,4.0245,3.9573,3.9365,3.934,3.9211,3.8634,3.8448,3.8705,3.8872,3.9146,3.9489,3.98,4.0401,4.0908,4.1442,4.1839,4.2469,4.2982,4.328,4.3413,4.3645,4.3645,4.3645,4.3645,4.3645,4.3479,4.3479,4.3479,4.3479,4.3532,4.3548,4.3548,4.3497,4.3548,4.3548,4.3497,4.3479,4.3479,4.3479,4.3479,4.3479,4.3479,4.3479,4.3479,4.3479,4.3479,4.3479,4.3479,4.3479,4.329,4.2945,4.2931,4.2656,4.2136,4.2283,4.1825,4.084,4.1053,4.0641,3.9727,3.9779,3.9779,3.9435,3.9264,3.9201,3.9091,3.9036,3.8998,3.897,3.8707,3.8396,3.8238,3.8354,3.8354,3.8256,3.8354,3.8547,3.8838,3.9823,4.0573,4.1015,4.1796,4.2159,4.2158,4.2592,4.2902,4.3032,4.2975,4.292,4.2976,4.2957,4.29,4.29,4.29,4.2824,4.2709,4.2552,4.2432,4.2328,4.2287,4.2205,4.1917,4.1874,4.1805,4.1631,4.1604,4.1604,4.1604,4.1604,4.1806,4.2147,4.2154,4.2073,4.2234,4.1872,4.1428,4.0498,4.005,3.9846,3.9617,3.9079,3.9284,3.9576,3.9729,4.0043,4.0432,4.0778,4.1118,4.1618,4.2005,4.2336,4.2767,4.3297,4.3512,4.3611,4.3645,4.3645,4.3645,4.3645,4.3645,4.3479,4.3513,4.3479,4.3479,4.3479,4.3532,4.3479,4.3479,4.3532,4.3532,4.3479,4.3479,4.3479,4.3479,4.3479,4.3479,4.3479,4.3479,4.3479,4.3479,4.3479,4.3479,4.3479,4.3548,4.3697,4.3856,4.4204,4.3933,4.3246,4.3243,4.2848,4.2196,4.2257,4.2076,4.1788,4.1726,4.1487,4.0731,4.052,4.0165,3.9354,3.9455,3.9492,3.9436,3.9384,3.9286,3.905,3.9003,3.8973,3.8955,3.901,3.9335,4.021,4.1464,4.229,4.2237,4.2827,4.3087,4.294,4.2903,4.3105,4.325,4.3105,4.305,4.316,4.3069,4.292,4.29,4.29,4.29,4.29,4.2862,4.2709,4.2391,4.2369,4.2287,4.2019,4.1917,4.1866,4.1763,4.1771,4.1657,4.1657,4.1868,4.2391,4.3284,4.3426,4.3391,4.382,4.3367,4.2879,4.1865,4.0861,4.0278,3.9811,3.9444,4.0033,4.0541,4.0614,4.0834,4.1265,4.1651,4.1999,4.2435,4.2783,4.3098,4.3115,4.3562,4.3578,4.3645,4.3645,4.3645,4.3645,4.3645,4.3645,4.3615,4.3814,4.3582,4.3479,4.3513,4.3548,4.3566,4.3479,4.3566,4.3566,4.3479,4.3479,4.3479,4.3479,4.3479,4.3479,4.3479,4.3479,4.3479,4.3513,4.3513,4.3513,4.3548,4.373,4.3999,4.426,4.4546,4.4562,4.4405,4.4512,4.4136,4.3341,4.3365,4.2928,4.2133,4.2176,4.2096,4.1874,4.1719,4.1574,4.151,4.1444,4.1378,4.1397,4.1397,4.1367,4.1274,4.0472,3.9974,3.989,4.041,4.1019,4.1706,4.2247,4.2701,4.3137,4.3413,4.3545,4.3477,4.3424,4.3477,4.3545,4.3477,4.3373,4.3303,4.3232,4.3087,4.2957,4.29,4.29,4.29,4.29,4.2862,4.2729,4.2709,4.2591,4.2351,4.2228,4.2346,4.2599,4.26,4.2785,4.3054,4.3131,4.3372,4.4007,4.4138,4.4165,4.3807,4.3961,4.2981,4.1359,4.0872,4.0634,4.0205,4.0034,4.044,4.0959,4.1181,4.1608,4.2118,4.243,4.2812,4.3096,4.3403,4.3595,4.3628,4.3645,4.3645,4.3645,4.3645,4.3645,4.3645,4.3645,4.3645,4.3964,4.4048,4.3793,4.3624,4.3532,4.3548,4.3548,4.3532,4.3566,4.3566,4.3497,4.3479,4.3479,4.3479,4.3479,4.36,4.3667,4.3566,4.3631,4.3777,4.3697,4.3682,4.373,4.4102,4.4374,4.4572,4.4843,4.4981,4.5,4.5154,4.4927,4.4364,4.4393,4.4119,4.3317,4.3354,4.3387,4.3061,4.2917,4.281,4.2688,4.2591,4.2528,4.2528,4.2528,4.2528,4.2509,4.2021,4.1582,4.1334,4.1863,4.2501,4.294,4.3239,4.3591,4.3874,4.3992,4.3962,4.3868,4.3818,4.3881,4.3962,4.3899,4.3868,4.374,4.3609,4.3389,4.3353,4.3142,4.3032,4.316,4.305,4.2994,4.2975,4.29,4.2824,4.2649,4.2409,4.2602,4.2967,4.3111,4.3465,4.3842,4.3968,4.4125,4.4513,4.4672,4.4454,4.3955,4.4102,4.2844,4.1711,4.1143,4.0888,4.0617,4.0657,4.0862,4.1319,4.17,4.231,4.2845,4.301,4.3267,4.3327,4.3611,4.3611,4.3645,4.3645,4.3645,4.3645,4.3645,4.3645,4.3645,4.3645,4.3645,4.4364,4.4221,4.4073,4.3885,4.3697,4.3649,4.3631,4.3597,4.3597,4.3634,4.36,4.3624,4.3603,4.3566,4.3649,4.3795,4.3923,4.3744,4.3886,4.4173,4.4162,4.4079,4.4151,4.4511,4.4745,4.4887,4.5132,4.5256,4.5235,4.5277,4.5277,4.5161,4.5142,4.5258,4.4946,4.522,4.4741,4.4128,4.4033,4.371,4.3138,4.3041,4.306,4.306,4.3099,4.3118,4.3193,4.3552,4.3469,4.28,4.3317,4.3686,4.3886,4.4497,4.465,4.4511,4.4519,4.4383,4.4223,4.4194,4.4233,4.4438,4.4308,4.4233,4.4308,4.4035,4.3831,4.3887,4.3508,4.3339,4.3545,4.3391,4.3178,4.3086,4.2994,4.2824,4.2649,4.2526,4.2982,4.3471,4.3419,4.3625,4.4546,4.4424,4.4665,4.501,4.5207,4.4928,4.4298,4.3941,4.3666,4.2655,4.1321,4.1013,4.0675,4.0942,4.1134,4.1599,4.2086,4.2775,4.3287,4.3426,4.3509,4.3568,4.3645,4.3645,4.3645,4.3645,4.3645,4.3645,4.3645,4.3645,4.3645,4.3645,4.3645,4.4452,4.4682,4.4476,4.4336,4.427,4.4202,4.4202,4.4231,4.4173,4.4147,4.4141,4.4162,4.4132,4.4153,4.4121,4.4231,4.4231,4.4202,4.4184,4.4383,4.4546,4.4572,4.4599,4.4726,4.4934,4.5132,4.5235,4.5277,4.5277,4.5277,4.5277,4.5277,4.5277,4.5277,4.5277,4.5277,4.5201,4.4991,4.4934,4.4838,4.4628,4.4551,4.4647,4.4647,4.4571,4.4571,4.4609,4.4819,4.4813,4.4471,4.4488,4.4573,4.4578,4.4806,4.4895,4.4827,4.4802,4.4758,4.4707,4.4662,4.4714,4.4758,4.4732,4.4655,4.4493,4.4383,4.4223,4.4146,4.3924,4.3786,4.3707,4.3612,4.3442,4.3196,4.305,4.292,4.2915,4.3346,4.388,4.4456,4.4886,4.5462,4.5855,4.5957,4.5823,4.6023,4.5927,4.5316,4.4408,4.4086,4.3915,4.2154,4.0916,4.0865,4.0849,4.1121,4.1493,4.19,4.244,4.3056,4.3398,4.3535,4.3568,4.3645,4.3645,4.3645,4.3645,4.3645,4.3645,4.3645,4.3645,4.3645,4.3645,4.3645,4.3645,4.4629,4.4701,4.4695,4.4591,4.443,4.4411,4.4438,4.4465,4.443,4.4401,4.4393,4.4401,4.4405,4.4402,4.4382,4.4463,4.4546,4.4438,4.4519,4.4814,4.4953,4.5,4.5023,4.5023,4.5109,4.5256,4.5277,4.5277,4.5277,4.5277,4.5277,4.5277,4.5277,4.5277,4.5277,4.5277,4.5277,4.5277,4.5277,4.5277,4.5277,4.5277,4.5277,4.5277,4.5277,4.5277,4.5277,4.5277,4.5235,4.5151,4.5106,4.5061,4.508,4.5061,4.508,4.508,4.508,4.508,4.508,4.5061,4.5061,4.508,4.508,4.5014,4.4838,4.4745,4.4553,4.465,4.4346,4.4194,4.4165,4.4035,4.3804,4.3545,4.3338,4.3178,4.3013,4.3645,4.4346,4.5003,4.5654,4.636,4.699,4.6898,4.6795,4.6731,4.6584,4.5529,4.436,4.4318,4.3908,4.2315,4.1488,4.1561,4.1862,4.2224,4.2501,4.287,4.3069,4.3625,4.363,4.3687,4.3645,4.3645,4.3645,4.3645,4.3645,4.3645,4.3645,4.3645,4.3645,4.3645,4.3645,4.3645,4.3645,4.4805,4.4457,4.4827,4.4757,4.4448,4.4457,4.4591,4.4599,4.4617,4.4578,4.4571,4.4523,4.4581,4.4493,4.4619,4.4638,4.4843,4.4669,4.4862,4.5109,4.5275,4.5256,4.5235,4.5235,4.5256,4.5277,4.5277,4.5277,4.5277,4.5277,4.5277,4.5277,4.5277,4.5277,4.5277,4.5277,4.5277,4.5277,4.5277,4.5277,4.5277,4.5277,4.5277,4.5277,4.5277,4.5277,4.5277,4.5277,4.5277,4.5277,4.5277,4.5275,4.5275,4.5297,4.5297,4.5275,4.5254,4.5256,4.5297,4.5256,4.5256,4.5256,4.5256,4.5277,4.5194,4.5,4.4957,4.5132,4.4739,4.4617,4.4599,4.4465,4.4184,4.3899,4.3804,4.3597,4.3541,4.3886,4.4608,4.5367,4.5941,4.6614,4.6988,4.7187,4.7025,4.7007,4.6863,4.6074,4.4979,4.4625,4.4031,4.2979,4.2562,4.2573,4.2932,4.3398,4.37,4.4007,4.4024,4.4221,4.3937,4.3889,4.3687,4.3645,4.3645,4.3645,4.3645,4.3645,4.3628,4.3645,4.3645,4.3645,4.3645,4.3645,4.3645,4.4597,4.4643,4.4753,4.4832,4.4908,4.4943,4.5042,4.5197,4.5194,4.5084,4.5103,4.509,4.5074,4.5094,4.5033,4.5154,4.5154,4.5087,4.5213,4.5275,4.5359,4.5338,4.5317,4.5277,4.5277,4.5277,4.5277,4.5277,4.5277,4.5277,4.5277,4.5277,4.5277,4.5277,4.5277,4.5277,4.5277,4.5277,4.5277,4.5277,4.5277,4.5277,4.5277,4.5277,4.5277,4.5277,4.5277,4.5277,4.5277,4.5277,4.5277,4.5277,4.5297,4.5297,4.5297,4.5297,4.5297,4.5277,4.5297,4.5297,4.5297,4.5317,4.5298,4.5277,4.5277,4.5235,4.5194,4.5277,4.5151,4.4976,4.4843,4.4565,4.4383,4.427,4.4258,4.4431,4.4904,4.5268,4.5718,4.6327,4.7074,4.7652,4.7621,4.7407,4.7276,4.7232,4.6945,4.6543,4.582,4.5035,4.441,4.3654,4.3606,4.3633,4.4036,4.4423,4.4692,4.4837,4.4849,4.4818,4.4485,4.4162,4.4006,4.3789,4.3645,4.3645,4.3645,4.3687,4.3747,4.3687,4.3645,4.3628,4.3628,4.3645,4.3585,4.4697,4.4695,4.4852,4.5,4.5125,4.5084,4.5194,4.54,4.5419,4.5378,4.5356,4.5357,4.5338,4.5277,4.5277,4.5277,4.5277,4.5277,4.5297,4.5317,4.5338,4.5338,4.5317,4.5277,4.5277,4.5277,4.5277,4.5277,4.5277,4.5277,4.5277,4.5277,4.5277,4.5277,4.5277,4.5277,4.5277,4.5277,4.5277,4.5277,4.5277,4.5277,4.5277,4.5277,4.5277,4.5277,4.5277,4.5277,4.5277,4.5277,4.5277,4.5298,4.5338,4.5317,4.5317,4.5338,4.5317,4.5317,4.5338,4.5337,4.5319,4.536,4.5339,4.5338,4.5338,4.5338,4.5317,4.5317,4.5277,4.5194,4.5045,4.4934,4.477,4.4693,4.4949,4.5359,4.5835,4.6108,4.6461,4.7077,4.7756,4.7931,4.7875,4.7645,4.7511,4.7468,4.745,4.7032,4.6352,4.5634,4.5275,4.4803,4.4711,4.4821,4.5143,4.5468,4.5708,4.5658,4.5545,4.5407,4.5142,4.4763,4.4373,4.4105,4.3848,4.3645,4.3645,4.3687,4.3789,4.3747,4.3687,4.3747,4.3687,4.3687,4.3628,4.4887,4.4701,4.4953,4.5106,4.5189,4.5103,4.5197,4.5477,4.5438,4.5398,4.5395,4.5378,4.5338,4.5317,4.5277,4.5277,4.5277,4.5277,4.5277,4.5297,4.5317,4.5317,4.5317,4.5317,4.5317,4.5297,4.5277,4.5277,4.5277,4.5277,4.5277,4.5277,4.5277,4.5277,4.5277,4.5277,4.5277,4.5277,4.5277,4.5277,4.5277,4.5277,4.5277,4.5277,4.5277,4.53,4.532,4.532,4.5319,4.5339,4.5319,4.5359,4.536,4.5359,4.5338,4.538,4.5339,4.5359,4.536,4.5359,4.536,4.54,4.54,4.5399,4.5399,4.5399,4.5379,4.5338,4.5317,4.5317,4.5317,4.5256,4.5205,4.5261,4.5765,4.6267,4.6675,4.6887,4.7367,4.767,4.8071,4.8233,4.8093,4.7893,4.7806,4.7699,4.7699,4.7494,4.6832,4.6338,4.5972,4.5786,4.5659,4.5658,4.5945,4.606,4.6377,4.6293,4.6137,4.6038,4.5837,4.5528,4.5091,4.4485,4.4179,4.3906,4.3747,4.3789,4.3789,4.373,4.3848,4.3964,4.3906,4.3747,4.3687,4.4795,4.472,4.4795,4.4984,4.5187,4.516,4.5301,4.5458,4.5419,4.54,4.5379,4.5338,4.5317,4.5277,4.5277,4.5277,4.5277,4.5277,4.5277,4.5317,4.5338,4.5357,4.5317,4.5338,4.5357,4.5317,4.5277,4.5277,4.5277,4.5277,4.5277,4.5277,4.5277,4.5277,4.5277,4.5277,4.5277,4.5277,4.5277,4.5277,4.5277,4.5317,4.5298,4.5298,4.5298,4.5361,4.5418,4.5419,4.5438,4.5524,4.5456,4.5457,4.5476,4.5438,4.54,4.54,4.54,4.538,4.54,4.54,4.5381,4.54,4.5419,4.5419,4.5419,4.5419,4.54,4.5399,4.5379,4.5398,4.5379,4.5475,4.5721,4.6018,4.6466,4.6982,4.7856,4.8321,4.8466,4.8548,4.8546,4.8495,4.8364,4.8153,4.7951,4.7824,4.7741,4.7765,4.7433,4.7029,4.6675,4.6597,4.6506,4.656,4.6722,4.6757,4.6852,4.6788,4.6684,4.6684,4.6507,4.6328,4.585,4.5303,4.4708,4.4276,4.4179,4.4064,4.4064,4.4162,4.4219,4.4293,4.408,4.3906,4.3789,4.5113,4.5096,4.5007,4.5144,4.5344,4.5213,4.5302,4.5514,4.5457,4.5419,4.5419,4.5379,4.5359,4.5338,4.5298,4.5277,4.5297,4.5277,4.5277,4.5317,4.5337,4.5338,4.5298,4.5338,4.5317,4.5297,4.5277,4.5297,4.5277,4.5277,4.5277,4.5277,4.5277,4.5277,4.5277,4.5277,4.5297,4.5297,4.5297,4.5297,4.5317,4.5338,4.5339,4.5341,4.5341,4.5438,4.5522,4.5522,4.5574,4.5645,4.5571,4.5591,4.561,4.5565,4.5457,4.5476,4.5438,4.5419,4.5438,4.5419,4.5419,4.5475,4.5457,4.5457,4.5457,4.5457,4.5419,4.54,4.54,4.54,4.54,4.5783,4.6203,4.6621,4.7231,4.7995,4.8542,4.9106,4.9239,4.9215,4.9221,4.9052,4.8713,4.8495,4.8172,4.801,4.7866,4.7847,4.7911,4.7652,4.732,4.7275,4.7192,4.7108,4.7186,4.7133,4.716,4.7116,4.7133,4.7116,4.707,4.6835,4.6631,4.6249,4.5631,4.4947,4.4597,4.4524,4.4541,4.4485,4.4446,4.4406,4.4253,4.4138,4.4006,4.5438,4.5476,4.5282,4.5362,4.555,4.5322,4.5342,4.555,4.5476,4.5457,4.5496,4.5419,4.5399,4.538,4.536,4.5319,4.5338,4.5319,4.5319,4.5319,4.5319,4.53,4.5319,4.5319,4.5319,4.5339,4.5339,4.5317,4.5297,4.5277,4.5277,4.5277,4.5277,4.5317,4.5317,4.5317,4.5317,4.5338,4.5338,4.5319,4.5361,4.5419,4.5457,4.5473,4.5472,4.5555,4.5684,4.5675,4.5744,4.5796,4.577,4.5731,4.5847,4.5699,4.5596,4.558,4.5493,4.5495,4.5495,4.5475,4.5495,4.5568,4.5531,4.5513,4.5513,4.5495,4.5495,4.5438,4.5419,4.5592,4.5841,4.6321,4.6818,4.7429,4.8286,4.9079,4.9125,4.9435,4.9727,4.9757,4.9803,4.9589,4.9196,4.885,4.8604,4.8402,4.8269,4.819,4.8249,4.8192,4.7949,4.7904,4.7802,4.7638,4.7542,4.7414,4.7381,4.7294,4.7338,4.7381,4.7338,4.7249,4.7053,4.6852,4.6489,4.5868,4.5459,4.4947,4.4801,4.4708,4.4614,4.4558,4.4558,4.4502,4.4446,4.5457,4.5419,4.5513,4.5568,4.5586,4.5531,4.555,4.5568,4.5513,4.5495,4.5514,4.5438,4.5419,4.54,4.5381,4.5381,4.5381,4.54,4.5361,4.5361,4.5361,4.5361,4.5381,4.54,4.538,4.538,4.5381,4.5341,4.5319,4.5298,4.5317,4.5317,4.5298,4.5317,4.5379,4.5379,4.538,4.5381,4.5381,4.5437,4.5539,4.5591,4.563,4.5698,4.5738,4.5789,4.589,4.5878,4.5919,4.6033,4.5949,4.5889,4.5889,4.5889,4.5836,4.5803,4.5703,4.5566,4.5601,4.5582,4.5601,4.5635,4.5601,4.5586,4.5568,4.5531,4.555,4.5586,4.5571,4.586,4.6359,4.6762,4.753,4.8276,4.8982,4.9457,4.9645,4.9702,5.0012,5.0025,4.9981,4.9903,4.9646,4.9321,4.9034,4.885,4.8676,4.8623,4.855,4.8532,4.844,4.8365,4.8251,4.8096,4.7974,4.7852,4.7687,4.7597,4.7597,4.7639,4.7529,4.7486,4.7468,4.7232,4.6908,4.6613,4.6116,4.5614,4.5108,4.491,4.4872,4.4872,4.491,4.4872,4.4725,4.5419,4.5419,4.5513,4.5549,4.5528,4.5549,4.555,4.555,4.5457,4.5457,4.5495,4.5438,4.54,4.5419,4.54,4.54,4.54,4.5419,4.54,4.5419,4.5419,4.5419,4.54,4.54,4.54,4.5419,4.54,4.5381,4.5361,4.538,4.5361,4.5361,4.5361,4.5361,4.5438,4.5419,4.54,4.5438,4.5473,4.5607,4.5722,4.5777,4.5796,4.5847,4.5847,4.594,4.6013,4.6041,4.6076,4.615,4.6091,4.6057,4.6057,4.6005,4.592,4.6016,4.5863,4.5783,4.5783,4.5769,4.5756,4.5761,4.5737,4.5684,4.5637,4.5586,4.5568,4.5586,4.6049,4.6473,4.703,4.776,4.8452,4.9122,4.9599,4.9857,5.0064,5.014,5.0236,5.0212,5.0169,5.0076,4.9955,4.9721,4.9442,4.929,4.9113,4.9015,4.8949,4.8897,4.8813,4.8711,4.8604,4.8495,4.8383,4.8288,4.8114,4.8014,4.7875,4.7852,4.7699,4.7657,4.7597,4.7511,4.7276,4.6972,4.6631,4.62,4.5649,4.539,4.5178,4.5125,4.5072,4.4669,4.4575,4.538,4.5381,4.5438,4.5475,4.5454,4.5456,4.5475,4.5495,4.5419,4.5438,4.5495,4.5476,4.5476,4.5457,4.5476,4.5476,4.5476,4.5457,4.5457,4.5438,4.5438,4.5476,4.5476,4.5476,4.5476,4.5457,4.5476,4.5457,4.5438,4.5438,4.5438,4.54,4.54,4.5438,4.5455,4.551,4.5528,4.5571,4.5645,4.577,4.5908,4.5949,4.5959,4.5987,4.6024,4.6029,4.6118,4.6144,4.6211,4.624,4.6211,4.6187,4.6216,4.6138,4.6064,4.6131,4.606,4.6024,4.5978,4.593,4.591,4.5897,4.5871,4.5761,4.5684,4.5654,4.562,4.5603,4.6336,4.6817,4.7432,4.8529,4.924,4.972,5.0141,5.0327,5.0435,5.039,5.0325,5.0259,5.0236,5.0259,5.0144,5.0,4.9822,4.9712,4.956,4.9405,4.9326,4.9295,4.9302,4.9196,4.9015,4.8915,4.8832,4.8711,4.855,4.8383,4.8289,4.8096,4.7974,4.7847,4.7806,4.7681,4.7554,4.732,4.7017,4.6602,4.6235,4.5953,4.5683,4.539,4.5142,4.478,4.4686,4.5317,4.5338,4.538,4.54,4.5419,4.5419,4.5438,4.5495,4.5419,4.5476,4.5568,4.5586,4.5568,4.5568,4.5568,4.5568,4.5586,4.5605,4.5568,4.5568,4.5586,4.5568,4.5549,4.5568,4.5586,4.5586,4.5549,4.5549,4.5566,4.5582,4.5512,4.5419,4.5475,4.5563,4.5607,4.565,4.5717,4.5776,4.5867,4.593,4.6041,4.6091,4.6138,4.6216,4.6249,4.6273,4.6296,4.6273,4.6253,4.63,4.6273,4.6249,4.6273,4.6245,4.6216,4.6221,4.624,4.6206,4.6181,4.6057,4.593,4.591,4.5889,4.5863,4.5794,4.5786,4.5727,4.5786,4.6593,4.7313,4.7988,4.8836,4.9817,5.0163,5.0411,5.0427,5.0478,5.0412,5.0367,5.0302,5.0302,5.0302,5.0302,5.0144,5.0095,4.9967,4.9967,4.9803,4.9803,4.9803,4.9822,4.9768,4.9531,4.9394,4.9314,4.9158,4.8967,4.8816,4.8657,4.8458,4.8212,4.8114,4.7951,4.7847,4.7723,4.7536,4.7363,4.7053,4.676,4.6489,4.6182,4.5835,4.5494,4.5196,4.5266,4.5277,4.5297,4.5339,4.5379,4.5398,4.5419,4.54,4.5419,4.5419,4.5476,4.5586,4.5586,4.5586,4.5586,4.5586,4.5586,4.5586,4.5586,4.5603,4.5586,4.5586,4.5586,4.5586,4.562,4.5637,4.5684,4.5651,4.5673,4.5764,4.5718,4.5728,4.5694,4.5654,4.5708,4.579,4.582,4.5899,4.5987,4.6041,4.6072,4.6187,4.6216,4.6245,4.6277,4.63,4.63,4.63,4.63,4.63,4.63,4.63,4.63,4.63,4.63,4.63,4.63,4.63,4.63,4.63,4.6201,4.6112,4.6021,4.6005,4.5978,4.5883,4.5852,4.584,4.6177,4.7027,4.7947,4.8221,4.9437,5.0501,5.0606,5.0624,5.0584,5.0523,5.0502,5.0438,5.0396,5.0329,5.0302,5.0302,5.0278,5.0255,5.0231,5.0231,5.0231,5.0182,5.0139,5.0114,5.0089,4.9876,4.9768,4.9693,4.9531,4.937,4.9227,4.9067,4.8866,4.8621,4.8174,4.8053,4.7992,4.7888,4.7681,4.7554,4.7468,4.7232,4.688,4.6537,4.6182,4.5885,4.5666,4.5666,4.5277,4.5277,4.5277,4.5317,4.5397,4.5417,4.5419,4.5419,4.54,4.5476,4.5568,4.5605,4.5586,4.5586,4.5586,4.5637,4.5635,4.5618,4.5637,4.5671,4.5668,4.5651,4.5648,4.5692,4.5761,4.5789,4.5761,4.5777,4.5867,4.5847,4.5863,4.5897,4.5908,4.5919,4.5949,4.6005,4.6084,4.6138,4.6176,4.6187,4.63,4.63,4.63,4.63,4.63,4.63,4.63,4.63,4.63,4.63,4.63,4.63,4.63,4.63,4.63,4.63,4.6303,4.6303,4.63,4.6277,4.6249,4.6176,4.615,4.6091,4.5996,4.5949,4.5949,4.6044,4.7384,4.8468,4.8468,4.9746,5.0695,5.0832,5.0773,5.072,5.0644,5.0606,5.0546,5.0485,5.0396,5.0302,5.0325,5.0325,5.0325,5.0302,5.0278,5.0255,5.0255,5.0212,5.0212,5.0188,5.0139,5.0063,5.0012,4.986,4.9731,4.9655,4.9491,4.9321,4.8996,4.8603,4.8251,4.8192,4.8053,4.7824,4.7657,4.7615,4.7486,4.7249,4.6944,4.6613,4.6315,4.607,4.5988,4.5277,4.5277,4.5277,4.5339,4.54,4.5399,4.5438,4.5476,4.5457,4.5457,4.5531,4.5568,4.5603,4.562,4.5635,4.5692,4.5737,4.5665,4.5684,4.5752,4.5765,4.5791,4.5808,4.5854,4.5852,4.5889,4.5867,4.5856,4.593,4.5928,4.5969,4.6057,4.6084,4.6084,4.6125,4.6236,4.6296,4.63,4.6277,4.6277,4.63,4.63,4.63,4.63,4.63,4.63,4.63,4.63,4.63,4.63,4.63,4.6284,4.627,4.627,4.627,4.6273,4.627,4.629,4.6303,4.6303,4.628,4.6273,4.6245,4.6211,4.6131,4.6091,4.6076,4.6141,4.7408,4.8321,4.9027,4.9831,5.0499,5.094,5.0879,5.0835,5.0784,5.0735,5.0662,5.0587,5.0442,5.0325,5.0367,5.039,5.0348,5.0348,5.0302,5.0302,5.0302,5.0302,5.0278,5.0278,5.0231,5.0231,5.0158,5.0133,5.0057,5.0031,4.9914,4.9712,4.9472,4.9113,4.8779,4.8532,4.8269,4.8053,4.7888,4.7717,4.7615,4.7529,4.732,4.7062,4.676,4.6542,4.6381,4.5277,4.5277,4.5277,4.5339,4.5381,4.5419,4.5438,4.5514,4.5513,4.555,4.5587,4.5682,4.5728,4.5731,4.5769,4.5803,4.5828,4.5841,4.5854,4.5859,4.5858,4.5849,4.5874,4.5917,4.5939,4.5988,4.5988,4.6041,4.6156,4.608,4.6096,4.6195,4.6216,4.6221,4.624,4.6296,4.63,4.63,4.63,4.63,4.63,4.63,4.63,4.63,4.63,4.63,4.6303,4.6303,4.6306,4.6287,4.629,4.6278,4.6228,4.6229,4.6211,4.619,4.6169,4.6169,4.619,4.6211,4.63,4.6293,4.63,4.6277,4.624,4.624,4.6206,4.6371,4.7262,4.8047,4.8775,4.9565,5.0257,5.0872,5.0953,5.094,5.0912,5.0844,5.0781,5.0713,5.0587,5.0527,5.0526,5.0547,5.0508,5.0486,5.0466,5.0352,5.0348,5.0302,5.0302,5.0302,5.0278,5.0278,5.0278,5.0207,5.0207,5.0182,5.0133,5.0038,4.9795,4.9502,4.9363,4.9094,4.8674,4.8307,4.8114,4.7992,4.7884,4.7759,4.7554,4.7345,4.708,4.6916,4.6795,4.5277,4.5277,4.5277,4.5338,4.5399,4.5419,4.5458,4.555,4.5618,4.5687,4.5703,4.5789,4.5824,4.5854,4.5875,4.5939,4.5939,4.591,4.5959,4.5948,4.5977,4.597,4.5983,4.6007,4.6105,4.6123,4.6111,4.6142,4.6264,4.6189,4.6201,4.6261,4.629,4.6287,4.6287,4.6306,4.63,4.63,4.63,4.63,4.63,4.63,4.63,4.63,4.63,4.6303,4.6287,4.6293,4.6297,4.6264,4.6248,4.625,4.6186,4.6156,4.615,4.612,4.6117,4.6117,4.6147,4.6153,4.6207,4.623,4.6261,4.6303,4.63,4.6296,4.6296,4.653,4.7139,4.7689,4.834,4.9153,5.0041,5.0656,5.0977,5.0966,5.1113,5.1039,5.094,5.0865,5.079,5.0748,5.0715,5.0713,5.0711,5.0659,5.0624,5.0508,5.0418,5.0374,5.0352,5.0329,5.0325,5.0325,5.0302,5.0278,5.0278,5.0302,5.0255,5.0207,5.007,4.9803,4.973,4.9618,4.9145,4.8692,4.8403,4.8251,4.805,4.7866,4.7681,4.7493,4.7363,4.7232,4.7116,4.5317,4.5316,4.5317,4.5378,4.5416,4.5457,4.5493,4.5601,4.5742,4.5794,4.5794,4.5883,4.5928,4.5919,4.592,4.6007,4.6072,4.5986,4.6018,4.6069,4.6115,4.6119,4.615,4.6201,4.6222,4.6256,4.6258,4.6231,4.6301,4.6273,4.6276,4.63,4.63,4.63,4.6297,4.6293,4.6306,4.6306,4.6306,4.6287,4.6287,4.6306,4.6273,4.6278,4.6282,4.6284,4.6267,4.6249,4.6228,4.62,4.6189,4.6136,4.6104,4.6089,4.6108,4.6103,4.6098,4.6098,4.6086,4.6092,4.6111,4.6138,4.6207,4.6264,4.629,4.6293,4.6287,4.6463,4.6908,4.7295,4.7795,4.8868,4.9937,5.0438,5.0901,5.1057,5.1271,5.1257,5.1152,5.1061,5.0972,5.092,5.0912,5.0907,5.0926,5.0926,5.0884,5.0778,5.0678,5.0508,5.0486,5.0396,5.0374,5.0348,5.0348,5.0348,5.0325,5.0325,5.0302,5.0255,5.0144,5.0076,4.9981,4.9776,4.9472,4.9113,4.8795,4.8458,4.813,4.797,4.7911,4.7681,4.7554,4.7407,4.7338,4.5572,4.5588,4.5603,4.5619,4.5699,4.5731,4.5796,4.5822,4.5859,4.5875,4.5856,4.5979,4.6044,4.6029,4.6138,4.6201,4.6201,4.6206,4.6206,4.6222,4.6225,4.6234,4.6241,4.6278,4.6287,4.6289,4.6289,4.6289,4.6289,4.6289,4.6289,4.6288,4.6268,4.6286,4.6285,4.63,4.6282,4.628,4.6282,4.6284,4.6285,4.6306,4.6269,4.6248,4.6219,4.6215,4.6175,4.6179,4.6142,4.6118,4.6131,4.6091,4.6021,4.6013,4.6024,4.5969,4.5998,4.6017,4.5969,4.5988,4.6017,4.6035,4.6113,4.6181,4.6217,4.6268,4.6282,4.6477,4.6605,4.6915,4.7435,4.8388,4.9364,4.9996,5.0528,5.106,5.1245,5.1341,5.1257,5.1242,5.1142,5.1113,5.1102,5.1092,5.1122,5.1162,5.1152,5.1035,5.0926,5.0778,5.0642,5.0548,5.0507,5.0507,5.044,5.0438,5.0393,5.039,5.0348,5.0325,5.0259,5.0212,5.0163,5.0,4.9749,4.9453,4.9158,4.8813,4.8421,4.8326,4.8231,4.7992,4.7741,4.7681,4.7578,4.5761,4.5743,4.5723,4.5776,4.5867,4.593,4.5969,4.6008,4.5978,4.5959,4.5996,4.6118,4.6183,4.6201,4.6245,4.628,4.6287,4.6277,4.627,4.6265,4.6289,4.6286,4.6286,4.6289,4.6289,4.6289,4.628,4.6268,4.6255,4.6225,4.6212,4.6212,4.6221,4.62,4.6175,4.615,4.6134,4.6184,4.6228,4.6245,4.6254,4.6257,4.6231,4.6172,4.6157,4.6135,4.6096,4.6104,4.6095,4.6065,4.6055,4.6025,4.5933,4.5914,4.5914,4.5873,4.5886,4.5898,4.5873,4.5893,4.5912,4.5944,4.6007,4.6069,4.6125,4.6173,4.6223,4.6307,4.6365,4.6551,4.7168,4.7826,4.8665,4.9481,5.0223,5.0965,5.1191,5.1362,5.1391,5.1386,5.1349,5.1284,5.1277,5.1289,5.1296,5.1303,5.1303,5.1265,5.1142,5.0991,5.087,5.0761,5.0711,5.0694,5.0606,5.0546,5.0525,5.0483,5.0435,5.0393,5.0371,5.0371,5.0348,5.0217,5.0051,4.9784,4.9522,4.9177,4.885,4.8781,4.8711,4.8532,4.8289,4.8014,4.7933,4.5835,4.5843,4.5854,4.591,4.6007,4.6029,4.6092,4.6206,4.6138,4.6105,4.6138,4.624,4.6277,4.6273,4.63,4.6287,4.6293,4.6293,4.6289,4.6288,4.6289,4.6289,4.6267,4.6289,4.625,4.6269,4.6261,4.6212,4.6174,4.6114,4.6088,4.6096,4.6096,4.6068,4.6024,4.6026,4.6007,4.6005,4.6092,4.617,4.6162,4.6157,4.6138,4.6085,4.6061,4.6054,4.6054,4.6046,4.6046,4.6007,4.5949,4.5924,4.5866,4.5827,4.5827,4.5808,4.5827,4.5827,4.5827,4.5827,4.5827,4.5872,4.591,4.5938,4.6008,4.6137,4.6195,4.6241,4.6308,4.6325,4.6809,4.7442,4.8193,4.8818,4.9442,5.0223,5.0805,5.1074,5.1386,5.1401,5.1381,5.1347,5.1347,5.1341,5.1336,5.1377,5.1396,5.1375,5.131,5.118,5.1081,5.0933,5.0926,5.0884,5.0793,5.0713,5.0643,5.0587,5.0545,5.0478,5.0438,5.0478,5.05,5.0352,5.024,5.0081,4.9838,4.9541,4.9333,4.9271,4.919,4.9126,4.8881,4.8549,4.8384,4.6095,4.6119,4.6091,4.6147,4.6211,4.6221,4.6225,4.6273,4.6269,4.6245,4.6269,4.6277,4.6303,4.6306,4.629,4.6295,4.6276,4.625,4.6269,4.625,4.6249,4.6206,4.6181,4.6201,4.6193,4.617,4.613,4.6104,4.6046,4.5982,4.5938,4.5957,4.5964,4.5945,4.5899,4.5896,4.5902,4.5858,4.5945,4.5998,4.5975,4.6007,4.6003,4.593,4.5905,4.5931,4.5907,4.5863,4.5858,4.5838,4.5858,4.5852,4.58,4.58,4.58,4.58,4.58,4.58,4.58,4.58,4.58,4.58,4.5838,4.5838,4.5925,4.6088,4.6188,4.6214,4.6248,4.6269,4.6444,4.7081,4.7689,4.8158,4.8623,4.9462,5.0301,5.077,5.1219,5.1336,5.1336,5.1355,5.1336,5.1394,5.1394,5.1394,5.139,5.1386,5.1381,5.131,5.1242,5.1133,5.1122,5.1078,5.0966,5.0912,5.084,5.0748,5.068,5.0606,5.0523,5.0542,5.0542,5.05,5.0396,5.0287,5.0174,5.0012,4.9838,4.9757,4.9655,4.9551,4.9435,4.9171,4.8978,4.6242,4.6235,4.624,4.6261,4.63,4.63,4.63,4.63,4.63,4.6276,4.6264,4.6276,4.629,4.6265,4.6269,4.623,4.621,4.6156,4.6131,4.6119,4.6105,4.6068,4.6066,4.606,4.6028,4.6022,4.5972,4.5938,4.5908,4.5851,4.5808,4.5816,4.5816,4.5816,4.58,4.5808,4.5776,4.5738,4.5796,4.5789,4.5789,4.5834,4.5838,4.58,4.5793,4.5789,4.5785,4.5742,4.5776,4.5757,4.5742,4.5771,4.5771,4.5742,4.5757,4.5786,4.58,4.58,4.58,4.58,4.58,4.58,4.58,4.58,4.5838,4.6002,4.6072,4.6105,4.6162,4.6179,4.6251,4.6712,4.7243,4.7721,4.8044,4.8623,4.9228,4.9696,5.0223,5.0653,5.077,5.0965,5.1063,5.1394,5.1394,5.1394,5.1394,5.1394,5.1394,5.1394,5.1341,5.1297,5.1269,5.1217,5.1103,5.1053,5.1027,5.094,5.0825,5.0735,5.0645,5.0605,5.0584,5.0565,5.0563,5.0521,5.0416,5.0287,5.0264,5.0174,5.0081,4.9943,4.9846,4.9765,4.9692,4.6306,4.6287,4.629,4.629,4.6287,4.6287,4.6293,4.6276,4.6276,4.623,4.6161,4.619,4.621,4.6205,4.6167,4.6123,4.6066,4.6033,4.5998,4.5972,4.593,4.5905,4.5898,4.5886,4.5902,4.5877,4.5823,4.5808,4.5803,4.5745,4.5687,4.5684,4.5668,4.5651,4.5673,4.564,4.5624,4.5607,4.5607,4.5605,4.5657,4.5714,4.5709,4.5703,4.568,4.568,4.568,4.5696,4.5731,4.5613,4.5524,4.5505,4.5558,4.5524,4.5594,4.561,4.5723,4.5723,4.5771,4.5757,4.5752,4.5752,4.5766,4.5786,4.5791,4.586,4.5956,4.6016,4.6044,4.6123,4.619,4.6314,4.6829,4.7224,4.751,4.7806,4.8294,4.8782,4.9384,4.9969,5.0262,5.0516,5.0965,5.1297,5.1375,5.1375,5.1394,5.1394,5.1394,5.1394,5.1362,5.1352,5.1347,5.1284,5.1218,5.1203,5.117,5.1083,5.0979,5.0863,5.0773,5.0756,5.072,5.0721,5.0683,5.0624,5.0603,5.0502,5.05,5.0519,5.0374,5.0245,5.0268,5.0221,5.0333,4.6288,4.6288,4.6289,4.6289,4.6289,4.6288,4.6249,4.6143,4.6139,4.6081,4.5986,4.5982,4.6,4.605,4.6034,4.6002,4.5941,4.5918,4.5882,4.5831,4.5857,4.5808,4.5781,4.577,4.5777,4.5709,4.5657,4.5693,4.5532,4.555,4.5566,4.5494,4.5494,4.5475,4.5419,4.5419,4.54,4.5362,4.5362,4.5381,4.5476,4.5532,4.5659,4.5673,4.5654,4.5671,4.5687,4.5684,4.558,4.5399,4.5187,4.5147,4.5147,4.5246,4.5304,4.5418,4.5507,4.5594,4.5613,4.5629,4.5594,4.5626,4.5645,4.5645,4.568,4.5742,4.5814,4.588,4.5937,4.6046,4.6111,4.6113,4.6462,4.6722,4.699,4.7338,4.7735,4.8317,4.8903,4.9427,4.9836,5.036,5.1043,5.1238,5.1301,5.132,5.1394,5.1394,5.1402,5.1398,5.1394,5.1394,5.1394,5.1394,5.1362,5.1333,5.1291,5.1222,5.1123,5.1004,5.0918,5.0883,5.0871,5.0839,5.0775,5.0702,5.0664,5.0683,5.0682,5.0662,5.0582,5.0542,5.0582,5.0602,5.064]},{"header":{"parameterUnit":"m.s-1","parameterCategory":1,"la1":31.0,"la2":29.5877,"lo1":-88.7671,"lo2":-86.6584,"dy":0.0162,"dx":0.0185,"nx":115,"ny":88,"refTime":"2024-09-12T06:00:00:Z","depth":0,"parameterNumber":3,"parameterNumberName":"V-component_of_WINDS"},"data":[0.0,0.0,0.0,0.0,0.0,0.0,0.0,0.0,0.0,0.0,0.0,0.0,0.0,0.0,0.0,0.0,0.0,0.0,0.0,0.0,0.0,0.0,0.0,0.0,0.0,0.0,0.0,0.0,0.0,0.0,0.0,0.0,0.0,0.0,0.0,0.0,0.0,0.0,0.0,0.0,0.0,0.0,0.0,0.0,0.0,0.0,0.0,0.0,0.0,0.0,0.0,0.0,0.0,0.0,0.0,0.0,0.0,0.0,0.0,0.0,0.0,0.0,0.0,0.0,0.0,0.0,0.0,0.0,0.0,0.0,0.0,0.0,0.0,0.0,0.0,0.0,0.0,0.0,0.0,0.0,0.0,0.0,0.0,0.0,0.0,0.0,0.0,0.0,0.0,0.0,0.0,0.0,0.0,0.0,0.0,0.0,0.0,0.0,0.0,0.0,0.0,0.0,0.0,0.0,0.0,0.0,0.0,0.0,0.0,0.0,0.0,0.0,0.0,0.0,0.0,0.0,0.0,0.0,0.0,0.0,0.0,0.0,0.0,0.0,0.0,0.0,0.0,0.0,0.0,0.0,0.0,0.0,0.0,0.0,0.0,0.0,0.0,0.0,0.0,0.0,0.0,0.0,0.0,0.0,0.0,0.0,0.0,0.0,0.0,0.0,0.0,0.0,0.0,0.0,0.0,0.0,0.0,0.0,0.0,0.0,0.0,0.0,0.0,0.0,0.0,0.0,0.0,0.0,0.0,0.0,0.0,0.0,0.0,0.0,0.0,0.0,0.0,0.0,0.0,0.0,0.0,0.0,0.0,0.0,0.0,0.0,0.0,0.0,0.0,0.0,0.0,0.0,0.0,0.0,0.0,0.0,0.0,0.0,0.0,0.0,0.0,0.0,0.0,0.0,0.0,0.0,0.0,0.0,0.0,0.0,0.0,0.0,0.0,0.0,0.0,0.0,0.0,0.0,0.0,0.0,0.0,0.0,0.0,0.0,0.0,0.0,0.0,0.0,0.0,0.0,0.0,0.0,0.0,0.0,0.0,0.0,0.0,0.0,0.0,0.0,0.0,0.0,0.0,0.0,0.0,0.0,0.0,0.0,0.0,0.0,0.0,0.0,0.0,0.0,0.0,0.0,0.0,0.0,0.0,0.0,0.0,0.0,0.0,0.0,0.0,0.0,0.0,0.0,0.0,0.0,0.0,0.0,0.0,0.0,0.0,0.0,0.0,0.0,0.0,0.0,0.0,0.0,0.0,0.0,0.0,0.0,0.0,0.0,0.0,0.0,0.0,0.0,0.0,0.0,0.0,0.0,0.0,0.0,0.0,0.0,0.0,0.0,0.0,0.0,0.0,0.0,0.0,0.0,0.0,0.0,0.0,0.0,0.0,0.0,0.0,0.0,0.0,0.0,0.0,0.0,0.0,0.0,0.0,0.0,0.0,0.0,0.0,0.0,0.0,0.0,0.0,0.0,0.0,0.0,0.0,0.0,0.0,0.0,0.0,0.0,0.0,0.0,0.0,0.0,0.0,0.0,0.0,0.0,0.0,0.0,0.0,0.0,0.0,0.0,0.0,0.0,0.0,0.0,0.0,0.0,0.0,0.0,0.0,0.0,0.0,0.0,0.0,0.0,0.0,0.0,0.0,0.0,0.0,0.0,0.0,0.0,0.0,0.0,0.0,0.0,0.0,0.0,0.0,0.0,0.0,0.0,0.0,0.0,0.0,0.0,0.0,0.0,0.0,0.0,0.0,0.0,0.0,0.0,0.0,0.0,0.0,0.0,0.0,0.0,0.0,0.0,0.0,0.0,0.0,0.0,0.0,0.0,0.0,0.0,0.0,0.0,0.0,0.0,0.0,0.0,0.0,0.0,0.0,0.0,0.0,0.0,0.0,0.0,0.0,0.0,0.0,0.0,0.0,0.0,0.0,0.0,0.0,0.0,0.0,0.0,0.0,0.0,0.0,0.0,0.0,0.0,0.0,0.0,0.0,0.0,0.0,0.0,0.0,0.0,0.0,0.0,0.0,0.0,0.0,0.0,0.0,0.0,0.0,0.0,0.0,0.0,0.0,0.0,0.0,0.0,0.0,0.0,0.0,0.0,0.0,0.0,0.0,0.0,0.0,0.0,0.0,0.0,0.0,0.0,0.0,0.0,0.0,0.0,0.0,0.0,0.0,0.0,0.0,0.0,0.0,0.0,0.0,0.0,0.0,0.0,0.0,0.0,0.0,0.0,0.0,0.0,0.0,0.0,0.0,0.0,0.0,0.0,0.0,0.0,0.0,0.0,0.0,0.0,0.0,0.0,0.0,0.0,0.0,0.0,0.0,0.0,0.0,0.0,0.0,0.0,0.0,0.0,0.0,0.0,0.0,0.0,0.0,0.0,0.0,0.0,0.0,0.0,0.0,0.0,0.0,0.0,0.0,0.0,0.0,0.0,0.0,0.0,0.0,0.0,0.0,0.0,0.0,0.0,0.0,0.0,0.0,0.0,0.0,0.0,0.0,0.0,0.0,0.0,0.0,0.0,0.0,0.0,0.0,0.0,0.0,0.0,0.0,0.0,0.0,0.0,0.0,0.0,0.0,0.0,0.0,0.0,0.0,0.0,0.0,0.0,0.0,0.0,0.0,0.0,0.0,0.0,0.0,0.0,0.0,0.0,0.0,0.0,0.0,0.0,0.0,0.0,0.0,0.0,0.0,0.0,0.0,0.0,0.0,0.0,0.0,0.0,0.0,0.0,0.0,0.0,0.0,0.0,0.0,0.0,0.0,0.0,0.0,0.0,0.0,0.0,0.0,0.0,0.0,0.0,0.0,0.0,0.0,0.0,0.0,0.0,0.0,0.0,0.0,0.0,0.0,0.0,0.0,0.0,0.0,0.0,0.0,0.0,0.0,0.0,0.0,0.0,0.0,0.0,0.0,0.0,0.0,0.0,0.0,0.0,0.0,0.0,0.0,0.0,0.0,0.0,0.0,0.0,0.0,0.0,0.0,0.0,0.0,0.0,0.0,0.0,0.0,0.0,0.0,0.0,0.0,0.0,0.0,0.0,0.0,0.0,0.0,0.0,0.0,0.0,0.0,0.0,0.0,0.0,0.0,0.0,0.0,0.0,0.0,0.0,0.0,0.0,0.0,0.0,0.0,0.0,0.0,0.0,0.0,0.0,0.0,0.0,0.0,0.0,0.0,0.0,0.0,0.0,0.0,0.0,0.0,0.0,0.0,0.0,0.0,0.0,0.0,0.0,0.0,0.0,0.0,0.0,0.0,0.0,0.0,0.0,0.0,0.0,0.0,0.0,0.0,0.0,0.0,0.0,0.0,0.0,0.0,0.0,0.0,0.0,0.0,0.0,0.0,0.0,0.0,0.0,0.0,0.0,0.0,0.0,0.0,0.0,0.0,0.0,0.0,0.0,0.0,0.0,0.0,0.0,0.0,0.0,0.0,0.0,0.0,0.0,0.0,0.0,0.0,0.0,0.0,0.0,0.0,0.0,0.0,0.0,0.0,0.0,0.0,0.0,0.0,0.0,0.0,0.0,0.0,0.0,0.0,0.0,0.0,0.0,0.0,0.0,0.0,0.0,0.0,0.0,0.0,0.0,0.0,0.0,0.0,0.0,0.0,0.0,0.0,0.0,0.0,0.0,0.0,0.0,0.0,0.0,0.0,0.0,0.0,0.0,0.0,0.0,0.0,0.0,0.0,0.0,0.0,0.0,0.0,0.0,0.0,0.0,0.0,0.0,0.0,0.0,0.0,0.0,0.0,0.0,0.0,0.0,0.0,0.0,0.0,0.0,0.0,0.0,0.0,0.0,0.0,0.0,0.0,0.0,0.0,0.0,0.0,0.0,0.0,0.0,0.0,0.0,0.0,0.0,0.0,0.0,0.0,0.0,0.0,0.0,0.0,0.0,0.0,0.0,0.0,0.0,0.0,0.0,0.0,0.0,0.0,0.0,0.0,0.0,0.0,0.0,0.0,0.0,0.0,0.0,0.0,0.0,0.0,0.0,0.0,0.0,0.0,0.0,0.0,0.0,0.0,0.0,0.0,0.0,0.0,0.0,0.0,0.0,0.0,0.0,0.0,0.0,0.0,0.0,0.0,0.0,0.0,0.0,0.0,0.0,0.0,0.0,0.0,0.0,0.0,0.0,0.0,0.0,0.0,0.0,0.0,0.0,0.0,0.0,0.0,0.0,0.0,0.0,0.0,0.0,0.0,0.0,0.0,0.0,0.0,0.0,0.0,0.0,0.0,0.0,0.0,0.0,0.0,0.0,0.0,0.0,0.6276,0.0,0.0,0.0,0.0,0.0,0.0,0.0,0.0,0.0,0.0,0.0,0.0,0.0,0.0,0.0,0.0,0.0,0.0,0.0,0.0,0.0,0.0,0.0,0.0,0.0,0.0,0.0,0.0,0.0,0.0,0.0,0.0,0.0,0.0,0.0,0.0,0.0,0.0,0.0,0.0,0.0,0.0,0.0,0.0,0.0,0.0,0.0,0.0,0.0,0.0,0.0,0.0,0.0,0.0,0.0,0.0,0.0,0.0,0.0,0.0,0.0,0.0,0.0,0.0,0.0,0.0,0.0,0.0,0.0,0.0,0.0,0.0,0.0,0.0,0.0,0.0,0.0,0.0,0.0,0.0,0.0,0.0,0.0,0.0,0.0,0.0,0.0,0.0,0.0,0.0,0.0,0.0,0.0,0.0,0.0,0.0,0.0,0.0,0.0,0.0,0.0,0.0,0.0,0.0,0.0,0.0,0.0,0.0,0.0,0.0,0.6833,0.6833,0.6596,0.6341,0.6039,0.0,0.0,0.0,0.0,0.0,0.0,0.0,0.0,0.0,0.0,0.0,0.0,0.0,0.0,0.0,0.0,0.0,0.0,0.0,0.0,0.0,0.0,0.0,0.0,0.0,0.0,0.0,0.0,0.0,0.0,0.0,0.0,0.0,0.0,0.0,0.0,0.0,0.0,0.0,0.0,0.0,0.0,0.0,0.0,0.0,0.0,0.0,0.0,0.0,0.0,0.0,0.0,0.0,0.0,0.0,0.0,0.0,0.0,0.0,0.0,0.0,0.0,0.0,0.0,0.0,0.0,0.0,0.0,0.0,0.0,0.0,0.0,0.0,0.0,0.0,0.0,0.0,0.0,0.0,0.0,0.0,0.0,0.0,0.0,0.0,0.0,0.0,0.0,0.0,0.0,0.0,0.0,0.0,0.0,0.0,0.0,0.0,0.0,0.0,0.0,0.0,0.0,0.0,0.0,0.0,0.0,0.0,0.0,0.0,0.0,0.0,0.0,0.6747,0.6462,0.6189,0.0,0.0,0.0,0.0,0.0,0.0,0.0,0.0,0.0,0.0,0.0,0.0,0.0,0.0,0.0,0.0,0.0,0.0,0.0,0.0,0.0,0.0,0.0,0.0,0.0,0.0,0.0,0.0,0.0,0.0,0.0,0.0,0.0,0.0,0.0,0.0,0.0,0.0,0.0,0.0,0.0,0.0,0.0,0.0,0.0,0.0,0.0,0.0,0.0,0.0,0.0,0.0,0.0,0.0,0.0,0.0,0.0,0.0,0.0,0.0,0.0,0.0,0.0,0.0,0.0,0.0,0.0,0.0,0.0,0.0,0.0,0.0,0.0,0.0,0.0,0.0,0.0,0.0,0.0,0.0,0.0,0.0,0.0,0.0,0.0,0.0,0.0,0.0,0.0,0.0,0.0,0.0,0.0,0.0,0.0,0.0,0.0,0.0,0.0,0.0,0.0,0.0,0.0,0.0,0.0,0.0,0.0,0.0,0.0,0.0,0.7161,0.7861,0.7783,0.0,0.7648,0.0,0.0,0.0,0.0,0.0,0.0,0.0,0.0,0.0,0.0,0.0,0.0,0.0,0.0,0.0,0.0,0.0,0.0,0.0,0.0,0.0,0.0,0.0,0.0,0.0,0.0,0.0,0.0,0.0,0.0,0.0,0.0,0.0,0.0,0.0,0.0,0.0,0.0,0.0,0.0,0.0,0.0,0.0,0.0,0.0,0.0,0.0,0.0,0.0,0.0,0.0,0.0,0.0,0.0,0.0,0.0,0.0,0.0,0.0,0.0,0.0,0.0,0.0,0.0,0.0,0.0,0.0,0.0,0.0,0.0,0.0,0.0,0.0,0.0,0.0,0.0,0.0,0.0,0.0,0.0,0.0,0.0,0.0,0.0,0.0,0.0,0.0,0.0,0.0,0.0,0.0,0.0,0.0,0.0,0.0,0.0,0.0,0.0,0.0,0.0,0.0,0.0,0.0,0.0,0.0,0.0,0.0,0.0,0.0,0.0,0.7243,0.7577,0.7403,0.7413,0.0,0.0,0.0,0.0,0.0,0.0,0.0,0.0,0.0,0.0,0.0,0.0,0.0,0.0,0.0,0.0,0.0,0.0,0.0,0.0,0.0,0.0,0.0,0.0,0.0,0.0,0.0,0.0,0.0,0.0,0.0,0.0,0.0,0.0,0.0,0.0,0.0,0.0,0.0,0.0,0.0,0.0,0.0,0.0,0.0,0.0,0.0,0.0,0.0,0.0,0.0,0.0,0.0,0.0,0.0,0.0,0.0,0.0,0.0,0.0,0.0,0.0,0.0,0.0,0.0,0.0,0.0,0.0,0.0,0.0,0.0,0.0,0.0,0.0,0.0,0.0,0.0,0.0,0.0,0.0,0.0,0.0,0.0,0.0,0.0,0.0,0.0,0.0,0.0,0.0,0.0,0.0,0.0,0.0,0.0,0.0,0.0,0.0,0.0,0.0,0.0,0.0,0.0,0.0,0.0,0.0,0.0,0.0,0.0,0.0,0.7141,0.0,0.7603,0.7462,0.7351,0.73,0.0,0.0,0.0,0.0,0.0,0.0,0.0,0.0,0.0,0.0,0.0,0.0,0.0,0.0,0.0,0.0,0.0,0.0,0.0,0.0,0.0,0.0,0.0,0.0,0.0,0.0,0.0,0.0,0.0,0.0,0.0,0.0,0.0,0.0,0.0,0.0,0.0,0.0,0.0,0.0,0.0,0.0,0.0,0.0,0.0,0.0,0.0,0.0,0.0,0.0,0.0,0.0,0.0,0.0,0.0,0.0,0.0,0.0,0.0,0.0,0.0,0.0,0.0,0.0,0.0,0.0,0.0,0.0,0.0,0.0,0.0,0.0,0.0,0.0,0.0,0.0,0.0,0.0,0.0,0.0,0.0,0.0,0.0,0.0,0.0,0.0,0.0,0.0,0.0,0.0,0.0,0.0,0.0,0.0,0.0,0.0,0.0,0.0,0.0,0.0,0.0,0.0,0.0,0.0,0.0,0.0,0.0,0.0,0.0,0.7637,0.7654,0.8448,0.8569,0.8031,0.0,0.0,0.0,0.0,0.0,0.0,0.0,0.0,0.0,0.0,0.0,0.0,0.0,0.0,0.0,0.0,0.0,0.0,0.0,0.0,0.0,0.0,0.0,0.0,0.0,0.0,0.0,0.0,0.0,0.0,0.0,0.0,0.0,0.0,0.0,0.0,0.0,0.0,0.0,0.0,0.0,0.0,0.0,0.0,0.0,0.0,0.0,0.0,0.0,0.0,0.0,0.0,0.0,0.0,0.0,0.0,0.0,0.0,0.0,0.0,0.0,0.0,0.0,0.0,0.0,0.0,0.0,0.0,0.0,0.0,0.0,0.0,0.0,0.0,0.0,0.0,0.0,0.0,0.0,0.0,0.0,0.0,0.0,0.0,0.0,0.0,0.0,0.0,0.0,0.0,0.0,0.0,0.0,0.0,0.0,0.0,0.0,0.0,0.0,0.0,0.0,0.0,0.0,0.0,0.0,0.0,0.0,0.0,0.0,0.6351,0.651,0.749,0.9194,0.7973,0.7521,0.0,0.0,0.0,0.0,0.0,0.0,0.0,0.0,0.0,0.0,0.0,0.0,0.0,0.0,0.0,0.0,0.0,0.0,0.0,0.0,0.0,0.0,0.0,0.0,0.0,0.0,0.0,0.0,0.0,0.0,0.0,0.0,0.0,0.0,0.0,0.0,0.0,0.0,0.0,0.0,0.0,0.0,0.0,0.0,0.0,0.0,0.0,0.0,0.0,0.0,0.0,0.0,0.0,0.0,0.0,0.0,0.0,0.0,0.0,0.0,0.0,0.0,0.0,0.0,0.0,0.0,0.0,0.0,0.0,0.0,0.0,0.0,0.0,0.0,0.0,0.0,0.0,0.0,0.0,0.0,0.0,0.0,0.0,0.0,0.0,0.0,0.0,0.0,0.0,0.0,0.0,0.0,0.0,0.0,0.0,0.0,0.0,0.0,0.0,0.0,0.0,0.0,0.0,0.0,0.0,0.0,0.0,0.0,0.0,0.6074,0.0,0.7921,0.0,0.7854,0.7273,0.0,0.0,0.0,0.0,0.0,0.0,0.0,0.0,0.0,0.0,0.0,0.0,0.0,0.0,0.0,0.0,0.0,0.0,0.0,0.0,0.0,0.0,0.0,0.0,0.0,0.0,0.0,0.0,0.0,0.0,0.0,0.0,0.0,0.0,0.0,0.0,0.0,0.0,0.0,0.0,0.0,0.0,0.0,0.0,0.0,0.0,0.0,0.0,0.0,0.0,0.0,0.0,0.0,0.0,0.0,0.0,0.0,0.0,0.0,0.0,0.0,0.0,0.0,0.0,0.0,0.0,0.0,0.0,0.0,0.0,0.0,0.0,0.0,0.0,0.0,0.0,0.0,0.0,0.0,0.0,0.0,0.0,0.0,0.0,0.0,0.0,0.0,0.0,0.0,0.0,0.0,0.0,0.0,0.0,0.0,0.0,0.0,0.0,0.0,0.0,0.0,0.0,0.0,0.0,0.0,0.0,0.0,0.0,0.5625,0.7774,0.8918,0.8961,0.8078,0.8288,0.7428,0.0,0.0,0.0,0.0,0.0,0.0,0.0,0.0,0.0,0.0,0.0,0.0,0.0,0.0,0.0,0.0,0.0,0.0,0.0,0.0,0.0,0.0,0.0,0.0,0.0,0.0,0.0,0.0,0.0,0.0,0.0,0.0,0.0,0.0,0.0,0.0,0.0,0.0,0.0,0.0,0.0,0.0,0.0,0.0,0.0,0.0,0.0,0.0,0.0,0.0,0.0,0.0,0.0,0.0,0.0,0.0,0.0,0.0,0.0,0.0,0.0,0.0,0.0,0.0,0.0,0.0,0.0,0.0,0.0,0.0,0.0,0.0,0.0,0.0,0.0,0.0,0.0,0.0,0.0,0.0,0.0,0.0,0.0,0.0,0.0,0.0,0.0,0.0,0.0,0.0,0.0,0.0,0.0,0.0,0.0,0.0,0.0,0.0,0.0,0.0,0.0,0.0,0.0,0.0,0.0,0.0,0.0,0.0,0.0,0.7147,0.7963,0.8669,0.9047,0.8052,0.7444,0.0,0.0,0.0,0.0,0.0,0.0,0.0,0.0,0.0,0.0,0.0,0.0,0.0,0.0,0.0,0.0,0.0,0.0,0.0,0.0,0.0,0.0,0.0,0.0,0.0,0.0,0.0,0.0,0.0,0.0,0.0,0.0,0.0,0.0,0.0,0.0,0.0,0.0,0.0,0.0,0.0,0.0,0.0,0.0,0.0,0.0,0.0,0.0,0.0,0.0,0.0,0.0,0.0,0.0,0.0,0.0,0.0,0.0,0.0,0.0,0.0,0.0,0.0,0.0,0.0,0.0,0.0,0.0,0.0,0.0,0.0,0.0,0.0,0.0,0.0,0.0,0.0,0.0,0.0,0.0,0.0,0.0,0.0,0.0,0.0,0.0,0.0,0.0,0.0,0.0,0.0,0.0,0.0,0.0,0.0,0.0,0.0,0.0,0.0,0.0,0.0,0.0,0.0,0.0,0.0,0.0,0.0,0.0,0.0,0.8291,0.8875,0.9298,0.9598,0.8495,0.7973,0.8103,0.0,0.0,0.0,0.0,0.0,0.0,0.0,0.0,0.0,0.0,0.0,0.0,0.0,0.0,0.0,0.0,0.0,0.0,0.0,0.0,0.0,0.0,0.0,0.0,0.0,0.0,0.0,0.0,0.0,0.0,0.0,0.0,0.0,0.0,0.0,0.0,0.0,0.0,0.0,0.0,0.0,0.0,0.0,0.0,0.0,0.0,0.0,0.0,0.0,0.0,0.0,0.0,0.0,0.0,0.0,0.0,0.0,0.0,0.0,0.0,0.0,0.0,0.0,0.0,0.0,0.0,0.0,0.0,0.0,0.0,0.0,0.0,0.0,0.0,0.0,0.0,0.0,0.0,0.0,0.0,0.0,0.0,0.0,0.0,0.0,0.0,0.0,0.0,0.0,0.0,0.0,0.0,0.0,0.0,0.0,0.0,0.0,0.0,0.0,0.0,0.0,0.0,0.0,0.0,0.0,0.0,0.0,0.0,1.0702,1.1122,1.0862,0.9821,0.963,0.8973,0.0,0.0,0.0,0.0,0.0,0.0,0.0,0.0,0.0,0.0,0.0,0.0,0.0,0.0,0.0,0.0,0.0,0.0,0.0,0.0,0.0,0.0,0.0,0.0,0.0,0.0,0.0,0.0,0.0,0.0,0.0,0.0,0.0,0.0,0.0,0.0,0.0,0.0,0.0,0.0,0.0,0.0,0.0,0.0,0.0,0.0,0.0,0.0,0.0,0.0,0.0,0.0,0.0,0.0,0.0,0.0,0.0,0.0,0.0,0.0,0.0,0.0,0.0,0.0,0.0,0.0,0.0,0.0,0.0,0.0,0.0,0.0,0.0,0.0,0.0,0.0,0.0,0.0,0.0,0.0,0.0,0.0,0.0,0.0,0.0,0.0,0.0,0.0,0.0,0.0,0.0,0.0,0.0,0.0,0.0,0.0,0.0,0.0,0.0,0.0,0.0,0.0,0.0,0.0,0.0,0.0,0.0,0.0,0.0,1.0711,1.1619,1.1974,1.1683,1.1306,1.0508,0.0,0.0,0.0,0.0,0.0,0.0,0.0,0.0,0.0,0.0,0.0,0.0,0.0,0.0,0.0,0.0,0.0,0.0,0.0,0.0,0.0,0.0,0.0,0.0,0.0,0.0,0.0,0.0,0.0,0.0,0.0,0.0,0.0,0.0,0.0,0.0,0.0,0.0,0.0,0.0,0.0,0.0,0.0,0.0,0.0,0.0,0.0,0.0,0.0,0.0,0.0,0.0,0.0,0.0,0.0,0.0,0.0,0.0,0.0,0.0,0.0,0.0,0.0,0.0,0.0,0.0,0.0,0.0,0.0,0.0,0.0,0.0,0.0,0.0,0.0,0.0,0.0,0.0,0.0,0.0,0.0,0.0,0.0,0.0,0.0,0.0,0.0,0.0,0.0,0.0,0.0,0.0,0.0,0.0,0.0,0.0,0.0,0.0,0.0,0.0,0.0,0.0,0.0,0.0,0.0,0.0,0.0,0.0,1.0665,1.1701,1.2914,1.3506,1.349,1.257,1.1482,0.0,0.0,0.0,0.0,0.0,0.0,0.0,0.0,0.0,0.0,0.0,0.0,0.0,0.0,0.0,0.0,0.0,0.0,0.0,0.0,0.0,0.0,0.0,0.0,0.0,0.0,0.0,0.0,0.0,0.0,0.0,0.0,0.0,0.0,0.0,0.0,0.0,0.0,0.0,0.0,0.0,0.0,0.0,0.0,0.0,0.0,0.0,0.0,0.0,0.0,0.0,0.0,0.0,0.0,0.0,0.0,0.0,0.0,0.0,0.0,0.0,0.0,0.0,0.0,0.0,0.0,0.0,0.0,0.0,0.0,0.0,0.0,0.0,0.0,0.0,0.0,0.0,0.0,0.0,0.0,0.0,0.0,0.0,0.0,0.0,0.0,0.0,0.0,0.0,0.0,0.0,0.0,0.0,0.0,0.0,0.0,0.0,0.0,0.0,0.0,0.0,0.0,0.0,0.0,0.0,0.0,0.0,0.0,1.1595,1.2987,1.4285,1.4936,1.4877,1.3574,1.223,0.0,0.0,0.0,0.0,0.0,0.0,0.0,0.0,0.0,0.0,0.0,0.0,0.0,0.0,0.0,0.0,0.0,0.0,0.0,0.0,0.0,0.0,0.0,0.0,0.0,0.0,0.0,0.0,0.0,0.0,0.0,0.0,0.0,0.0,0.0,0.0,0.0,0.0,0.0,0.0,0.0,0.0,0.0,0.0,0.0,0.0,0.0,0.0,0.0,0.0,0.0,0.0,0.0,0.0,0.0,0.0,0.0,0.0,0.0,0.0,0.0,0.0,0.0,0.0,0.0,0.0,0.0,0.0,0.0,0.0,0.0,0.0,0.0,0.0,0.0,0.0,0.0,0.0,0.0,0.0,0.0,0.0,0.0,0.0,0.0,0.0,0.0,0.0,0.0,0.0,0.0,0.0,0.0,0.0,0.0,0.0,0.0,0.0,0.0,0.0,0.0,0.0,0.0,0.0,0.0,0.0,0.0,0.0,1.1622,1.2554,1.3393,1.401,1.4458,1.4264,1.3606,0.0,0.0,0.0,0.0,0.0,0.0,0.0,0.0,0.0,0.0,0.0,0.0,0.0,0.0,0.0,0.0,0.0,0.0,0.0,0.0,0.0,0.0,0.0,0.0,0.0,0.0,0.0,0.0,0.0,0.0,0.0,0.0,0.0,0.0,0.0,0.0,0.0,0.0,0.0,0.0,0.0,0.0,0.0,0.0,0.0,0.0,0.0,0.0,0.8708,0.0,0.0,0.0,0.0,0.0,0.0,0.0,0.0,0.0,0.0,0.0,0.0,0.0,0.0,0.0,0.0,0.0,0.0,0.0,0.0,0.0,0.0,0.0,0.0,0.0,0.0,0.0,0.0,0.0,0.0,0.0,0.0,0.0,0.0,0.0,0.0,0.0,0.0,0.0,0.0,0.0,0.0,0.0,0.0,0.0,0.0,0.0,0.0,0.0,0.0,0.0,0.0,0.0,0.0,0.0,0.0,0.0,0.0,0.0,1.2583,1.3321,1.4325,1.5013,1.5259,1.4952,1.4169,0.0,0.0,0.0,0.0,0.0,0.0,0.0,0.0,0.0,0.0,0.0,0.0,0.0,0.0,0.0,0.0,0.0,0.0,0.0,0.0,0.0,0.0,0.0,0.0,0.0,0.0,0.0,0.0,0.0,0.0,0.0,0.0,0.0,0.0,0.0,0.0,0.0,0.0,0.0,0.0,0.0,0.0,0.0,0.0,0.0,0.0,0.0,0.0,0.0,0.0,0.0,0.0,0.0,0.0,0.0,0.0,0.0,0.0,0.0,0.0,0.0,0.0,0.0,0.0,0.0,0.0,0.0,0.0,0.0,0.0,0.0,0.0,0.0,0.0,0.0,0.0,0.0,0.0,0.0,0.0,0.0,0.0,0.0,0.0,0.0,0.0,0.0,0.0,0.0,0.0,0.0,0.0,0.0,0.0,0.0,0.0,0.0,0.0,0.0,0.0,0.0,0.0,0.0,0.0,0.0,0.0,0.0,1.205,1.3532,1.4467,1.5615,1.6202,1.6306,1.5365,1.4299,1.3065,0.0,0.0,0.0,0.0,0.0,0.0,0.0,0.0,0.0,0.0,0.0,0.0,0.0,0.0,0.0,0.0,0.0,0.0,0.0,0.0,0.0,0.0,0.0,0.0,0.0,0.0,0.0,0.0,0.0,0.0,0.0,0.0,0.0,0.0,0.0,0.0,0.0,0.0,0.695,0.8035,0.0,0.0,0.0,0.0,0.0,0.0,0.0,0.0,1.0615,0.0,0.0,0.0,0.0,0.0,0.0,0.0,0.0,0.0,0.0,0.0,0.0,0.0,0.0,0.0,0.0,0.0,0.0,0.0,0.0,0.0,0.0,0.0,0.0,0.0,0.0,0.0,0.0,0.0,0.0,0.0,0.0,0.0,0.0,0.0,0.0,0.0,0.0,0.0,0.0,0.0,0.0,0.0,0.0,0.0,0.0,0.0,0.0,0.0,0.0,0.0,0.0,0.0,0.0,0.0,0.0,1.158,1.1992,1.3072,1.4877,1.508,1.5362,1.5768,1.4919,1.4277,1.3893,0.0,0.0,0.0,0.0,0.0,0.0,0.0,0.0,0.0,0.0,0.0,0.0,0.0,0.0,0.0,0.0,0.0,0.0,0.0,0.0,0.0,0.0,0.0,0.0,0.0,0.0,0.0,0.0,0.0,0.0,0.0,0.0,0.0,0.0,0.0,0.0,0.0,0.0,0.0,0.9395,0.9999,0.0,0.0,0.0,0.0,0.0,0.0,0.0,0.0,1.1041,0.0,0.0,0.0,0.0,0.0,0.0,0.0,0.0,0.0,0.0,0.0,0.0,0.0,0.0,0.0,0.0,0.0,0.0,0.0,0.0,0.0,0.0,0.0,0.0,0.0,0.0,0.0,0.0,0.0,0.0,0.0,0.0,0.0,0.0,0.0,0.0,0.0,0.0,0.0,0.0,0.0,0.0,0.0,0.0,0.0,0.0,0.0,0.0,0.0,0.0,0.0,0.0,0.0,0.0,0.0,1.133,1.2389,1.3758,1.5315,1.5563,1.5788,1.6009,1.4692,1.3903,0.0,0.0,0.0,0.0,0.0,0.0,0.0,0.0,0.0,0.0,0.0,0.0,0.0,0.0,0.0,0.0,0.0,0.0,0.0,0.0,0.0,0.0,0.0,0.0,0.0,0.0,0.0,0.0,0.0,0.0,0.0,0.0,0.0,0.0,0.0,0.0,0.0,0.0,0.0,0.0,0.973,1.0295,1.0325,0.0,0.0,0.0,0.0,0.0,0.0,1.1964,1.2088,0.0,0.0,0.0,0.0,0.0,0.0,0.0,0.0,0.0,0.0,0.0,0.0,0.0,0.0,0.0,0.0,0.0,0.0,0.0,0.0,0.0,0.0,0.0,0.0,0.0,0.0,0.0,0.0,0.0,0.0,0.0,0.0,0.0,0.0,0.0,0.0,0.0,0.0,0.0,0.0,0.0,0.0,0.0,0.0,0.0,0.0,0.0,0.0,0.0,0.0,0.0,0.0,0.0,0.0,0.0,1.1095,1.2819,1.4365,1.5786,1.6202,1.6374,1.6343,1.4769,1.3789,0.0,0.0,0.0,0.0,0.0,0.0,0.0,0.0,0.0,0.0,0.0,0.0,0.0,0.0,0.0,0.0,0.0,0.0,0.0,0.0,0.0,0.0,0.0,0.0,0.0,0.0,0.0,0.0,0.0,0.0,0.0,0.0,0.0,0.0,0.0,0.0,0.0,0.0,0.0,0.0,0.0,1.0562,1.0946,1.107,0.0,0.0,0.0,0.0,1.3032,1.3302,0.0,0.0,0.0,0.0,0.0,0.0,0.0,0.0,0.0,0.0,0.0,0.0,0.0,0.0,0.0,0.0,0.0,0.0,0.0,0.0,0.0,0.0,0.0,0.0,0.0,0.0,0.0,0.0,0.0,0.0,0.0,0.0,0.0,0.0,0.0,0.0,0.0,0.0,0.0,0.0,0.0,0.0,0.0,0.0,0.0,0.0,0.0,0.0,0.0,0.0,0.0,0.0,0.0,0.0,0.0,0.0,1.1691,1.2839,1.4307,1.6213,1.6374,1.6374,1.6353,1.538,1.439,0.0,0.0,0.0,0.0,0.0,0.0,0.0,0.0,0.0,0.0,0.0,0.0,0.0,0.0,0.0,0.0,0.0,0.0,0.0,0.0,0.0,0.0,0.0,0.0,0.0,0.0,0.0,0.0,0.0,0.0,0.0,0.0,0.0,0.0,0.0,0.0,0.0,0.0,0.0,0.0,0.0,1.1227,1.0715,1.1327,1.1804,0.0,0.0,1.3195,1.4083,1.4457,0.0,0.0,0.0,0.0,0.0,0.0,0.0,0.0,0.0,0.0,0.0,0.0,0.0,0.0,0.0,0.0,0.0,0.0,0.0,0.0,0.0,0.0,0.0,0.0,0.0,0.0,0.0,0.0,0.0,0.0,0.0,0.0,0.0,0.0,0.0,0.0,0.0,0.0,0.0,0.0,0.0,0.0,0.0,0.0,0.0,0.0,0.0,0.0,0.0,0.0,0.0,0.0,0.0,0.0,0.0,0.9698,1.2222,1.336,1.4722,1.6312,1.6374,1.6374,1.6363,1.4976,1.3788,0.0,0.0,0.0,0.0,0.0,0.0,0.0,0.0,0.0,0.0,0.0,0.0,0.0,0.0,0.0,0.0,0.0,0.0,0.0,0.0,0.0,0.0,0.0,0.0,0.0,0.0,0.0,0.0,0.0,0.0,0.0,0.0,0.0,0.0,0.0,0.0,0.0,0.0,0.0,0.0,0.0,0.0,1.2043,1.2806,0.0,0.0,0.0,1.5094,1.4936,0.0,0.0,0.0,0.0,0.0,0.0,0.0,0.0,0.0,0.0,0.0,0.0,0.0,0.0,0.0,0.0,0.0,0.0,0.0,0.0,0.0,0.0,0.0,0.0,0.0,0.0,0.0,0.0,0.0,0.0,0.0,0.0,0.0,0.0,0.0,0.0,0.0,0.0,0.0,0.0,0.0,0.0,0.0,0.0,0.0,0.0,0.0,0.0,0.0,0.0,0.0,0.0,0.0,0.0,0.0,0.0,0.0,1.2625,1.3922,1.5161,1.6332,1.6374,1.6322,1.6187,1.479,0.0,0.0,0.0,0.0,0.0,0.0,0.0,0.0,0.0,0.0,0.0,0.0,0.0,0.0,0.0,0.0,0.0,0.0,0.0,0.0,0.0,0.0,0.0,0.0,0.0,0.0,0.0,0.4906,0.0,0.0,0.0,0.0,0.0,0.0,0.0,0.0,0.0,0.0,0.0,0.0,0.0,0.0,1.2879,1.33,1.4292,1.4994,0.0,0.0,1.6759,1.5978,1.6778,1.696,0.0,0.0,0.0,0.0,0.0,0.0,0.0,0.0,0.0,0.0,0.0,0.0,0.0,0.0,0.0,0.0,0.0,0.0,0.0,0.0,0.0,0.0,0.0,0.0,0.0,0.0,0.0,0.0,0.0,0.0,0.0,0.0,0.0,0.0,0.0,0.0,0.0,0.0,0.0,0.0,0.0,0.0,0.0,0.0,0.0,0.0,0.0,0.0,0.0,0.0,0.0,0.0,0.0,0.0,0.0,1.283,1.4243,1.5442,1.6332,1.6374,1.6223,1.5742,1.5448,1.4196,0.0,0.0,0.0,0.0,0.0,0.0,0.0,0.0,0.0,0.0,0.0,0.0,0.0,0.0,0.0,0.0,0.0,0.0,0.0,0.0,0.0,0.0,0.0,0.0,0.0,0.0,0.0,0.0,0.0,0.0,0.0,0.0,0.0,0.0,0.0,0.0,0.0,0.0,0.0,0.0,0.0,1.3308,1.4016,1.5204,1.616,0.0,0.0,1.7571,1.7531,1.8228,1.8081,1.6007,0.0,0.0,0.0,0.0,0.0,0.0,0.0,0.0,0.0,0.0,0.0,0.0,0.0,0.0,0.0,0.0,0.0,0.0,0.0,0.0,0.0,0.0,0.0,0.0,0.0,0.0,0.0,0.0,0.0,0.0,0.0,0.0,0.0,0.0,0.0,0.0,0.0,0.0,0.0,0.0,0.0,0.0,0.0,0.0,0.0,0.0,0.0,0.0,0.0,0.0,0.0,0.0,0.0,1.073,1.3264,1.4438,1.5452,1.6332,1.6374,1.6291,1.6115,1.5487,1.4366,0.0,0.0,0.0,0.0,0.0,0.0,0.0,0.0,0.0,0.0,0.0,0.0,0.0,0.0,0.0,0.0,0.0,0.0,0.0,0.0,0.0,0.0,0.0,0.0,0.0,0.0,0.0,0.0,0.7149,0.7475,0.7475,0.0,0.0,0.0,0.0,0.0,0.0,0.0,0.0,0.0,0.0,1.4479,1.5618,1.6639,0.0,0.0,1.8764,1.9231,1.8944,1.868,1.8104,1.6719,1.5815,0.0,0.0,0.0,0.0,0.0,0.0,0.0,0.0,0.0,0.0,0.0,0.0,0.0,0.0,0.0,0.0,0.0,0.0,0.0,0.0,0.0,0.0,0.0,0.0,0.0,0.0,0.0,0.0,0.0,0.0,0.0,0.0,0.0,0.0,0.0,0.0,0.0,0.0,0.0,0.0,0.0,0.0,0.0,0.0,0.0,0.0,0.0,0.0,0.0,0.0,0.0,0.0,1.0984,1.3542,1.4521,1.5452,1.6363,1.6374,1.6312,1.6167,1.5465,1.4545,0.0,0.0,0.0,0.0,0.0,0.0,0.0,0.0,0.0,0.0,0.0,0.0,0.0,0.0,0.0,0.0,0.0,0.0,0.0,0.0,0.0,0.0,0.0,0.0,0.0,0.0,0.0,0.0,0.774,0.786,0.7749,0.0,0.0,0.0,0.0,0.0,0.0,0.0,0.0,0.0,0.0,1.5878,1.7104,1.8054,1.886,1.9358,2.0018,2.0288,1.9929,1.9339,1.8599,1.7379,0.0,0.0,0.0,0.0,0.0,0.0,0.0,0.0,0.0,0.0,0.0,0.0,0.0,0.0,0.0,0.0,0.0,0.0,0.0,0.0,0.0,0.0,0.0,0.0,0.0,0.0,0.0,0.0,0.0,0.0,0.1798,0.0,0.0,0.0,0.0,0.0,0.0,0.0,0.0,0.0,0.0,0.0,0.0,0.0,0.0,0.0,0.0,0.0,0.0,0.0,0.0,0.0,0.0,1.1304,1.3589,1.4542,1.5452,1.6343,1.6374,1.6167,1.5742,1.55,1.4744,1.335,0.0,0.0,0.0,0.0,0.0,0.0,0.0,0.0,0.0,0.0,0.0,0.0,0.0,0.0,0.0,0.0,0.0,0.0,0.0,0.0,0.0,0.0,0.0,0.0,0.0,0.0,0.7817,0.7903,0.7818,0.0,0.0,0.0,0.0,0.0,0.0,0.0,0.0,0.0,0.0,1.5907,1.7533,1.8312,1.9421,2.0331,2.0748,2.0642,2.038,2.038,2.0308,1.9779,0.0,0.0,0.0,0.0,0.0,0.0,0.0,0.0,0.0,0.0,0.0,0.0,0.0,0.0,0.0,0.0,0.0,0.0,0.0,0.0,0.0,0.0,0.0,0.0,0.0,0.0,0.0,0.3124,0.2188,0.0,0.0,0.0,0.0,0.0,0.0,0.0,0.0,0.0,0.0,0.0,0.8823,0.9489,0.0,0.0,0.0,0.0,0.0,0.0,0.0,0.0,0.0,0.0,0.0,0.0,1.1789,1.3993,1.4987,1.5753,1.6353,1.6374,1.6301,1.6146,1.5964,1.5164,1.3673,0.0,0.0,0.0,0.0,0.0,0.0,0.0,0.0,0.0,0.0,0.0,0.0,0.0,0.0,0.0,0.0,0.0,0.0,0.0,0.0,0.0,0.0,0.0,0.0,0.0,0.8033,0.0,0.0,0.0,0.0,0.0,0.0,0.0,0.0,0.0,0.0,0.0,1.3987,1.6179,1.718,1.8276,1.9822,2.0654,2.1181,0.0,0.0,0.0,0.0,0.0,0.0,0.0,0.0,0.0,0.0,0.0,0.0,0.0,0.0,2.0048,1.7326,1.6378,1.612,1.6265,0.0,0.0,0.0,0.0,0.0,0.0,0.0,0.0,0.0,0.0,0.0,0.0,0.0,0.0,0.4014,0.0,0.2957,0.0,0.0,0.0,0.0,0.0,0.0,0.0,0.0,0.9092,0.9826,1.0214,1.0799,1.0912,0.0,1.0458,0.9688,0.0,0.0,0.0,0.0,0.0,0.0,0.0,0.0,1.2263,1.4252,1.5214,1.5918,1.6353,1.6374,1.6374,1.6363,1.6295,1.5628,1.4449,1.3588,1.2705,0.0,0.0,0.0,0.0,0.0,0.0,0.0,0.0,0.0,0.0,0.0,0.0,0.0,0.0,0.0,0.0,0.0,0.0,0.0,0.0,0.0,0.0,0.0,0.8828,0.0,0.0,0.0,0.0,0.0,0.0,0.0,0.0,0.0,1.366,1.4469,1.5939,1.8164,1.9012,1.9944,2.1575,0.0,0.0,0.0,0.0,0.0,0.0,0.0,2.0613,2.0834,2.0441,2.0141,2.042,2.1476,2.218,2.1859,0.0,0.0,1.9665,1.8796,1.8376,1.8334,1.8407,1.8288,1.7614,1.7871,1.8076,0.0,0.0,0.0,0.0,0.0,0.0,0.0,0.0,0.4181,0.5002,0.0,0.4682,0.0,0.0,0.0,0.0,0.0,0.7957,0.0,0.0,1.0573,1.1331,1.1514,1.1447,1.1652,1.205,1.2043,1.1911,1.1559,0.9687,0.0,0.0,0.0,0.0,0.0,0.0,1.2819,1.4346,1.5339,1.598,1.6384,1.6405,1.6394,1.642,1.6459,1.6192,1.556,1.5267,1.4465,1.3007,1.1974,0.0,0.0,0.0,0.0,0.0,0.0,0.0,0.0,0.0,0.0,0.0,0.0,0.0,0.0,0.0,0.0,0.0,0.0,0.0,0.0,0.9275,0.0,0.0,0.0,0.0,0.0,0.0,0.0,0.0,0.0,0.0,1.5341,1.6899,1.8759,2.0004,0.0,0.0,0.0,0.0,2.4007,2.4445,2.4138,2.3689,2.3281,2.3238,2.2836,2.2018,0.0,0.0,2.2045,2.2625,2.2946,2.2076,2.2687,2.3225,2.3163,2.1973,2.1046,2.0881,2.0147,1.9399,1.8997,1.9765,2.0426,0.5506,0.0,0.0,0.0,0.0,0.5385,0.5779,0.6103,0.7188,0.7947,0.8502,0.7438,0.0,0.0,0.0,0.0,0.0,0.0,0.9851,1.0514,1.1386,1.1962,1.2255,1.3194,1.3592,1.3512,1.3512,1.3443,1.3291,1.2714,1.1559,0.9935,0.0,0.0,0.0,0.0,1.4592,1.5773,1.6684,1.7046,1.685,1.685,1.6753,1.6658,1.6558,1.6499,1.6461,1.6303,1.5659,1.4522,1.3857,0.0,0.0,0.0,0.0,0.0,0.0,0.0,0.0,0.0,0.0,0.0,0.0,0.0,0.0,0.0,0.0,0.0,0.0,0.0,0.9293,0.9512,0.9934,0.0,0.0,0.0,0.0,0.0,0.0,0.0,0.0,0.0,1.9331,2.0058,2.0857,0.0,0.0,2.3466,2.4151,2.4538,2.4763,2.4555,2.4697,0.0,0.0,2.363,2.3364,2.3646,2.3919,2.4064,2.3805,2.3971,2.4064,2.3784,2.3971,2.4157,2.4095,2.3318,2.2608,2.2521,2.2171,2.1794,2.1729,2.1759,2.1806,0.7127,0.6565,0.6618,0.6424,0.609,0.6961,0.7464,0.7739,0.8619,0.9237,0.9403,0.8766,0.8414,0.8297,0.8264,0.0,0.0,0.0,1.1175,1.1767,1.2557,1.2963,1.2889,1.4068,1.4346,1.3893,1.3885,1.3876,1.3991,1.4326,1.3562,1.1835,0.0,0.0,1.3557,1.4695,1.5725,1.6643,1.7296,1.7595,1.7265,1.708,1.703,1.7048,1.6894,1.6917,1.7176,1.7031,1.6646,1.6026,1.5154,1.4029,0.0,0.0,0.0,0.0,0.0,0.0,0.0,0.0,0.0,0.0,0.0,0.7109,0.0,0.0,0.0,0.0,0.8424,0.9703,1.0403,1.0891,0.0,0.0,0.0,0.0,0.0,0.0,0.0,1.8665,2.0333,2.1675,2.2377,2.3245,2.3748,2.3834,2.4159,2.4722,2.5449,0.0,2.5697,2.5596,2.5842,2.5839,2.5367,2.484,2.461,2.502,2.5019,2.4956,2.4786,2.4786,2.47,2.455,2.455,2.455,2.455,2.4084,2.3639,2.34,2.3173,2.3001,2.2734,2.2766,2.2853,0.8955,0.8814,0.8881,0.8422,0.772,0.8601,0.9011,0.9123,0.9199,0.9381,0.9511,0.9265,0.9347,0.9679,1.0265,0.0,1.1853,1.2184,1.2512,1.2869,1.3917,1.405,1.3459,1.4434,1.4505,1.3857,1.3857,1.4053,1.4375,1.5051,1.5016,1.4438,1.4952,1.5438,1.5878,1.6108,1.6457,1.709,1.7554,1.776,1.7781,1.7276,1.7197,1.745,1.7313,1.7323,1.7578,1.7463,1.7335,1.7272,1.5923,1.4936,1.435,0.0,0.0,0.0,0.0,0.0,0.0,0.0,0.0,0.0,0.0,0.0,0.0,0.0,0.0,0.0,1.0355,0.0,1.1954,1.2952,0.0,0.0,0.0,1.5631,1.6141,1.9257,2.1268,2.0843,0.0,0.0,2.4563,2.5968,2.6787,2.5997,2.5835,2.6175,2.7105,2.6818,2.6691,2.7023,2.7126,2.7056,2.6521,2.6427,2.6168,2.583,2.5895,2.5728,2.5295,2.5189,2.5031,2.4625,2.455,2.455,2.455,2.4509,2.4282,2.3714,2.357,2.3396,2.2824,2.3115,2.358,1.0042,0.9253,1.0835,1.0649,0.925,0.9968,1.0232,1.0285,1.0926,1.1268,1.145,1.1242,1.1359,1.1783,1.211,1.2447,1.2822,1.2966,1.3033,1.3106,1.3546,1.4073,1.4689,1.5667,1.6454,1.7072,1.7063,1.7093,1.7224,1.737,1.7198,1.6797,1.7503,1.7197,1.5906,1.7046,1.7818,1.8061,1.8516,1.8578,1.8226,1.7802,1.7409,1.7106,1.7355,1.7226,1.684,1.6964,1.6797,1.6256,1.59,1.5315,1.4419,1.2609,0.0,0.0,0.0,0.0,0.0,0.0,0.0,0.0,0.0,0.9715,0.7253,0.0,1.0276,0.0,1.1807,1.3214,1.3814,1.4078,0.0,0.0,1.6426,1.6999,1.9792,2.0371,2.1215,2.2943,2.3953,2.4716,2.5365,2.5854,2.6351,2.6775,2.685,2.6955,2.7196,2.7139,2.7082,2.7196,2.7231,2.7149,2.7056,2.6704,2.6373,2.5979,2.5895,2.5728,2.5285,2.52,2.5041,2.4615,2.455,2.455,2.455,2.455,2.4454,2.4272,2.4282,2.4186,2.4003,2.41,2.4292,1.1488,1.088,1.2357,1.2439,1.1586,1.168,1.168,1.1592,1.2182,1.2525,1.2562,1.2631,1.2801,1.3002,1.3287,1.3434,1.3594,1.3601,1.3601,1.3601,1.4149,1.462,1.5192,1.6183,1.6953,1.7495,1.7635,1.7635,1.7701,1.8026,1.8064,1.7843,1.8783,1.835,1.6788,1.7885,1.8375,1.8081,1.8731,1.894,1.8671,1.8061,1.7441,1.6997,1.7143,1.681,1.6019,1.651,1.6425,1.567,1.5557,1.5247,1.463,1.317,1.235,0.0,0.0,0.0,0.0,0.0,0.0,0.0,0.0,0.0,0.0,0.0,1.1549,1.1755,1.3598,1.5096,1.5991,1.6442,1.7523,1.9484,1.9,1.9481,2.2007,2.2241,2.2868,2.4554,2.5107,2.5628,2.6318,2.6445,2.661,2.7138,2.7231,2.7231,2.7231,2.7231,2.7231,2.7231,2.7231,2.7231,2.7231,2.6974,2.6704,2.6561,2.649,2.6229,2.5633,2.5549,2.5295,2.4711,2.455,2.455,2.455,2.455,2.455,2.455,2.455,2.455,2.455,2.455,2.455,1.2887,1.2795,1.3585,1.3848,1.3756,1.342,1.312,1.279,1.3052,1.3228,1.3319,1.3659,1.3684,1.3721,1.3968,1.4088,1.4088,1.4088,1.4088,1.4166,1.4908,1.524,1.538,1.6317,1.6793,1.6869,1.7165,1.7316,1.7316,1.8088,1.8453,1.8481,1.9238,1.9005,1.7775,1.8399,1.8436,1.7784,1.8586,1.9008,1.9121,1.8181,1.7472,1.708,1.6859,1.6314,1.5456,1.6072,1.6114,1.5359,1.5167,1.5001,1.4833,1.3645,1.3096,0.0,1.2395,0.0,0.0,0.0,0.0,0.0,0.0,0.0,0.0,1.3032,1.3352,1.3855,1.5613,1.7153,1.8106,1.9134,2.0264,2.1534,2.1675,2.209,2.3335,2.422,2.5042,2.587,2.6704,2.7231,2.7138,2.7231,2.7149,2.7231,2.7231,2.7231,2.7231,2.7231,2.7231,2.7231,2.7231,2.7231,2.7231,2.7149,2.7149,2.7149,2.7149,2.6891,2.6146,2.5979,2.5728,2.4882,2.4711,2.4625,2.4625,2.454,2.455,2.455,2.455,2.455,2.455,2.455,2.455,1.3868,1.2933,1.4237,1.4612,1.4428,1.4346,1.3899,1.3307,1.3313,1.3483,1.3652,1.3913,1.3971,1.4008,1.4062,1.4088,1.4088,1.4088,1.4088,1.4088,1.425,1.488,1.5786,1.6024,1.6726,1.7792,1.8513,1.8828,1.8906,1.9695,1.9918,1.958,1.972,1.8901,1.7239,0.0,0.0,0.0,1.8337,1.8674,1.9065,1.8044,1.7514,1.7564,1.6769,0.0,1.5436,1.5529,1.5472,1.517,1.5044,0.0,0.0,0.0,0.0,0.0,0.0,0.0,0.0,0.0,0.0,0.0,1.5166,1.4939,1.5423,1.6727,1.7041,1.5947,1.7794,1.9114,1.9182,1.9598,2.0439,2.1974,2.1986,2.265,2.4777,2.5176,2.5742,2.6775,2.7067,2.7231,2.7231,2.7231,2.7231,2.7231,2.7231,2.7231,2.7231,2.7231,2.7231,2.7231,2.7231,2.7231,2.7231,2.7231,2.7231,2.7231,2.7231,2.6974,2.6539,2.6373,2.6207,2.5644,2.5295,2.5031,2.5031,2.4786,2.455,2.455,2.455,2.455,2.455,2.455,2.455,1.3742,0.0,1.4495,1.4957,0.0,1.4777,1.4523,1.4154,1.3924,1.3867,1.3913,1.4004,1.4088,1.4088,1.4088,1.4088,1.4088,1.4088,1.4088,1.4088,1.4088,1.4657,1.5711,1.5876,1.6609,1.7666,1.8327,1.8647,1.8647,1.9125,1.9173,1.8971,1.8971,1.8142,1.6619,1.6885,1.7258,1.7535,1.7605,1.7696,1.7959,1.7706,1.7439,1.7294,0.0,0.0,0.0,0.0,0.0,0.0,0.0,0.0,0.0,0.0,0.0,1.4159,1.416,1.4535,1.5349,1.5604,1.6255,1.7466,1.8016,1.7793,1.6675,1.7656,1.806,1.7596,1.912,2.0283,2.0307,2.094,2.1901,2.3228,2.3278,2.388,2.5619,2.5997,2.6351,2.6974,2.7231,2.7231,2.7231,2.7231,2.7231,2.7231,2.7231,2.7231,2.7231,2.7231,2.7231,2.7231,2.7231,2.7231,2.7231,2.7231,2.7231,2.7231,2.7231,2.6974,2.6622,2.6528,2.6362,2.5979,2.5549,2.52,2.52,2.4786,2.455,2.455,2.455,2.455,2.455,2.455,2.455,1.3146,1.3341,1.4462,1.4845,1.4936,1.5117,1.5084,1.5017,0.0,0.0,0.0,1.4242,1.4242,1.4249,1.4242,1.4242,1.4235,1.4188,1.4168,1.4162,1.4115,1.4489,1.5228,1.5553,1.6116,1.6935,1.7432,1.7764,1.7755,1.7917,1.7997,1.7997,1.7997,1.7443,1.6341,1.5936,1.6,1.6433,1.6715,1.6866,1.6932,1.7159,1.7191,1.689,1.6767,1.6355,1.568,1.565,1.5123,1.4107,1.4321,1.4372,1.4105,1.4194,1.4771,1.5831,1.5923,1.6351,1.7405,1.7512,1.792,1.8776,1.9895,1.9611,1.7512,1.8136,1.8616,1.8768,1.9938,2.079,2.1062,2.1873,2.2872,2.3973,2.4317,2.4914,2.6185,2.6528,2.6787,2.7138,2.7231,2.7231,2.7231,2.7231,2.7231,2.7231,2.7231,2.7231,2.7231,2.7231,2.7231,2.7231,2.7231,2.7231,2.7231,2.7231,2.7231,2.7231,2.7231,2.7056,2.6704,2.661,2.6456,2.6135,2.5633,2.538,2.5189,2.4775,2.454,2.455,2.455,2.455,2.455,2.4526,2.4654,1.2294,1.2923,1.3987,1.438,1.4469,1.5328,1.5565,1.5317,1.5023,1.4877,1.4843,1.4843,1.4843,1.4836,1.4843,1.4836,1.483,1.4583,1.4462,0.0,1.4202,1.4243,1.4559,1.4643,1.4901,1.5409,1.6229,1.6706,1.6944,1.7594,1.7997,1.7997,1.7997,1.756,1.6603,1.5579,1.5085,1.5178,1.608,1.6661,1.6872,1.6358,1.6291,1.676,1.5928,1.544,1.5415,1.5467,1.5378,1.52,1.5228,1.5105,1.47,1.4918,1.4993,1.4985,1.5765,1.6581,1.7179,1.7488,1.8015,1.8806,1.895,1.8931,1.9049,2.0127,2.0517,1.9669,2.0038,2.0395,2.0486,2.0881,2.1624,2.2658,2.3617,2.4638,2.5746,2.6539,2.7056,2.7138,2.7231,2.7231,2.7231,2.7231,2.7231,2.7231,2.7231,2.7231,2.7231,2.7231,2.7231,2.7231,2.7231,2.7231,2.7231,2.7231,2.7231,2.7231,2.7138,2.7149,2.6974,2.6974,2.6798,2.6456,2.6052,2.5633,2.5285,2.4786,2.456,2.4571,2.4602,2.4592,2.4633,2.4902,2.5016,1.193,1.2829,1.3806,1.4586,1.5153,1.5642,1.5752,1.5618,1.5491,1.5251,1.5066,1.506,1.506,1.506,1.5273,1.5266,1.4957,1.4823,1.4763,1.4736,1.4462,1.4401,1.446,1.4396,1.4482,1.4741,1.5409,1.5741,1.5891,1.6386,1.655,1.655,1.655,1.6386,1.5974,1.5434,1.5034,1.494,1.5697,1.6005,1.5927,1.6366,1.6625,1.6692,1.6287,1.6067,1.6139,1.5914,1.5666,1.5423,1.5604,1.5566,1.5361,1.5679,1.5848,1.5908,1.637,1.6897,1.7322,1.7873,1.8355,1.8714,1.9048,1.9316,1.9556,2.0101,2.0325,2.0107,2.0558,2.0826,2.0564,2.0916,2.1516,2.2306,2.2999,2.378,2.4723,2.583,2.6434,2.6528,2.688,2.7231,2.7231,2.7231,2.7231,2.7231,2.7231,2.7231,2.7231,2.7231,2.7231,2.7231,2.7231,2.7231,2.7231,2.7231,2.7231,2.7231,2.6974,2.688,2.6798,2.6787,2.6622,2.6302,2.5979,2.5728,2.5295,2.4786,2.4633,2.4892,2.4923,2.4974,2.5213,2.5451,2.5482,1.196,1.3039,1.3908,1.4873,1.5825,1.5825,1.5825,1.5825,1.5825,1.5578,1.519,1.5157,1.5157,1.5255,1.5581,1.5575,1.5241,1.509,1.5064,1.5037,1.4756,1.4623,1.4589,1.4473,1.4423,1.4494,1.479,1.4999,1.5006,1.5166,1.5257,1.5347,1.5347,1.5431,1.5431,1.5431,1.5216,1.505,1.551,1.5559,1.515,1.6326,1.6837,1.6608,1.6733,1.6784,1.6766,1.6471,1.6115,1.5797,1.5987,1.6079,1.6045,1.6323,1.658,1.6852,1.6894,1.7096,1.7547,1.8254,1.8665,1.8853,1.9401,1.9778,1.9864,1.9864,1.9975,2.0322,2.0727,2.0916,2.0736,2.1006,2.1516,2.1961,2.2296,2.2911,2.3694,2.4713,2.54,2.5484,2.6102,2.6539,2.6787,2.688,2.6962,2.7149,2.7231,2.7231,2.7231,2.7231,2.7231,2.7231,2.7231,2.7231,2.7231,2.7231,2.7231,2.7231,2.6962,2.6704,2.661,2.6528,2.6279,2.5884,2.5717,2.554,2.5253,2.4964,2.4902,2.5254,2.5378,2.5502,2.5906,2.6009,2.5968,1.2483,1.3676,1.4118,1.4873,1.573,1.5825,1.5825,1.5825,1.5825,1.5805,1.5718,1.5752,1.5732,1.5752,1.5738,1.5718,1.5705,1.5478,1.5351,1.5324,1.5057,1.4923,1.4897,1.4616,1.4649,1.4795,1.4633,1.4587,1.4734,1.4817,1.4915,1.509,1.534,1.5431,1.5431,1.5431,1.5416,1.5387,1.5846,1.5756,1.5134,1.5948,1.6329,1.6371,1.6698,1.6914,1.6836,1.6871,1.677,1.6788,1.6779,1.6764,1.6766,1.6773,1.674,1.6797,1.6774,1.7032,1.7763,1.8287,1.8896,1.9555,1.9604,1.9809,2.009,2.0232,2.024,2.0292,2.0382,2.0374,2.0382,2.0464,2.0645,2.0997,2.1606,2.2217,2.2561,2.3414,2.4018,2.4221,2.4478,2.4723,2.5652,2.5913,2.6257,2.688,2.688,2.6974,2.7149,2.7138,2.7149,2.7149,2.7149,2.7149,2.7149,2.7231,2.7149,2.7149,2.7138,2.688,2.6622,2.6445,2.6279,2.5454,2.5295,2.5338,2.5246,2.5181,2.5295,2.5699,2.5875,2.5978,2.6372,2.6506,2.6392,1.3044,1.413,1.4208,1.4873,1.5737,1.5825,1.5825,1.5825,1.5825,1.5825,1.5825,1.5825,1.5825,1.5825,1.5825,1.5825,1.5818,1.5705,1.5651,1.5625,1.5351,1.5217,1.519,1.4923,1.4784,1.4703,1.4654,1.4668,1.4594,1.465,1.4831,1.509,1.5173,1.5264,1.5431,1.5431,1.5431,1.5431,1.559,1.5546,1.536,1.5866,1.6137,1.5952,1.6081,1.6234,1.6463,1.631,1.6234,1.648,1.65,1.646,1.6468,1.6636,1.6758,1.6774,1.6932,1.7111,1.7492,1.8059,1.8521,1.8831,1.9044,1.9232,1.9355,1.9379,1.9379,1.9471,1.9928,2.0292,2.0292,2.0292,2.0382,2.0473,2.0907,2.1257,2.1347,2.2296,2.2989,2.3096,2.3597,2.4029,2.4532,2.4617,2.4967,2.5568,2.5841,2.6041,2.6633,2.6798,2.688,2.7056,2.6974,2.6787,2.6787,2.6787,2.6798,2.6787,2.6787,2.6622,2.6302,2.6135,2.5884,2.4967,2.5094,2.5198,2.5228,2.5275,2.5409,2.5989,2.6568,2.6765,2.6941,2.6982,2.6868,1.3703,1.4675,1.4675,1.5159,1.5832,1.5825,1.5825,1.5825,1.5825,1.5825,1.5825,1.5825,1.5825,1.5825,1.5825,1.5825,1.5825,1.5825,1.5825,1.5805,1.5611,1.5511,1.5491,1.5217,1.497,1.4776,1.4865,1.4756,1.447,1.4698,1.4832,1.4929,1.4741,1.4908,1.5257,1.509,1.509,1.5347,1.5431,1.5431,1.5477,1.5761,1.5911,1.5779,1.5827,1.6062,1.6374,1.6062,1.6054,1.639,1.6381,1.6357,1.6365,1.644,1.6531,1.6565,1.6877,1.7196,1.7282,1.7929,1.8343,1.8454,1.8692,1.8827,1.8827,1.8827,1.8827,1.8819,1.9471,1.992,2.0102,2.011,2.0192,2.0292,2.0473,2.0564,2.0654,2.1347,2.1872,2.1961,2.2385,2.3066,2.3414,2.3684,2.4135,2.4623,2.4911,2.5242,2.6168,2.6528,2.668,2.7084,2.6734,2.6456,2.6445,2.6362,2.6362,2.6528,2.6528,2.6456,2.6023,2.5983,2.5764,2.5293,2.5251,2.5427,2.5737,2.574,2.5782,2.6517,2.7003,2.721,2.72,2.7347,2.7347,1.4777,1.5635,1.573,1.573,1.5825,1.5825,1.5825,1.5825,1.5825,1.5825,1.5825,1.5825,1.5825,1.5825,1.5825,1.5825,1.5825,1.5825,1.5825,1.5825,1.5798,1.5798,1.5792,1.5518,1.5364,1.5264,1.514,1.479,1.4509,1.4683,1.4706,1.4426,1.3815,1.4062,1.4824,1.4307,1.4307,1.5166,1.5264,1.5347,1.5347,1.5318,1.5538,1.5906,1.6429,1.6553,1.6659,1.6675,1.6667,1.6675,1.6593,1.6609,1.6624,1.6327,1.608,1.6048,1.6628,1.7201,1.7535,1.801,1.8356,1.8632,1.8611,1.8735,1.8643,1.8643,1.8635,1.8735,1.8735,1.9004,1.9463,1.9554,1.9737,2.011,2.0292,2.0292,2.0292,2.0382,2.0555,2.0736,2.0997,2.1526,2.2306,2.324,2.369,2.4213,2.4892,2.5553,2.6045,2.6454,2.6777,2.6856,2.6539,2.6074,2.6385,2.6207,2.6218,2.639,2.6529,2.6462,2.6334,2.6138,2.584,2.5616,2.5618,2.5851,2.637,2.6568,2.6672,2.6982,2.7127,2.7262,2.7272,2.7272,2.7272,1.5452,1.5825,1.5825,1.5825,1.5825,1.5635,1.5635,1.5737,1.5635,1.5737,1.5832,1.5825,1.5825,1.5825,1.5825,1.5825,1.5825,1.5825,1.5825,1.5825,1.5825,1.5825,1.5818,1.5718,1.5565,1.5398,1.5291,1.4715,1.3823,1.3261,1.3212,1.351,1.2847,1.32,1.4432,1.3957,1.3704,1.4139,1.4398,1.4307,1.3795,1.3977,1.4237,1.4405,1.5325,1.6004,1.6327,1.6004,1.6004,1.6335,1.5997,1.5839,1.5861,1.5965,1.6041,1.6279,1.6684,1.7004,1.713,1.7507,1.7665,1.7863,1.7792,1.7885,1.7893,1.7792,1.7792,1.7885,1.7885,1.8071,1.8542,1.8912,1.9196,1.9279,1.9371,1.9554,1.9737,1.9828,2.0011,2.0283,2.0473,2.0645,2.0997,2.1338,2.211,2.3265,2.382,2.4675,2.5999,2.6544,2.6637,2.6693,2.6303,2.5916,2.6076,2.6059,2.6056,2.6477,2.6716,2.6904,2.6887,2.6846,2.6614,2.5936,2.5896,2.6144,2.6537,2.6858,2.7044,2.7127,2.7272,2.7272,2.7272,2.7272,2.7272,1.5825,1.5825,1.5825,1.5825,1.5737,1.5635,1.5635,1.5832,1.5635,1.5635,1.5832,1.5825,1.5825,1.5825,1.5825,1.5825,1.5825,1.5825,1.5825,1.5825,1.5825,1.5825,1.5825,1.5825,1.5543,1.4997,1.4678,1.3963,1.3084,1.2324,1.229,1.2779,1.1869,1.2231,1.3485,1.3021,1.2638,1.3004,1.3328,1.3212,1.2607,1.2778,1.2954,1.3039,1.3802,1.4643,1.5159,1.4915,1.4915,1.5166,1.4915,1.4797,1.4909,1.5287,1.5676,1.6156,1.6464,1.682,1.7033,1.7208,1.7225,1.6951,1.7145,1.7232,1.7037,1.7138,1.7333,1.7333,1.7333,1.752,1.78,1.8172,1.845,1.8735,1.8827,1.9012,1.9546,1.9637,1.9828,2.0192,2.0292,2.0292,2.0292,2.0292,2.1072,2.241,2.2769,2.3804,2.5502,2.6165,2.6393,2.6678,2.6258,2.6,2.585,2.5744,2.6001,2.6444,2.6672,2.7009,2.7272,2.7247,2.7087,2.6386,2.6248,2.6455,2.6724,2.7055,2.7189,2.7251,2.7272,2.7272,2.7272,2.7272,2.7272,1.5825,1.573,1.5825,1.5825,1.5825,1.5737,1.5825,1.5825,1.5737,1.5737,1.5825,1.5825,1.5825,1.5825,1.5825,1.5825,1.5825,1.5825,1.5825,1.5825,1.5825,1.5825,1.5825,1.5635,1.5153,1.425,1.3199,1.2597,1.2299,1.2094,1.1984,1.1702,1.1027,1.1176,1.2279,1.1572,1.1408,1.2065,1.2292,1.2184,1.2032,1.1969,1.198,1.1963,1.2135,1.2576,1.3351,1.343,1.3515,1.3508,1.3528,1.3544,1.3943,1.4379,1.4976,1.5582,1.6012,1.6539,1.7023,1.7117,1.6763,1.6386,1.6763,1.685,1.6567,1.6857,1.7232,1.7333,1.7333,1.7333,1.7333,1.7426,1.78,1.8542,1.8643,1.8827,1.9371,1.9546,1.9745,2.0144,2.0261,2.0317,2.0317,2.042,2.0905,2.1698,2.2366,2.3315,2.4919,2.5545,2.602,2.6543,2.6409,2.5908,2.573,2.5615,2.5998,2.6328,2.6501,2.6772,2.7183,2.7308,2.7274,2.6774,2.6734,2.6931,2.6941,2.722,2.7231,2.7272,2.7272,2.7272,2.7272,2.7272,2.7272,1.5445,1.4873,1.554,1.5825,1.573,1.5635,1.5642,1.5825,1.5642,1.5642,1.5825,1.5825,1.5825,1.5825,1.5825,1.5825,1.5825,1.5825,1.5825,1.573,1.573,1.573,1.5635,1.5057,1.419,1.3216,1.2145,1.1628,1.1381,1.0789,1.0596,1.0806,1.0211,1.0604,1.1784,1.1104,1.0789,1.1024,1.1374,1.1237,1.0639,1.0815,1.099,1.0995,1.0995,1.1181,1.1446,1.2181,1.2796,1.3057,1.3227,1.3625,1.4157,1.4444,1.4807,1.5276,1.5373,1.5527,1.5717,1.5805,1.5717,1.5527,1.5717,1.6001,1.619,1.6379,1.6756,1.7138,1.7333,1.7333,1.7333,1.7333,1.7426,1.7699,1.78,1.8079,1.8635,1.8912,1.941,1.9977,2.0205,2.0407,2.0883,2.1037,2.1389,2.2302,2.2733,2.3483,2.4785,2.5381,2.5698,2.5844,2.5664,2.5638,2.5367,2.5382,2.5763,2.622,2.6489,2.6763,2.7091,2.7292,2.7274,2.7191,2.7253,2.7241,2.7262,2.7272,2.7272,2.7272,2.7272,2.7272,2.7272,2.7272,2.7272,1.3651,1.41,1.5293,1.577,1.5737,1.5635,1.5635,1.5737,1.5642,1.5642,1.5832,1.5825,1.5825,1.5825,1.5825,1.5547,1.5356,1.5642,1.5343,1.486,1.5153,1.5255,1.5057,1.38,1.2829,1.2047,1.1077,1.0592,1.0596,1.001,0.9857,1.014,0.974,0.9983,1.0901,1.0508,1.0116,1.0139,1.0403,1.0179,0.9757,0.9833,1.0014,1.0014,1.0014,1.0014,1.001,1.077,1.1434,1.195,1.2301,1.269,1.3128,1.322,1.3535,1.3939,1.4082,1.4178,1.4465,1.4555,1.4364,1.4178,1.437,1.4465,1.4848,1.5229,1.59,1.5886,1.6669,1.6951,1.6567,1.6958,1.7153,1.7145,1.7333,1.752,1.7994,1.855,1.9079,1.9694,1.9989,2.0384,2.0912,2.1326,2.176,2.2558,2.2762,2.3141,2.4239,2.4698,2.4736,2.4816,2.4966,2.4934,2.489,2.516,2.5533,2.5944,2.6438,2.6825,2.7295,2.74,2.7432,2.7337,2.7251,2.7251,2.7272,2.7272,2.7272,2.7272,2.7272,2.7272,2.7272,2.7272,2.7272,1.1061,1.3414,1.4961,1.5325,1.5153,1.535,1.5343,1.5439,1.5439,1.5452,1.5547,1.577,1.5655,1.5642,1.535,1.4867,1.4484,1.4956,1.4472,1.3505,1.3607,1.4004,1.3709,1.2344,1.1468,1.0984,1.0109,0.9723,0.9821,0.9624,0.9624,0.9702,0.9698,0.962,0.9862,0.9612,0.9612,0.9581,0.956,0.939,0.9169,0.9247,0.9251,0.9251,0.9259,0.9263,0.9378,0.9655,0.9936,1.0473,1.0901,1.1196,1.1044,1.1094,1.1755,1.2344,1.2242,1.2727,1.3204,1.3301,1.3102,1.2533,1.2915,1.3102,1.2915,1.3884,1.4453,1.4154,1.5514,1.6204,1.5527,1.6008,1.6683,1.6972,1.7153,1.752,1.7994,1.8381,1.8801,1.9241,1.9787,2.0227,2.0654,2.1189,2.1544,2.1953,2.2171,2.2646,2.306,2.361,2.3463,2.3644,2.3977,2.4038,2.3959,2.4237,2.4716,2.5492,2.6043,2.6599,2.718,2.74,2.7452,2.7357,2.7272,2.7272,2.7272,2.7272,2.7272,2.7272,2.7272,2.7272,2.7272,2.7272,2.7272,0.9652,1.1556,1.2543,1.3028,1.3113,1.3409,1.3409,1.3312,1.3505,1.3919,1.4449,1.5422,1.5088,1.4346,1.3806,1.3312,1.3312,1.3409,1.3403,1.2727,1.2145,1.2047,1.195,1.1463,1.0788,1.0109,0.9821,0.9624,0.9624,0.9624,0.9624,0.9624,0.9624,0.9624,0.9624,0.9624,0.9608,0.9563,0.9551,0.9531,0.9486,0.947,0.949,0.949,0.9474,0.9474,0.9482,0.9527,0.9832,1.0369,1.0886,1.1113,1.1011,1.1068,1.1194,1.1385,1.1482,1.1575,1.177,1.1863,1.1668,1.1575,1.1673,1.1965,1.2339,1.2727,1.3204,1.3392,1.4166,1.4651,1.4943,1.5337,1.5812,1.6581,1.6958,1.7232,1.7557,1.7844,1.8288,1.8985,1.9517,2.0004,2.0656,2.1186,2.1612,2.1829,2.2029,2.2348,2.2505,2.2706,2.2739,2.2769,2.3032,2.3003,2.3111,2.3384,2.3835,2.4804,2.55,2.6256,2.6855,2.7336,2.7357,2.7272,2.7272,2.7272,2.7272,2.7272,2.7272,2.7272,2.7272,2.7272,2.7272,2.7272,2.7272,0.9385,1.156,1.1663,1.2052,1.2635,1.263,1.2533,1.2436,1.2635,1.3152,1.3785,1.3893,1.3682,1.2942,1.2517,1.2226,1.2145,1.2533,1.2242,1.1277,1.0792,1.0596,1.0498,1.0498,1.0207,0.9723,0.9624,0.9624,0.9624,0.9624,0.9624,0.9624,0.9624,0.9624,0.9624,0.9624,0.9624,0.9624,0.9624,0.9624,0.9624,0.9624,0.9624,0.9624,0.9624,0.9624,0.9624,0.9624,0.9821,1.0113,1.031,1.0507,1.0511,1.0507,1.0511,1.0511,1.0511,1.0511,1.0511,1.0507,1.0507,1.0511,1.0511,1.0703,1.1179,1.1468,1.2042,1.1755,1.2716,1.3301,1.3397,1.3884,1.4657,1.5527,1.6096,1.6574,1.7052,1.7523,1.803,1.8641,1.9261,1.9798,2.0554,2.1003,2.1326,2.142,2.1599,2.1594,2.1636,2.1855,2.1892,2.1794,2.1943,2.2098,2.2611,2.2926,2.3559,2.4378,2.5243,2.5954,2.6476,2.7167,2.7272,2.7272,2.7272,2.7272,2.7272,2.7272,2.7272,2.7272,2.7272,2.7272,2.7272,2.7272,2.7272,1.0138,1.2538,1.1697,1.1888,1.264,1.2538,1.2052,1.195,1.1955,1.2467,1.278,1.193,1.1633,1.1507,1.1332,1.1336,1.1077,1.176,1.1082,1.0207,0.9727,0.9723,0.9821,0.9821,0.9723,0.9624,0.9624,0.9624,0.9624,0.9624,0.9624,0.9624,0.9624,0.9624,0.9624,0.9624,0.9624,0.9624,0.9624,0.9624,0.9624,0.9624,0.9624,0.9624,0.9624,0.9624,0.9624,0.9624,0.9624,0.9624,0.9624,0.9727,0.9727,0.9628,0.9628,0.9727,0.9826,0.9723,0.9628,0.9723,0.9723,0.9723,0.9723,0.9624,0.9916,1.0596,1.069,1.0109,1.157,1.1955,1.195,1.2436,1.3403,1.437,1.4657,1.5439,1.6388,1.7287,1.7797,1.8214,1.9029,1.9547,2.0066,2.0395,2.0814,2.0806,2.0987,2.1119,2.0974,2.0809,2.0649,2.027,2.0644,2.111,2.1875,2.2591,2.3358,2.4143,2.5035,2.5789,2.627,2.6764,2.7167,2.7272,2.7272,2.7272,2.7272,2.7272,2.7262,2.7272,2.7272,2.7272,2.7272,2.7272,2.7272,1.2473,1.1858,1.2201,1.1908,1.1301,1.0998,1.0502,0.9813,0.9916,1.0408,1.0413,1.0203,1.0096,1.01,1.019,1.001,1.001,1.0306,0.992,0.9727,0.9331,0.943,0.9529,0.9624,0.9624,0.9624,0.9624,0.9624,0.9624,0.9624,0.9624,0.9624,0.9624,0.9624,0.9624,0.9624,0.9624,0.9624,0.9624,0.9624,0.9624,0.9624,0.9624,0.9624,0.9624,0.9624,0.9624,0.9624,0.9624,0.9624,0.9624,0.9624,0.9628,0.9628,0.9628,0.9628,0.9628,0.9624,0.9628,0.9628,0.9628,0.9529,0.9525,0.9624,0.9624,0.9821,0.9916,0.9624,1.0113,1.0694,1.1077,1.215,1.2727,1.3113,1.3426,1.3796,1.4374,1.5808,1.7093,1.8016,1.8306,1.8651,1.9361,1.9879,2.0189,2.0292,2.0412,2.0601,2.04,2.0051,1.9773,1.955,1.9987,2.0579,2.1004,2.1907,2.2895,2.359,2.4478,2.5099,2.5684,2.6274,2.6572,2.6965,2.7272,2.7272,2.7272,2.7167,2.7071,2.7167,2.7272,2.7262,2.7262,2.7272,2.7367,1.2186,1.1663,1.16,1.1012,1.0314,1.0408,0.9916,0.9031,0.9034,0.9335,0.9537,0.9434,0.943,0.9624,0.9624,0.9624,0.9624,0.9624,0.9628,0.9529,0.943,0.943,0.9529,0.9624,0.9624,0.9624,0.9624,0.9624,0.9624,0.9624,0.9624,0.9624,0.9624,0.9624,0.9624,0.9624,0.9624,0.9624,0.9624,0.9624,0.9624,0.9624,0.9624,0.9624,0.9624,0.9624,0.9624,0.9624,0.9624,0.9624,0.9624,0.9525,0.943,0.9529,0.9529,0.943,0.9529,0.9529,0.943,0.9533,0.9426,0.9229,0.9327,0.943,0.943,0.943,0.9529,0.9529,0.9624,0.9916,1.04,1.0788,1.137,1.1975,1.2149,1.2793,1.4013,1.5093,1.5885,1.6787,1.7264,1.7921,1.8617,1.925,1.968,1.9783,1.9776,1.9964,1.9914,1.9606,1.9452,1.9365,1.9673,1.9955,2.0335,2.1081,2.217,2.2889,2.3457,2.4016,2.451,2.5197,2.5877,2.637,2.687,2.7272,2.7272,2.7167,2.6965,2.7071,2.7167,2.7071,2.7167,2.7167,2.7262,1.0984,1.156,1.0792,1.031,1.0122,1.0413,0.9813,0.8634,0.8935,0.9236,0.9442,0.9335,0.943,0.9529,0.9624,0.9624,0.9624,0.9624,0.9624,0.9628,0.9529,0.9529,0.9529,0.9529,0.9529,0.9628,0.9624,0.9624,0.9624,0.9624,0.9624,0.9624,0.9624,0.9624,0.9624,0.9624,0.9624,0.9624,0.9624,0.9624,0.9624,0.9624,0.9624,0.9624,0.9624,0.9422,0.9324,0.9324,0.9426,0.9327,0.9426,0.9331,0.9229,0.9331,0.943,0.913,0.9327,0.9331,0.9229,0.9331,0.9229,0.8825,0.9031,0.9133,0.9133,0.9133,0.9232,0.943,0.9529,0.9529,0.9529,0.9723,1.0229,1.0762,1.1093,1.2289,1.3936,1.4111,1.4143,1.5719,1.6787,1.7555,1.8101,1.8624,1.8952,1.9272,1.9272,1.931,1.9279,1.9194,1.916,1.92,1.9499,2.009,2.0456,2.0628,2.1626,2.208,2.2627,2.2828,2.3229,2.3701,2.4482,2.5684,2.6284,2.6774,2.7071,2.6965,2.6965,2.7061,2.687,2.6678,2.6774,2.7071,2.7167,1.1272,1.1565,1.1272,1.132,1.1476,1.0426,0.932,0.8733,0.8829,0.9031,0.9232,0.943,0.9529,0.9624,0.9624,0.9624,0.9624,0.9624,0.9624,0.9529,0.943,0.9434,0.9529,0.943,0.9434,0.9529,0.9624,0.9624,0.9624,0.9624,0.9624,0.9624,0.9624,0.9624,0.9624,0.9624,0.9624,0.9624,0.9624,0.9624,0.9624,0.9529,0.9525,0.9525,0.9525,0.9023,0.8418,0.8726,0.873,0.7822,0.8425,0.863,0.8531,0.8832,0.9031,0.8928,0.8928,0.9027,0.8928,0.8928,0.8924,0.8825,0.8829,0.8829,0.8829,0.8829,0.9031,0.9133,0.9232,0.9236,0.9232,0.9252,0.951,0.9991,1.0408,1.0955,1.2154,1.2384,1.276,1.4959,1.6243,1.7054,1.7364,1.7884,1.8527,1.8959,1.9168,1.9056,1.9044,1.9001,1.9095,1.9182,1.9502,2.0124,2.068,2.0696,2.1105,2.12,2.1522,2.1522,2.181,2.2097,2.2985,2.4088,2.5294,2.6081,2.6284,2.6476,2.6476,2.6274,2.6177,2.6091,2.6486,2.6774,2.6965,1.0105,0.9998,1.0391,1.0319,1.0053,0.992,0.9217,0.8435,0.863,0.8829,0.8931,0.9232,0.9331,0.943,0.9525,0.9624,0.9628,0.9624,0.9624,0.9529,0.9533,0.943,0.9525,0.943,0.9529,0.9628,0.9624,0.9628,0.9624,0.9624,0.9624,0.9624,0.9624,0.9624,0.9624,0.9624,0.9628,0.9628,0.9628,0.9628,0.9529,0.943,0.9327,0.9225,0.9122,0.8524,0.772,0.772,0.7524,0.6822,0.7422,0.7425,0.7428,0.7932,0.863,0.8531,0.8627,0.8726,0.8627,0.8726,0.8726,0.8428,0.8528,0.863,0.863,0.863,0.8726,0.8928,0.9031,0.9031,0.9031,0.9107,0.9295,0.9591,0.9824,1.064,1.1654,1.1563,1.2734,1.4228,1.4347,1.5114,1.6299,1.6935,1.7891,1.8429,1.8855,1.8848,1.8632,1.8651,1.864,1.8861,1.9067,1.9633,2.0151,2.0372,2.0506,2.0609,2.0617,2.0609,2.0712,2.1097,2.1497,2.2308,2.3502,2.4786,2.5489,2.5577,2.5586,2.5684,2.579,2.5897,2.6197,2.639,2.6572,0.8832,0.8531,0.9316,0.892,0.8237,0.9118,0.9019,0.8237,0.8531,0.863,0.8638,0.8931,0.9133,0.913,0.9229,0.9426,0.943,0.9426,0.9426,0.9426,0.9426,0.9422,0.9426,0.9426,0.9426,0.9327,0.9327,0.9529,0.9628,0.9624,0.9624,0.9624,0.9624,0.9529,0.9529,0.9529,0.9529,0.943,0.943,0.9426,0.9126,0.8931,0.8528,0.8223,0.812,0.7521,0.642,0.6623,0.6124,0.5724,0.5924,0.6224,0.5629,0.6728,0.763,0.773,0.8226,0.8432,0.8432,0.8428,0.8432,0.8137,0.8233,0.8333,0.8333,0.8432,0.8432,0.8627,0.8726,0.8759,0.8807,0.8899,0.9207,0.9542,0.9934,1.0432,1.1567,1.1868,1.1824,1.2521,1.2417,1.3171,1.4572,1.5755,1.6499,1.714,1.7569,1.7898,1.7681,1.7779,1.7928,1.8269,1.8589,1.9005,1.945,1.9761,1.999,2.0197,2.0094,1.999,2.0094,2.03,2.0704,2.1105,2.1802,2.2994,2.3791,2.4786,2.5089,2.5294,2.5499,2.5596,2.5596,2.5693,2.579,0.863,0.8726,0.8333,0.8137,0.8038,0.8233,0.8237,0.8137,0.8333,0.8432,0.8435,0.873,0.8829,0.8928,0.8924,0.8924,0.8924,0.8928,0.9023,0.9023,0.9023,0.9023,0.8924,0.8928,0.9027,0.9027,0.8924,0.9225,0.9426,0.9525,0.9529,0.9529,0.9525,0.9529,0.9232,0.9232,0.913,0.8924,0.8924,0.8421,0.7621,0.7425,0.6921,0.6321,0.6022,0.5622,0.4722,0.5024,0.4826,0.3825,0.4526,0.4924,0.4924,0.4924,0.5222,0.5827,0.683,0.8035,0.7836,0.7832,0.7836,0.7637,0.7836,0.8038,0.8137,0.8233,0.8237,0.8038,0.8343,0.85,0.8697,0.8772,0.9024,0.9384,0.9743,1.0625,1.1576,1.1589,1.1546,1.1664,1.1769,1.2096,1.2955,1.4143,1.5108,1.5755,1.6287,1.6505,1.6717,1.6711,1.7035,1.7246,1.7562,1.7982,1.8415,1.8729,1.9146,1.9472,1.9472,1.9368,1.9687,1.9791,1.9783,2.0292,2.0885,2.1489,2.2492,2.3493,2.4492,2.4894,2.5001,2.5001,2.4894,2.5001,2.5304,0.8829,0.8623,0.8333,0.8134,0.8028,0.8134,0.8237,0.8237,0.8528,0.8528,0.8432,0.8627,0.8825,0.8726,0.8825,0.8825,0.8825,0.8726,0.8825,0.8726,0.8726,0.8726,0.8825,0.8825,0.8825,0.8726,0.8825,0.8924,0.9126,0.913,0.9126,0.9126,0.9126,0.9126,0.8832,0.8931,0.8928,0.8627,0.8223,0.7325,0.6426,0.6027,0.5724,0.5122,0.5122,0.4423,0.3823,0.3725,0.3525,0.2722,0.3324,0.3524,0.3524,0.3924,0.4624,0.4026,0.5327,0.6129,0.6129,0.6229,0.6329,0.6431,0.6734,0.7338,0.7739,0.8038,0.8137,0.8038,0.8223,0.8404,0.8504,0.8636,0.8871,0.9326,0.9641,1.0144,1.087,1.0887,1.0907,1.1017,1.1122,1.1446,1.1878,1.2743,1.3712,1.425,1.4781,1.5102,1.5316,1.5417,1.5743,1.618,1.6499,1.6817,1.7252,1.7575,1.7989,1.8311,1.8617,1.8729,1.9272,1.9376,1.9472,1.968,2.0189,2.079,2.1497,2.2409,2.3511,2.4007,2.4402,2.4501,2.4599,2.5401,2.5606,0.913,0.8821,0.8627,0.8326,0.8219,0.8425,0.8428,0.8432,0.8726,0.8627,0.8432,0.8531,0.8531,0.863,0.8531,0.8531,0.8531,0.863,0.863,0.8627,0.8627,0.8531,0.8531,0.8531,0.8531,0.863,0.8531,0.8528,0.8627,0.8627,0.8627,0.8825,0.8825,0.8524,0.8322,0.8127,0.8028,0.7422,0.6822,0.5924,0.4926,0.4728,0.4425,0.4124,0.3925,0.3623,0.2922,0.2822,0.2321,0.212,0.2321,0.2421,0.222,0.2923,0.3423,0.3024,0.3726,0.3925,0.4225,0.4524,0.4724,0.5027,0.5429,0.6431,0.7338,0.764,0.7839,0.7939,0.817,0.8255,0.8364,0.8557,0.8793,0.9103,0.9406,0.9783,1.0147,1.0366,1.0582,1.0798,1.0907,1.0798,1.1232,1.1773,1.2422,1.2856,1.328,1.3701,1.3911,1.4019,1.4137,1.4572,1.5102,1.5423,1.5749,1.618,1.6717,1.7252,1.7457,1.7982,1.8415,1.8848,1.8952,1.9264,1.9576,2.0086,2.0688,2.1607,2.2426,2.2911,2.3402,2.4007,2.451,2.5206,2.5411,0.9529,0.943,0.9027,0.8722,0.852,0.8726,0.8627,0.8432,0.8726,0.8531,0.8137,0.8038,0.8137,0.8137,0.8137,0.8137,0.8038,0.8041,0.8137,0.8137,0.8038,0.8137,0.8134,0.8137,0.8038,0.8038,0.8134,0.8134,0.8035,0.7832,0.823,0.8726,0.8326,0.7829,0.7325,0.6924,0.6323,0.5722,0.5125,0.4524,0.3725,0.3324,0.2923,0.222,0.1918,0.1818,0.1718,0.1818,0.1817,0.1617,0.1818,0.1918,0.1818,0.2019,0.222,0.2119,0.212,0.2422,0.2521,0.3524,0.4524,0.4724,0.4924,0.5327,0.6334,0.6537,0.6936,0.7559,0.7588,0.8024,0.8246,0.8611,0.856,0.8958,0.9343,0.9574,0.9926,1.0257,1.0476,1.0692,1.0692,1.0692,1.0692,1.1232,1.145,1.1996,1.1996,1.2417,1.2417,1.2417,1.2422,1.2639,1.3388,1.3814,1.4024,1.4561,1.5322,1.5861,1.628,1.6922,1.7667,1.7989,1.8527,1.8848,1.916,1.9569,1.9983,2.0704,2.131,2.1802,2.24,2.3103,2.3809,2.4412,2.4322,0.9624,0.9628,0.9327,0.9232,0.9236,0.9034,0.8928,0.8726,0.8726,0.8531,0.8038,0.8038,0.8038,0.8038,0.8038,0.8038,0.8038,0.8038,0.7939,0.8038,0.8038,0.8038,0.8038,0.7839,0.7739,0.7338,0.7537,0.703,0.6126,0.6731,0.6528,0.6625,0.7027,0.6526,0.5927,0.5525,0.4824,0.4124,0.3725,0.3323,0.2421,0.222,0.2019,0.1717,0.1617,0.1617,0.1617,0.1617,0.1617,0.1617,0.1617,0.1617,0.1617,0.1617,0.1617,0.1617,0.1617,0.1617,0.1617,0.2522,0.3022,0.3723,0.3924,0.4225,0.5329,0.5427,0.5527,0.5977,0.64,0.6738,0.7422,0.7609,0.7886,0.8696,0.9154,0.9375,0.9592,0.9702,1.0033,1.0139,1.0468,1.0692,1.0692,1.0802,1.0911,1.1021,1.1021,1.1021,1.124,1.1345,1.1455,1.1564,1.2205,1.2639,1.2852,1.3388,1.404,1.4465,1.5001,1.5642,1.6387,1.7772,1.8206,1.8422,1.8743,1.9264,1.9576,1.9783,2.0292,2.0995,2.17,2.24,2.3003,2.352,2.352,0.9624,0.9624,0.9624,0.9529,0.9339,0.924,0.9034,0.8726,0.8825,0.8531,0.8137,0.8041,0.8038,0.8038,0.8038,0.7739,0.7637,0.7736,0.7739,0.754,0.7437,0.7537,0.7434,0.7033,0.6431,0.6232,0.6431,0.6027,0.5125,0.5629,0.5327,0.5027,0.4926,0.4826,0.4526,0.3924,0.3425,0.2923,0.2622,0.2421,0.1617,0.1617,0.1617,0.1617,0.1617,0.1617,0.1617,0.1617,0.1617,0.1617,0.1617,0.1617,0.1617,0.1617,0.1617,0.1617,0.1516,0.1516,0.1617,0.1717,0.1918,0.2622,0.2722,0.3324,0.4024,0.4323,0.4526,0.4941,0.5085,0.5415,0.6381,0.6549,0.6674,0.7257,0.8042,0.8374,0.8702,0.8923,0.9254,0.9585,1.0139,1.0692,1.0582,1.0582,1.0582,1.0692,1.0802,1.0911,1.0911,1.1017,1.1017,1.1126,1.1345,1.1673,1.1891,1.2432,1.2861,1.3073,1.3609,1.4143,1.5097,1.638,1.7562,1.7779,1.8206,1.8959,1.9376,1.948,1.9791,2.03,2.0901,2.1489,2.2215,2.2719,2.2929,0.9624,0.9624,0.9624,0.9327,0.8928,0.9133,0.8935,0.8531,0.863,0.863,0.8233,0.8137,0.7939,0.7839,0.7637,0.7033,0.6734,0.7335,0.7338,0.6634,0.6942,0.6639,0.6234,0.5732,0.5427,0.4924,0.5125,0.5225,0.4524,0.4929,0.4325,0.3524,0.3425,0.3425,0.3124,0.2221,0.1718,0.1617,0.1717,0.1717,0.1617,0.1617,0.1617,0.1617,0.1617,0.1617,0.1617,0.1617,0.1617,0.1617,0.1617,0.1515,0.1313,0.1313,0.1313,0.1212,0.1313,0.1313,0.1516,0.1516,0.1616,0.1818,0.2019,0.2321,0.3024,0.3324,0.3525,0.3935,0.446,0.4759,0.5153,0.5347,0.5531,0.6142,0.6924,0.7371,0.759,0.8036,0.8364,0.8806,0.9805,1.0582,1.0476,1.0366,1.0472,1.0472,1.0692,1.0692,1.0692,1.0692,1.0802,1.0802,1.1021,1.1021,1.135,1.1459,1.1787,1.1896,1.2214,1.2856,1.3604,1.4781,1.5849,1.6711,1.7569,1.8206,1.8743,1.9279,1.948,1.9687,2.0086,2.0585,2.131,2.1827,2.2123,0.9624,0.9624,0.9624,0.9327,0.8924,0.9034,0.8935,0.8435,0.8333,0.8237,0.8141,0.8055,0.755,0.7039,0.6229,0.5827,0.5627,0.6137,0.6037,0.5529,0.6445,0.6648,0.6039,0.5029,0.4626,0.4732,0.4732,0.3725,0.2621,0.3728,0.3527,0.2623,0.222,0.2119,0.212,0.1718,0.1617,0.1617,0.1617,0.1617,0.1617,0.1617,0.1617,0.1617,0.1617,0.1617,0.1516,0.1516,0.1415,0.1414,0.1313,0.101,0.0504,0.0303,0.0101,-0.0302,-0.0504,-0.0504,-0.0302,-0.0,0.0909,0.1212,0.1617,0.1717,0.212,0.212,0.2422,0.2633,0.3098,0.336,0.3839,0.401,0.4397,0.5347,0.6031,0.6142,0.6364,0.7033,0.7476,0.7919,0.8692,0.9251,0.9364,0.914,0.9247,0.9471,0.9581,1.0359,1.0472,1.0692,1.0692,1.0692,1.0802,1.0802,1.0802,1.1131,1.1131,1.124,1.1459,1.1782,1.2531,1.3496,1.3922,1.4776,1.6168,1.7463,1.7989,1.8422,1.8862,1.9175,1.9576,1.9975,2.0593,2.1011,2.1326,0.9624,0.9624,0.9624,0.943,0.9133,0.9034,0.8733,0.8237,0.7736,0.7441,0.7341,0.7048,0.6542,0.5732,0.5227,0.4626,0.4626,0.5434,0.4425,0.4121,0.5849,0.5746,0.5138,0.4126,0.3123,0.3428,0.3325,0.2519,0.1515,0.2724,0.2522,0.1615,0.1313,0.1414,0.1414,0.1415,0.1617,0.1617,0.1617,0.1617,0.1617,0.1617,0.1617,0.1617,0.1617,0.1516,0.1414,0.1212,0.101,0.0707,0.0404,0.0101,-0.0705,-0.1209,-0.141,-0.1711,-0.1812,-0.1812,-0.1511,-0.1309,-0.0605,-0.0101,0.0908,0.1516,0.1617,0.1718,0.1718,0.1727,0.1646,0.2082,0.2745,0.2899,0.339,0.432,0.4684,0.4795,0.4697,0.5252,0.6142,0.6584,0.7138,0.7697,0.8033,0.7919,0.7805,0.8137,0.8472,0.9247,1.0029,1.0249,1.0359,1.0468,1.0582,1.0582,1.0692,1.0802,1.0802,1.0692,1.0911,1.1131,1.1559,1.2417,1.263,1.3063,1.4674,1.6174,1.7022,1.7562,1.8325,1.8855,1.9264,1.9672,1.9983,2.0292,2.0609,0.9529,0.9632,0.9529,0.9335,0.9343,0.863,0.8226,0.7836,0.6836,0.6334,0.6334,0.5329,0.4929,0.4826,0.4624,0.4126,0.3828,0.4935,0.3521,0.2414,0.3528,0.3731,0.3328,0.2118,0.1614,0.111,0.1009,0.1312,0.0808,0.1212,0.1111,0.0909,0.0909,0.0909,0.101,0.1212,0.1415,0.1415,0.1415,0.1414,0.1414,0.1415,0.1212,0.101,0.0808,0.0707,0.0505,0.0303,-0.0504,-0.1008,-0.1411,-0.1813,-0.2114,-0.2415,-0.2416,-0.2517,-0.2618,-0.2618,-0.2819,-0.2718,-0.2719,-0.2216,-0.0605,0.0707,0.1313,0.1212,0.1414,0.142,0.1536,0.1652,0.1878,0.192,0.2071,0.2643,0.3113,0.3123,0.2799,0.336,0.425,0.5029,0.5695,0.6139,0.6364,0.6251,0.6253,0.6253,0.6586,0.7362,0.814,0.9247,0.9471,1.0139,1.0249,1.0472,1.0472,1.0472,1.0582,1.0582,1.0692,1.0911,1.1232,1.1446,1.1769,1.2526,1.3604,1.4781,1.5737,1.6922,1.8115,1.8534,1.8632,1.9264,1.9576,1.9879,2.0094,0.8549,0.9379,0.7939,0.7123,0.6728,0.6224,0.6029,0.6134,0.5529,0.5227,0.5225,0.4427,0.3927,0.3623,0.2923,0.2522,0.2522,0.2422,0.2017,0.1614,0.1513,0.1817,0.1615,0.101,0.0404,0.0202,0.0202,-0.0202,0.0,0.0101,0.0101,0.0303,0.0303,0.0505,0.0606,0.0909,0.0808,0.0909,0.0808,0.0707,0.0606,0.0505,0.0101,-0.0404,-0.1009,-0.121,-0.1209,-0.1713,-0.2519,-0.2922,-0.3024,-0.3324,-0.3723,-0.3823,-0.3925,-0.4528,-0.4429,-0.4228,-0.4528,-0.4529,-0.4634,-0.4839,-0.4034,-0.2521,-0.1109,0.0303,0.0808,0.0811,0.122,0.1331,0.1553,0.169,0.1724,0.2074,0.2427,0.2341,0.2125,0.2578,0.336,0.3583,0.4362,0.4697,0.4808,0.492,0.481,0.4589,0.47,0.5477,0.6253,0.7362,0.8361,0.9027,0.9361,0.9361,0.9919,1.0033,1.0253,1.0366,1.0472,1.0582,1.0798,1.1017,1.1236,1.1773,1.2635,1.3599,1.4561,1.5743,1.7147,1.747,1.7674,1.8422,1.9168,1.9264,1.9465,0.735,0.8375,0.6833,0.5722,0.5125,0.4524,0.4325,0.4329,0.4225,0.4223,0.4024,0.3225,0.2825,0.2522,0.2019,0.1616,0.1414,0.1717,0.1313,0.0606,0.0202,0.0505,0.0505,0.0,0.0,0.0,-0.1616,-0.3033,-0.2222,-0.1513,-0.1311,-0.1311,-0.0908,-0.1008,-0.1209,-0.141,-0.1309,-0.0806,-0.0504,-0.0706,-0.1211,-0.1716,-0.2322,-0.2319,-0.3228,-0.353,-0.3527,-0.4135,-0.4438,-0.474,-0.4841,-0.4939,-0.5233,-0.5231,-0.5231,-0.5734,-0.5634,-0.5534,-0.5734,-0.5737,-0.6044,-0.6253,-0.6364,-0.5249,-0.3124,-0.131,-0.0807,-0.0404,0.0405,0.1016,0.1338,0.1566,0.1593,0.1728,0.1754,0.178,0.2011,0.213,0.2356,0.2468,0.2803,0.3249,0.3361,0.3474,0.3362,0.325,0.325,0.381,0.4587,0.5697,0.6697,0.7473,0.7805,0.7916,0.8696,0.9254,0.9478,0.9699,1.0147,1.0253,1.0363,1.0363,1.0472,1.0903,1.1555,1.2413,1.327,1.4567,1.5755,1.5968,1.618,1.6711,1.7457,1.8311,1.852,0.6034,0.6954,0.5732,0.4724,0.4126,0.3623,0.3021,0.2422,0.2923,0.3123,0.2923,0.212,0.1717,0.1818,0.1617,0.1414,0.1212,0.1212,0.0,-0.0303,0.0,-0.0,-0.0505,0.0,0.0,0.0,-0.3133,-0.445,-0.5363,-0.4643,-0.3627,-0.3527,-0.3527,-0.3626,-0.3925,-0.4128,-0.4126,-0.3924,-0.3021,-0.2723,-0.475,-0.5667,-0.5665,-0.4336,-0.5146,-0.6165,-0.6165,-0.6369,-0.6369,-0.6364,-0.6356,-0.625,-0.6242,-0.6237,-0.6237,-0.6234,-0.6237,-0.6237,-0.6237,-0.6237,-0.6237,-0.6345,-0.635,-0.615,-0.4531,-0.3226,-0.2623,-0.0908,0.0101,0.0505,0.0817,0.1346,0.1683,0.1705,0.1727,0.1754,0.1885,0.2007,0.2019,0.2132,0.2131,0.2466,0.2466,0.2578,0.269,0.2243,0.2244,0.2692,0.3138,0.414,0.5031,0.6028,0.6253,0.6586,0.7252,0.7919,0.8475,0.892,0.9368,0.9926,1.0033,0.9926,0.9816,1.0359,1.0794,1.1332,1.2195,1.3275,1.403,1.4245,1.4454,1.4669,1.553,1.6599,1.7134,0.4438,0.5153,0.3324,0.2418,0.2321,0.2119,0.2018,0.1818,0.1919,0.2019,0.1919,0.1717,0.1516,0.1415,0.1313,0.1111,0.1111,0.0,-0.1919,-0.2323,-0.1918,-0.1513,-0.2521,-0.3433,-0.3534,-0.3026,-0.3833,-0.5457,-0.6369,-0.6258,-0.615,-0.6152,-0.5949,-0.5947,-0.6145,-0.645,-0.6553,-0.6445,-0.5947,-0.4632,-0.5035,-0.6364,-0.667,-0.6353,-0.7065,-0.6762,-0.6656,-0.6548,-0.6445,-0.6442,-0.6445,-0.6342,-0.6437,-0.6437,-0.6437,-0.6437,-0.6437,-0.6437,-0.6437,-0.6437,-0.6437,-0.6437,-0.6442,-0.6442,-0.5944,-0.5251,-0.3838,-0.1816,-0.0404,-0.0101,0.0304,0.0925,0.1561,0.1577,0.1698,0.1727,0.1757,0.1773,0.1789,0.1793,0.1793,0.1793,0.1793,0.1795,0.1795,0.1795,0.1907,0.2019,0.2131,0.2801,0.3583,0.4474,0.481,0.5256,0.5919,0.6364,0.6919,0.7697,0.8254,0.8923,0.9592,0.9596,0.9596,0.9816,1.0139,1.0574,1.1008,1.1546,1.2195,1.2521,1.2842,1.3161,1.3593,1.4449,1.5091,0.2828,0.3233,0.212,0.1615,0.1617,0.1617,0.1617,0.1617,0.1617,0.1111,0.0707,0.1111,0.1313,0.0606,0.0101,-0.0,-0.0202,-0.1209,-0.272,-0.3731,-0.4338,-0.3626,-0.4537,-0.5655,-0.5754,-0.5142,-0.5238,-0.615,-0.7169,-0.716,-0.7051,-0.7256,-0.7256,-0.7256,-0.7356,-0.7666,-0.7969,-0.7962,-0.7972,-0.7048,-0.5622,-0.6748,-0.7363,-0.7356,-0.715,-0.7048,-0.6945,-0.6836,-0.6739,-0.6736,-0.6836,-0.6637,-0.6637,-0.6836,-0.6736,-0.6537,-0.6437,-0.6437,-0.6437,-0.6437,-0.6437,-0.6437,-0.6437,-0.6437,-0.6442,-0.5648,-0.5046,-0.3123,-0.2116,-0.1713,-0.1312,-0.0815,0.0515,0.1145,0.1468,0.1698,0.1719,0.1735,0.1754,0.1769,0.1773,0.178,0.1783,0.1795,0.1795,0.1795,0.1795,0.1795,0.1795,0.1795,0.2578,0.3025,0.3473,0.3918,0.4583,0.4916,0.5363,0.6142,0.703,0.8036,0.8816,0.9151,0.9375,0.9372,0.9485,0.9706,1.0143,1.0574,1.0684,1.1008,1.1332,1.176,1.2082,1.2408,1.262,0.1415,0.1414,0.1313,0.1313,0.1414,0.1414,0.1212,0.1111,0.1111,0.0202,-0.1007,0.0302,0.0302,-0.0706,-0.242,-0.2518,-0.2818,-0.3825,-0.4632,-0.5238,-0.6353,-0.5636,-0.5534,-0.6245,-0.6553,-0.6856,-0.6951,-0.7051,-0.7459,-0.745,-0.7441,-0.7338,-0.7437,-0.7537,-0.7643,-0.7842,-0.8045,-0.8144,-0.8144,-0.8041,-0.7743,-0.7753,-0.7547,-0.7341,-0.7235,-0.7235,-0.7235,-0.7135,-0.7039,-0.7531,-0.7822,-0.7819,-0.7624,-0.7822,-0.7528,-0.7428,-0.6833,-0.6833,-0.6637,-0.6736,-0.6634,-0.6634,-0.6534,-0.6537,-0.6639,-0.6139,-0.5541,-0.4836,-0.3927,-0.3428,-0.3027,-0.2225,-0.0817,0.0515,0.0933,0.1565,0.1581,0.1597,0.1725,0.1745,0.1755,0.1764,0.178,0.1791,0.1794,0.1794,0.1795,0.1795,0.1795,0.1795,0.213,0.2354,0.2466,0.2912,0.3357,0.358,0.4027,0.4806,0.5808,0.7035,0.8042,0.8152,0.8374,0.8602,0.8823,0.9154,0.9379,0.9702,0.9816,0.982,1.0249,1.068,1.057,1.0789,1.0355,0.0303,0.0303,0.0,0.0,0.0202,0.0303,-0.0202,-0.0906,-0.1107,-0.171,-0.2511,-0.2209,-0.1807,-0.2011,-0.555,-0.6261,-0.5336,-0.6147,-0.655,-0.7156,-0.7366,-0.7051,-0.6842,-0.7045,-0.725,-0.7547,-0.7743,-0.7646,-0.8336,-0.8237,-0.8035,-0.8329,-0.8329,-0.8428,-0.8623,-0.8726,-0.8825,-0.892,-0.892,-0.8821,-0.8531,-0.8336,-0.7846,-0.7643,-0.764,-0.754,-0.7441,-0.7338,-0.773,-0.8414,-0.9193,-0.9391,-0.9391,-0.9103,-0.8909,-0.8418,-0.7922,-0.7528,-0.7531,-0.7431,-0.7528,-0.7329,-0.7332,-0.7332,-0.7235,-0.6836,-0.6337,-0.6142,-0.5539,-0.545,-0.505,-0.4034,-0.274,-0.1223,-0.041,0.0723,0.1354,0.1476,0.1494,0.1618,0.1631,0.1759,0.1782,0.1789,0.1679,0.168,0.1795,0.1795,0.157,0.1683,0.1795,0.1795,0.1795,0.1795,0.213,0.2353,0.28,0.3582,0.436,0.5586,0.6478,0.7038,0.7263,0.7485,0.8156,0.8712,0.8933,0.8823,0.9165,0.9275,0.9489,0.9596,0.9489,0.9493,0.95]}]]